<?xml version="1.0" encoding="UTF-8" standalone="no" ?>
<gpx xmlns="http://www.topografix.com/GPX/1/1" xmlns:xsi="http://www.w3.org/2001/XMLSchema-instance" xsi:schemaLocation="http://www.topografix.com/GPX/1/1 http://www.topografix.com/GPX/1/1/gpx.xsd" version="1.1" creator="VisuGPX - https://www.visugpx.com">
  <metadata>
    <name>myo cross max selon Nini</name>
    <desc><![CDATA[séance de myo cross max façon Nini, le dimanche 13 mai 2012]]></desc>
  </metadata>
  <trk>
    <name><![CDATA[2012-05-13T07:55:22Z]]></name>
    <trkseg>
      <trkpt lat="45.84542" lon="4.83116">
        <ele>170</ele>
        <time>2012-05-13T07:55:22Z</time>
      </trkpt>
      <trkpt lat="45.84539" lon="4.83108">
        <ele>171</ele>
        <time>2012-05-13T07:55:27Z</time>
      </trkpt>
      <trkpt lat="45.84539" lon="4.83103">
        <ele>171</ele>
        <time>2012-05-13T07:55:29Z</time>
      </trkpt>
      <trkpt lat="45.8454" lon="4.83099">
        <ele>171</ele>
        <time>2012-05-13T07:55:31Z</time>
      </trkpt>
      <trkpt lat="45.84539" lon="4.83094">
        <ele>171</ele>
        <time>2012-05-13T07:55:33Z</time>
      </trkpt>
      <trkpt lat="45.84538" lon="4.83091">
        <ele>171</ele>
        <time>2012-05-13T07:55:34Z</time>
      </trkpt>
      <trkpt lat="45.84539" lon="4.83081">
        <ele>171</ele>
        <time>2012-05-13T07:55:38Z</time>
      </trkpt>
      <trkpt lat="45.8454" lon="4.83068">
        <ele>172</ele>
        <time>2012-05-13T07:55:42Z</time>
      </trkpt>
      <trkpt lat="45.8454" lon="4.83065">
        <ele>172</ele>
        <time>2012-05-13T07:55:43Z</time>
      </trkpt>
      <trkpt lat="45.84535" lon="4.83052">
        <ele>172</ele>
        <time>2012-05-13T07:55:47Z</time>
      </trkpt>
      <trkpt lat="45.84535" lon="4.83044">
        <ele>172</ele>
        <time>2012-05-13T07:55:50Z</time>
      </trkpt>
      <trkpt lat="45.84538" lon="4.8304">
        <ele>172</ele>
        <time>2012-05-13T07:55:52Z</time>
      </trkpt>
      <trkpt lat="45.84548" lon="4.8303">
        <ele>172</ele>
        <time>2012-05-13T07:55:57Z</time>
      </trkpt>
      <trkpt lat="45.84555" lon="4.83025">
        <ele>172</ele>
        <time>2012-05-13T07:56:00Z</time>
      </trkpt>
      <trkpt lat="45.8456" lon="4.83024">
        <ele>172</ele>
        <time>2012-05-13T07:56:02Z</time>
      </trkpt>
      <trkpt lat="45.84572" lon="4.83021">
        <ele>172</ele>
        <time>2012-05-13T07:56:07Z</time>
      </trkpt>
      <trkpt lat="45.84574" lon="4.8302">
        <ele>172</ele>
        <time>2012-05-13T07:56:08Z</time>
      </trkpt>
      <trkpt lat="45.84583" lon="4.83018">
        <ele>172</ele>
        <time>2012-05-13T07:56:12Z</time>
      </trkpt>
      <trkpt lat="45.84585" lon="4.83008">
        <ele>172</ele>
        <time>2012-05-13T07:56:16Z</time>
      </trkpt>
      <trkpt lat="45.84585" lon="4.83005">
        <ele>172</ele>
        <time>2012-05-13T07:56:17Z</time>
      </trkpt>
      <trkpt lat="45.84583" lon="4.8299">
        <ele>173</ele>
        <time>2012-05-13T07:56:22Z</time>
      </trkpt>
      <trkpt lat="45.84581" lon="4.82983">
        <ele>174</ele>
        <time>2012-05-13T07:56:25Z</time>
      </trkpt>
      <trkpt lat="45.84579" lon="4.82981">
        <ele>174</ele>
        <time>2012-05-13T07:56:26Z</time>
      </trkpt>
      <trkpt lat="45.84578" lon="4.82979">
        <ele>175</ele>
        <time>2012-05-13T07:56:27Z</time>
      </trkpt>
      <trkpt lat="45.84571" lon="4.82967">
        <ele>175</ele>
        <time>2012-05-13T07:56:32Z</time>
      </trkpt>
      <trkpt lat="45.8457" lon="4.82964">
        <ele>176</ele>
        <time>2012-05-13T07:56:33Z</time>
      </trkpt>
      <trkpt lat="45.8457" lon="4.82958">
        <ele>176</ele>
        <time>2012-05-13T07:56:35Z</time>
      </trkpt>
      <trkpt lat="45.8457" lon="4.82952">
        <ele>176</ele>
        <time>2012-05-13T07:56:37Z</time>
      </trkpt>
      <trkpt lat="45.84572" lon="4.82939">
        <ele>177</ele>
        <time>2012-05-13T07:56:42Z</time>
      </trkpt>
      <trkpt lat="45.84574" lon="4.82933">
        <ele>177</ele>
        <time>2012-05-13T07:56:45Z</time>
      </trkpt>
      <trkpt lat="45.84577" lon="4.8293">
        <ele>177</ele>
        <time>2012-05-13T07:56:47Z</time>
      </trkpt>
      <trkpt lat="45.84582" lon="4.82923">
        <ele>178</ele>
        <time>2012-05-13T07:56:53Z</time>
      </trkpt>
      <trkpt lat="45.84582" lon="4.82922">
        <ele>178</ele>
        <time>2012-05-13T07:56:54Z</time>
      </trkpt>
      <trkpt lat="45.84579" lon="4.82911">
        <ele>179</ele>
        <time>2012-05-13T07:56:59Z</time>
      </trkpt>
      <trkpt lat="45.84579" lon="4.82909">
        <ele>179</ele>
        <time>2012-05-13T07:57:00Z</time>
      </trkpt>
      <trkpt lat="45.84572" lon="4.82896">
        <ele>180</ele>
        <time>2012-05-13T07:57:05Z</time>
      </trkpt>
      <trkpt lat="45.84571" lon="4.82891">
        <ele>181</ele>
        <time>2012-05-13T07:57:07Z</time>
      </trkpt>
      <trkpt lat="45.84574" lon="4.82887">
        <ele>181</ele>
        <time>2012-05-13T07:57:09Z</time>
      </trkpt>
      <trkpt lat="45.84583" lon="4.82874">
        <ele>182</ele>
        <time>2012-05-13T07:57:14Z</time>
      </trkpt>
      <trkpt lat="45.84589" lon="4.82871">
        <ele>181</ele>
        <time>2012-05-13T07:57:17Z</time>
      </trkpt>
      <trkpt lat="45.8459" lon="4.82871">
        <ele>181</ele>
        <time>2012-05-13T07:57:18Z</time>
      </trkpt>
      <trkpt lat="45.84593" lon="4.82872">
        <ele>181</ele>
        <time>2012-05-13T07:57:19Z</time>
      </trkpt>
      <trkpt lat="45.84604" lon="4.82875">
        <ele>181</ele>
        <time>2012-05-13T07:57:23Z</time>
      </trkpt>
      <trkpt lat="45.84606" lon="4.82876">
        <ele>181</ele>
        <time>2012-05-13T07:57:24Z</time>
      </trkpt>
      <trkpt lat="45.84614" lon="4.82879">
        <ele>180</ele>
        <time>2012-05-13T07:57:27Z</time>
      </trkpt>
      <trkpt lat="45.84624" lon="4.82884">
        <ele>180</ele>
        <time>2012-05-13T07:57:31Z</time>
      </trkpt>
      <trkpt lat="45.84626" lon="4.82885">
        <ele>180</ele>
        <time>2012-05-13T07:57:32Z</time>
      </trkpt>
      <trkpt lat="45.84643" lon="4.82889">
        <ele>179</ele>
        <time>2012-05-13T07:57:39Z</time>
      </trkpt>
      <trkpt lat="45.84657" lon="4.8289">
        <ele>179</ele>
        <time>2012-05-13T07:57:45Z</time>
      </trkpt>
      <trkpt lat="45.84662" lon="4.82891">
        <ele>179</ele>
        <time>2012-05-13T07:57:47Z</time>
      </trkpt>
      <trkpt lat="45.84671" lon="4.82894">
        <ele>179</ele>
        <time>2012-05-13T07:57:51Z</time>
      </trkpt>
      <trkpt lat="45.84681" lon="4.82897">
        <ele>179</ele>
        <time>2012-05-13T07:57:55Z</time>
      </trkpt>
      <trkpt lat="45.84685" lon="4.82899">
        <ele>179</ele>
        <time>2012-05-13T07:57:57Z</time>
      </trkpt>
      <trkpt lat="45.84697" lon="4.82902">
        <ele>180</ele>
        <time>2012-05-13T07:58:02Z</time>
      </trkpt>
      <trkpt lat="45.847" lon="4.82903">
        <ele>180</ele>
        <time>2012-05-13T07:58:03Z</time>
      </trkpt>
      <trkpt lat="45.8471" lon="4.82906">
        <ele>180</ele>
        <time>2012-05-13T07:58:07Z</time>
      </trkpt>
      <trkpt lat="45.8472" lon="4.82908">
        <ele>180</ele>
        <time>2012-05-13T07:58:11Z</time>
      </trkpt>
      <trkpt lat="45.84728" lon="4.8291">
        <ele>179</ele>
        <time>2012-05-13T07:58:14Z</time>
      </trkpt>
      <trkpt lat="45.84735" lon="4.82912">
        <ele>179</ele>
        <time>2012-05-13T07:58:17Z</time>
      </trkpt>
      <trkpt lat="45.84738" lon="4.82913">
        <ele>178</ele>
        <time>2012-05-13T07:58:18Z</time>
      </trkpt>
      <trkpt lat="45.8474" lon="4.82913">
        <ele>178</ele>
        <time>2012-05-13T07:58:19Z</time>
      </trkpt>
      <trkpt lat="45.84754" lon="4.82916">
        <ele>178</ele>
        <time>2012-05-13T07:58:24Z</time>
      </trkpt>
      <trkpt lat="45.84757" lon="4.82917">
        <ele>179</ele>
        <time>2012-05-13T07:58:25Z</time>
      </trkpt>
      <trkpt lat="45.8476" lon="4.82918">
        <ele>176</ele>
        <time>2012-05-13T07:58:26Z</time>
      </trkpt>
      <trkpt lat="45.84767" lon="4.82921">
        <ele>176</ele>
        <time>2012-05-13T07:58:29Z</time>
      </trkpt>
      <trkpt lat="45.84776" lon="4.82924">
        <ele>176</ele>
        <time>2012-05-13T07:58:33Z</time>
      </trkpt>
      <trkpt lat="45.84781" lon="4.82924">
        <ele>176</ele>
        <time>2012-05-13T07:58:35Z</time>
      </trkpt>
      <trkpt lat="45.84795" lon="4.82928">
        <ele>176</ele>
        <time>2012-05-13T07:58:41Z</time>
      </trkpt>
      <trkpt lat="45.84806" lon="4.82931">
        <ele>176</ele>
        <time>2012-05-13T07:58:46Z</time>
      </trkpt>
      <trkpt lat="45.84808" lon="4.82931">
        <ele>177</ele>
        <time>2012-05-13T07:58:47Z</time>
      </trkpt>
      <trkpt lat="45.84813" lon="4.82934">
        <ele>177</ele>
        <time>2012-05-13T07:58:50Z</time>
      </trkpt>
      <trkpt lat="45.84816" lon="4.82936">
        <ele>177</ele>
        <time>2012-05-13T07:58:51Z</time>
      </trkpt>
      <trkpt lat="45.84831" lon="4.82939">
        <ele>177</ele>
        <time>2012-05-13T07:58:57Z</time>
      </trkpt>
      <trkpt lat="45.84833" lon="4.8294">
        <ele>177</ele>
        <time>2012-05-13T07:58:58Z</time>
      </trkpt>
      <trkpt lat="45.84844" lon="4.82945">
        <ele>179</ele>
        <time>2012-05-13T07:59:03Z</time>
      </trkpt>
      <trkpt lat="45.8485" lon="4.82952">
        <ele>178</ele>
        <time>2012-05-13T07:59:06Z</time>
      </trkpt>
      <trkpt lat="45.84857" lon="4.82957">
        <ele>178</ele>
        <time>2012-05-13T07:59:09Z</time>
      </trkpt>
      <trkpt lat="45.84867" lon="4.82964">
        <ele>178</ele>
        <time>2012-05-13T07:59:13Z</time>
      </trkpt>
      <trkpt lat="45.84869" lon="4.82966">
        <ele>178</ele>
        <time>2012-05-13T07:59:14Z</time>
      </trkpt>
      <trkpt lat="45.84881" lon="4.8297">
        <ele>178</ele>
        <time>2012-05-13T07:59:19Z</time>
      </trkpt>
      <trkpt lat="45.84886" lon="4.82971">
        <ele>178</ele>
        <time>2012-05-13T07:59:21Z</time>
      </trkpt>
      <trkpt lat="45.849" lon="4.82971">
        <ele>178</ele>
        <time>2012-05-13T07:59:26Z</time>
      </trkpt>
      <trkpt lat="45.84907" lon="4.82971">
        <ele>178</ele>
        <time>2012-05-13T07:59:28Z</time>
      </trkpt>
      <trkpt lat="45.84912" lon="4.82972">
        <ele>178</ele>
        <time>2012-05-13T07:59:30Z</time>
      </trkpt>
      <trkpt lat="45.84922" lon="4.82975">
        <ele>178</ele>
        <time>2012-05-13T07:59:34Z</time>
      </trkpt>
      <trkpt lat="45.84926" lon="4.82979">
        <ele>177</ele>
        <time>2012-05-13T07:59:36Z</time>
      </trkpt>
      <trkpt lat="45.84935" lon="4.82989">
        <ele>177</ele>
        <time>2012-05-13T07:59:40Z</time>
      </trkpt>
      <trkpt lat="45.84942" lon="4.82995">
        <ele>177</ele>
        <time>2012-05-13T07:59:43Z</time>
      </trkpt>
      <trkpt lat="45.84946" lon="4.82999">
        <ele>177</ele>
        <time>2012-05-13T07:59:45Z</time>
      </trkpt>
      <trkpt lat="45.84958" lon="4.83008">
        <ele>172</ele>
        <time>2012-05-13T07:59:50Z</time>
      </trkpt>
      <trkpt lat="45.84973" lon="4.83023">
        <ele>172</ele>
        <time>2012-05-13T07:59:57Z</time>
      </trkpt>
      <trkpt lat="45.84978" lon="4.83026">
        <ele>172</ele>
        <time>2012-05-13T07:59:59Z</time>
      </trkpt>
      <trkpt lat="45.84984" lon="4.83028">
        <ele>172</ele>
        <time>2012-05-13T08:00:02Z</time>
      </trkpt>
      <trkpt lat="45.84993" lon="4.8303">
        <ele>172</ele>
        <time>2012-05-13T08:00:05Z</time>
      </trkpt>
      <trkpt lat="45.84999" lon="4.83031">
        <ele>172</ele>
        <time>2012-05-13T08:00:07Z</time>
      </trkpt>
      <trkpt lat="45.85011" lon="4.83033">
        <ele>173</ele>
        <time>2012-05-13T08:00:12Z</time>
      </trkpt>
      <trkpt lat="45.85017" lon="4.83034">
        <ele>173</ele>
        <time>2012-05-13T08:00:14Z</time>
      </trkpt>
      <trkpt lat="45.85027" lon="4.83036">
        <ele>173</ele>
        <time>2012-05-13T08:00:18Z</time>
      </trkpt>
      <trkpt lat="45.8503" lon="4.83036">
        <ele>173</ele>
        <time>2012-05-13T08:00:19Z</time>
      </trkpt>
      <trkpt lat="45.85041" lon="4.83038">
        <ele>173</ele>
        <time>2012-05-13T08:00:24Z</time>
      </trkpt>
      <trkpt lat="45.85048" lon="4.8304">
        <ele>173</ele>
        <time>2012-05-13T08:00:27Z</time>
      </trkpt>
      <trkpt lat="45.85055" lon="4.83041">
        <ele>173</ele>
        <time>2012-05-13T08:00:30Z</time>
      </trkpt>
      <trkpt lat="45.85068" lon="4.83043">
        <ele>173</ele>
        <time>2012-05-13T08:00:35Z</time>
      </trkpt>
      <trkpt lat="45.85083" lon="4.83043">
        <ele>174</ele>
        <time>2012-05-13T08:00:41Z</time>
      </trkpt>
      <trkpt lat="45.85088" lon="4.83043">
        <ele>174</ele>
        <time>2012-05-13T08:00:43Z</time>
      </trkpt>
      <trkpt lat="45.85095" lon="4.83043">
        <ele>174</ele>
        <time>2012-05-13T08:00:46Z</time>
      </trkpt>
      <trkpt lat="45.85107" lon="4.83043">
        <ele>174</ele>
        <time>2012-05-13T08:00:51Z</time>
      </trkpt>
      <trkpt lat="45.85112" lon="4.83044">
        <ele>174</ele>
        <time>2012-05-13T08:00:53Z</time>
      </trkpt>
      <trkpt lat="45.85126" lon="4.83046">
        <ele>174</ele>
        <time>2012-05-13T08:00:59Z</time>
      </trkpt>
      <trkpt lat="45.85129" lon="4.83046">
        <ele>174</ele>
        <time>2012-05-13T08:01:00Z</time>
      </trkpt>
      <trkpt lat="45.85145" lon="4.83048">
        <ele>174</ele>
        <time>2012-05-13T08:01:07Z</time>
      </trkpt>
      <trkpt lat="45.85157" lon="4.83049">
        <ele>174</ele>
        <time>2012-05-13T08:01:12Z</time>
      </trkpt>
      <trkpt lat="45.85164" lon="4.83049">
        <ele>174</ele>
        <time>2012-05-13T08:01:15Z</time>
      </trkpt>
      <trkpt lat="45.85169" lon="4.8305">
        <ele>175</ele>
        <time>2012-05-13T08:01:17Z</time>
      </trkpt>
      <trkpt lat="45.85181" lon="4.83049">
        <ele>175</ele>
        <time>2012-05-13T08:01:23Z</time>
      </trkpt>
      <trkpt lat="45.85183" lon="4.83048">
        <ele>175</ele>
        <time>2012-05-13T08:01:24Z</time>
      </trkpt>
      <trkpt lat="45.85191" lon="4.83044">
        <ele>175</ele>
        <time>2012-05-13T08:01:29Z</time>
      </trkpt>
      <trkpt lat="45.85192" lon="4.83044">
        <ele>175</ele>
        <time>2012-05-13T08:01:31Z</time>
      </trkpt>
      <trkpt lat="45.85194" lon="4.83037">
        <ele>175</ele>
        <time>2012-05-13T08:01:35Z</time>
      </trkpt>
      <trkpt lat="45.85195" lon="4.83031">
        <ele>175</ele>
        <time>2012-05-13T08:01:37Z</time>
      </trkpt>
      <trkpt lat="45.85195" lon="4.83028">
        <ele>175</ele>
        <time>2012-05-13T08:01:38Z</time>
      </trkpt>
      <trkpt lat="45.85196" lon="4.83019">
        <ele>176</ele>
        <time>2012-05-13T08:01:41Z</time>
      </trkpt>
      <trkpt lat="45.85198" lon="4.83007">
        <ele>176</ele>
        <time>2012-05-13T08:01:45Z</time>
      </trkpt>
      <trkpt lat="45.85198" lon="4.83004">
        <ele>176</ele>
        <time>2012-05-13T08:01:46Z</time>
      </trkpt>
      <trkpt lat="45.85198" lon="4.82988">
        <ele>181</ele>
        <time>2012-05-13T08:01:51Z</time>
      </trkpt>
      <trkpt lat="45.85199" lon="4.82977">
        <ele>182</ele>
        <time>2012-05-13T08:01:55Z</time>
      </trkpt>
      <trkpt lat="45.85199" lon="4.82974">
        <ele>182</ele>
        <time>2012-05-13T08:01:56Z</time>
      </trkpt>
      <trkpt lat="45.85199" lon="4.82959">
        <ele>183</ele>
        <time>2012-05-13T08:02:01Z</time>
      </trkpt>
      <trkpt lat="45.85199" lon="4.82951">
        <ele>184</ele>
        <time>2012-05-13T08:02:04Z</time>
      </trkpt>
      <trkpt lat="45.85199" lon="4.82945">
        <ele>184</ele>
        <time>2012-05-13T08:02:06Z</time>
      </trkpt>
      <trkpt lat="45.85198" lon="4.82928">
        <ele>185</ele>
        <time>2012-05-13T08:02:12Z</time>
      </trkpt>
      <trkpt lat="45.85197" lon="4.82922">
        <ele>186</ele>
        <time>2012-05-13T08:02:14Z</time>
      </trkpt>
      <trkpt lat="45.85197" lon="4.82914">
        <ele>193</ele>
        <time>2012-05-13T08:02:17Z</time>
      </trkpt>
      <trkpt lat="45.85199" lon="4.82904">
        <ele>194</ele>
        <time>2012-05-13T08:02:21Z</time>
      </trkpt>
      <trkpt lat="45.85199" lon="4.82901">
        <ele>194</ele>
        <time>2012-05-13T08:02:22Z</time>
      </trkpt>
      <trkpt lat="45.85199" lon="4.82895">
        <ele>194</ele>
        <time>2012-05-13T08:02:24Z</time>
      </trkpt>
      <trkpt lat="45.85201" lon="4.82888">
        <ele>195</ele>
        <time>2012-05-13T08:02:27Z</time>
      </trkpt>
      <trkpt lat="45.85204" lon="4.82878">
        <ele>196</ele>
        <time>2012-05-13T08:02:32Z</time>
      </trkpt>
      <trkpt lat="45.85204" lon="4.82876">
        <ele>196</ele>
        <time>2012-05-13T08:02:33Z</time>
      </trkpt>
      <trkpt lat="45.85205" lon="4.8287">
        <ele>196</ele>
        <time>2012-05-13T08:02:37Z</time>
      </trkpt>
      <trkpt lat="45.85206" lon="4.82867">
        <ele>197</ele>
        <time>2012-05-13T08:02:39Z</time>
      </trkpt>
      <trkpt lat="45.8521" lon="4.82854">
        <ele>198</ele>
        <time>2012-05-13T08:02:47Z</time>
      </trkpt>
      <trkpt lat="45.85213" lon="4.82846">
        <ele>198</ele>
        <time>2012-05-13T08:02:52Z</time>
      </trkpt>
      <trkpt lat="45.85213" lon="4.82842">
        <ele>198</ele>
        <time>2012-05-13T08:02:54Z</time>
      </trkpt>
      <trkpt lat="45.85217" lon="4.82826">
        <ele>208</ele>
        <time>2012-05-13T08:03:03Z</time>
      </trkpt>
      <trkpt lat="45.85218" lon="4.8282">
        <ele>209</ele>
        <time>2012-05-13T08:03:07Z</time>
      </trkpt>
      <trkpt lat="45.8522" lon="4.82811">
        <ele>209</ele>
        <time>2012-05-13T08:03:12Z</time>
      </trkpt>
      <trkpt lat="45.85225" lon="4.82798">
        <ele>210</ele>
        <time>2012-05-13T08:03:20Z</time>
      </trkpt>
      <trkpt lat="45.85225" lon="4.82795">
        <ele>211</ele>
        <time>2012-05-13T08:03:21Z</time>
      </trkpt>
      <trkpt lat="45.85229" lon="4.82789">
        <ele>211</ele>
        <time>2012-05-13T08:03:25Z</time>
      </trkpt>
      <trkpt lat="45.85229" lon="4.82788">
        <ele>212</ele>
        <time>2012-05-13T08:03:26Z</time>
      </trkpt>
      <trkpt lat="45.85231" lon="4.82783">
        <ele>212</ele>
        <time>2012-05-13T08:03:29Z</time>
      </trkpt>
      <trkpt lat="45.85232" lon="4.82775">
        <ele>213</ele>
        <time>2012-05-13T08:03:33Z</time>
      </trkpt>
      <trkpt lat="45.85232" lon="4.82771">
        <ele>214</ele>
        <time>2012-05-13T08:03:35Z</time>
      </trkpt>
      <trkpt lat="45.85233" lon="4.82766">
        <ele>214</ele>
        <time>2012-05-13T08:03:38Z</time>
      </trkpt>
      <trkpt lat="45.85233" lon="4.82764">
        <ele>214</ele>
        <time>2012-05-13T08:03:39Z</time>
      </trkpt>
      <trkpt lat="45.85232" lon="4.82753">
        <ele>215</ele>
        <time>2012-05-13T08:03:44Z</time>
      </trkpt>
      <trkpt lat="45.85232" lon="4.8275">
        <ele>224</ele>
        <time>2012-05-13T08:03:46Z</time>
      </trkpt>
      <trkpt lat="45.85233" lon="4.82747">
        <ele>223</ele>
        <time>2012-05-13T08:03:48Z</time>
      </trkpt>
      <trkpt lat="45.85234" lon="4.82737">
        <ele>224</ele>
        <time>2012-05-13T08:03:53Z</time>
      </trkpt>
      <trkpt lat="45.85238" lon="4.82729">
        <ele>225</ele>
        <time>2012-05-13T08:03:59Z</time>
      </trkpt>
      <trkpt lat="45.85238" lon="4.82722">
        <ele>227</ele>
        <time>2012-05-13T08:04:03Z</time>
      </trkpt>
      <trkpt lat="45.85237" lon="4.82717">
        <ele>227</ele>
        <time>2012-05-13T08:04:05Z</time>
      </trkpt>
      <trkpt lat="45.8524" lon="4.82706">
        <ele>229</ele>
        <time>2012-05-13T08:04:12Z</time>
      </trkpt>
      <trkpt lat="45.85241" lon="4.82701">
        <ele>230</ele>
        <time>2012-05-13T08:04:15Z</time>
      </trkpt>
      <trkpt lat="45.85242" lon="4.82696">
        <ele>231</ele>
        <time>2012-05-13T08:04:19Z</time>
      </trkpt>
      <trkpt lat="45.85243" lon="4.82681">
        <ele>234</ele>
        <time>2012-05-13T08:04:26Z</time>
      </trkpt>
      <trkpt lat="45.85242" lon="4.82679">
        <ele>234</ele>
        <time>2012-05-13T08:04:27Z</time>
      </trkpt>
      <trkpt lat="45.85243" lon="4.82674">
        <ele>235</ele>
        <time>2012-05-13T08:04:30Z</time>
      </trkpt>
      <trkpt lat="45.85244" lon="4.82671">
        <ele>236</ele>
        <time>2012-05-13T08:04:32Z</time>
      </trkpt>
      <trkpt lat="45.85244" lon="4.82669">
        <ele>236</ele>
        <time>2012-05-13T08:04:33Z</time>
      </trkpt>
      <trkpt lat="45.85247" lon="4.82663">
        <ele>239</ele>
        <time>2012-05-13T08:04:37Z</time>
      </trkpt>
      <trkpt lat="45.85247" lon="4.82662">
        <ele>239</ele>
        <time>2012-05-13T08:04:38Z</time>
      </trkpt>
      <trkpt lat="45.85247" lon="4.8266">
        <ele>239</ele>
        <time>2012-05-13T08:04:40Z</time>
      </trkpt>
      <trkpt lat="45.85248" lon="4.82657">
        <ele>239</ele>
        <time>2012-05-13T08:04:42Z</time>
      </trkpt>
      <trkpt lat="45.8525" lon="4.82653">
        <ele>245</ele>
        <time>2012-05-13T08:04:46Z</time>
      </trkpt>
      <trkpt lat="45.85251" lon="4.82646">
        <ele>248</ele>
        <time>2012-05-13T08:04:52Z</time>
      </trkpt>
      <trkpt lat="45.85252" lon="4.82644">
        <ele>248</ele>
        <time>2012-05-13T08:04:54Z</time>
      </trkpt>
      <trkpt lat="45.85253" lon="4.82636">
        <ele>250</ele>
        <time>2012-05-13T08:05:00Z</time>
      </trkpt>
      <trkpt lat="45.85254" lon="4.82626">
        <ele>251</ele>
        <time>2012-05-13T08:05:06Z</time>
      </trkpt>
      <trkpt lat="45.85256" lon="4.8262">
        <ele>251</ele>
        <time>2012-05-13T08:05:11Z</time>
      </trkpt>
      <trkpt lat="45.85256" lon="4.82616">
        <ele>251</ele>
        <time>2012-05-13T08:05:14Z</time>
      </trkpt>
      <trkpt lat="45.85257" lon="4.82613">
        <ele>251</ele>
        <time>2012-05-13T08:05:16Z</time>
      </trkpt>
      <trkpt lat="45.85259" lon="4.82606">
        <ele>251</ele>
        <time>2012-05-13T08:05:20Z</time>
      </trkpt>
      <trkpt lat="45.85262" lon="4.82597">
        <ele>250</ele>
        <time>2012-05-13T08:05:26Z</time>
      </trkpt>
      <trkpt lat="45.85263" lon="4.82595">
        <ele>250</ele>
        <time>2012-05-13T08:05:27Z</time>
      </trkpt>
      <trkpt lat="45.85265" lon="4.82588">
        <ele>250</ele>
        <time>2012-05-13T08:05:32Z</time>
      </trkpt>
      <trkpt lat="45.85267" lon="4.82575">
        <ele>254</ele>
        <time>2012-05-13T08:05:39Z</time>
      </trkpt>
      <trkpt lat="45.85269" lon="4.82569">
        <ele>255</ele>
        <time>2012-05-13T08:05:42Z</time>
      </trkpt>
      <trkpt lat="45.85269" lon="4.82565">
        <ele>256</ele>
        <time>2012-05-13T08:05:44Z</time>
      </trkpt>
      <trkpt lat="45.85268" lon="4.82551">
        <ele>258</ele>
        <time>2012-05-13T08:05:50Z</time>
      </trkpt>
      <trkpt lat="45.85267" lon="4.82543">
        <ele>259</ele>
        <time>2012-05-13T08:05:56Z</time>
      </trkpt>
      <trkpt lat="45.85264" lon="4.8253">
        <ele>259</ele>
        <time>2012-05-13T08:06:02Z</time>
      </trkpt>
      <trkpt lat="45.85263" lon="4.82522">
        <ele>258</ele>
        <time>2012-05-13T08:06:07Z</time>
      </trkpt>
      <trkpt lat="45.85263" lon="4.82517">
        <ele>258</ele>
        <time>2012-05-13T08:06:10Z</time>
      </trkpt>
      <trkpt lat="45.85261" lon="4.82508">
        <ele>256</ele>
        <time>2012-05-13T08:06:16Z</time>
      </trkpt>
      <trkpt lat="45.8526" lon="4.82497">
        <ele>258</ele>
        <time>2012-05-13T08:06:23Z</time>
      </trkpt>
      <trkpt lat="45.85258" lon="4.82491">
        <ele>259</ele>
        <time>2012-05-13T08:06:26Z</time>
      </trkpt>
      <trkpt lat="45.85258" lon="4.8249">
        <ele>260</ele>
        <time>2012-05-13T08:06:27Z</time>
      </trkpt>
      <trkpt lat="45.85256" lon="4.82483">
        <ele>262</ele>
        <time>2012-05-13T08:06:30Z</time>
      </trkpt>
      <trkpt lat="45.85251" lon="4.82472">
        <ele>264</ele>
        <time>2012-05-13T08:06:37Z</time>
      </trkpt>
      <trkpt lat="45.85248" lon="4.82466">
        <ele>260</ele>
        <time>2012-05-13T08:06:41Z</time>
      </trkpt>
      <trkpt lat="45.85248" lon="4.82463">
        <ele>261</ele>
        <time>2012-05-13T08:06:44Z</time>
      </trkpt>
      <trkpt lat="45.85246" lon="4.82454">
        <ele>262</ele>
        <time>2012-05-13T08:06:52Z</time>
      </trkpt>
      <trkpt lat="45.85245" lon="4.82444">
        <ele>263</ele>
        <time>2012-05-13T08:06:59Z</time>
      </trkpt>
      <trkpt lat="45.85245" lon="4.82443">
        <ele>263</ele>
        <time>2012-05-13T08:07:00Z</time>
      </trkpt>
      <trkpt lat="45.85245" lon="4.82441">
        <ele>263</ele>
        <time>2012-05-13T08:07:01Z</time>
      </trkpt>
      <trkpt lat="45.85247" lon="4.82435">
        <ele>264</ele>
        <time>2012-05-13T08:07:08Z</time>
      </trkpt>
      <trkpt lat="45.8525" lon="4.82428">
        <ele>266</ele>
        <time>2012-05-13T08:07:14Z</time>
      </trkpt>
      <trkpt lat="45.85251" lon="4.82425">
        <ele>265</ele>
        <time>2012-05-13T08:07:18Z</time>
      </trkpt>
      <trkpt lat="45.85256" lon="4.82421">
        <ele>265</ele>
        <time>2012-05-13T08:07:22Z</time>
      </trkpt>
      <trkpt lat="45.85257" lon="4.8242">
        <ele>265</ele>
        <time>2012-05-13T08:07:23Z</time>
      </trkpt>
      <trkpt lat="45.85259" lon="4.82418">
        <ele>266</ele>
        <time>2012-05-13T08:07:25Z</time>
      </trkpt>
      <trkpt lat="45.85264" lon="4.82412">
        <ele>272</ele>
        <time>2012-05-13T08:07:31Z</time>
      </trkpt>
      <trkpt lat="45.85267" lon="4.82407">
        <ele>273</ele>
        <time>2012-05-13T08:07:34Z</time>
      </trkpt>
      <trkpt lat="45.85269" lon="4.82404">
        <ele>275</ele>
        <time>2012-05-13T08:07:37Z</time>
      </trkpt>
      <trkpt lat="45.8527" lon="4.82403">
        <ele>275</ele>
        <time>2012-05-13T08:07:38Z</time>
      </trkpt>
      <trkpt lat="45.85271" lon="4.82402">
        <ele>275</ele>
        <time>2012-05-13T08:07:39Z</time>
      </trkpt>
      <trkpt lat="45.85275" lon="4.82396">
        <ele>277</ele>
        <time>2012-05-13T08:07:44Z</time>
      </trkpt>
      <trkpt lat="45.85276" lon="4.82394">
        <ele>278</ele>
        <time>2012-05-13T08:07:46Z</time>
      </trkpt>
      <trkpt lat="45.85277" lon="4.82392">
        <ele>278</ele>
        <time>2012-05-13T08:07:48Z</time>
      </trkpt>
      <trkpt lat="45.8528" lon="4.82384">
        <ele>279</ele>
        <time>2012-05-13T08:07:54Z</time>
      </trkpt>
      <trkpt lat="45.8528" lon="4.82382">
        <ele>279</ele>
        <time>2012-05-13T08:07:55Z</time>
      </trkpt>
      <trkpt lat="45.85282" lon="4.82372">
        <ele>281</ele>
        <time>2012-05-13T08:08:01Z</time>
      </trkpt>
      <trkpt lat="45.85283" lon="4.82371">
        <ele>281</ele>
        <time>2012-05-13T08:08:02Z</time>
      </trkpt>
      <trkpt lat="45.85283" lon="4.82369">
        <ele>281</ele>
        <time>2012-05-13T08:08:03Z</time>
      </trkpt>
      <trkpt lat="45.85287" lon="4.82364">
        <ele>282</ele>
        <time>2012-05-13T08:08:07Z</time>
      </trkpt>
      <trkpt lat="45.85289" lon="4.8236">
        <ele>282</ele>
        <time>2012-05-13T08:08:10Z</time>
      </trkpt>
      <trkpt lat="45.85293" lon="4.82355">
        <ele>283</ele>
        <time>2012-05-13T08:08:14Z</time>
      </trkpt>
      <trkpt lat="45.85295" lon="4.82353">
        <ele>283</ele>
        <time>2012-05-13T08:08:16Z</time>
      </trkpt>
      <trkpt lat="45.85298" lon="4.8235">
        <ele>284</ele>
        <time>2012-05-13T08:08:19Z</time>
      </trkpt>
      <trkpt lat="45.85304" lon="4.82344">
        <ele>285</ele>
        <time>2012-05-13T08:08:25Z</time>
      </trkpt>
      <trkpt lat="45.85304" lon="4.82338">
        <ele>285</ele>
        <time>2012-05-13T08:08:28Z</time>
      </trkpt>
      <trkpt lat="45.85307" lon="4.82335">
        <ele>286</ele>
        <time>2012-05-13T08:08:34Z</time>
      </trkpt>
      <trkpt lat="45.85313" lon="4.8233">
        <ele>294</ele>
        <time>2012-05-13T08:08:40Z</time>
      </trkpt>
      <trkpt lat="45.85318" lon="4.82329">
        <ele>294</ele>
        <time>2012-05-13T08:08:44Z</time>
      </trkpt>
      <trkpt lat="45.8532" lon="4.82328">
        <ele>294</ele>
        <time>2012-05-13T08:08:46Z</time>
      </trkpt>
      <trkpt lat="45.85322" lon="4.82327">
        <ele>294</ele>
        <time>2012-05-13T08:08:48Z</time>
      </trkpt>
      <trkpt lat="45.85327" lon="4.82324">
        <ele>294</ele>
        <time>2012-05-13T08:08:53Z</time>
      </trkpt>
      <trkpt lat="45.85332" lon="4.82318">
        <ele>295</ele>
        <time>2012-05-13T08:09:00Z</time>
      </trkpt>
      <trkpt lat="45.85333" lon="4.82318">
        <ele>295</ele>
        <time>2012-05-13T08:09:01Z</time>
      </trkpt>
      <trkpt lat="45.85336" lon="4.82315">
        <ele>307</ele>
        <time>2012-05-13T08:09:04Z</time>
      </trkpt>
      <trkpt lat="45.85337" lon="4.82312">
        <ele>308</ele>
        <time>2012-05-13T08:09:06Z</time>
      </trkpt>
      <trkpt lat="45.85338" lon="4.8231">
        <ele>309</ele>
        <time>2012-05-13T08:09:08Z</time>
      </trkpt>
      <trkpt lat="45.8534" lon="4.82302">
        <ele>311</ele>
        <time>2012-05-13T08:09:14Z</time>
      </trkpt>
      <trkpt lat="45.85341" lon="4.823">
        <ele>311</ele>
        <time>2012-05-13T08:09:16Z</time>
      </trkpt>
      <trkpt lat="45.8534" lon="4.82292">
        <ele>312</ele>
        <time>2012-05-13T08:09:20Z</time>
      </trkpt>
      <trkpt lat="45.8534" lon="4.8229">
        <ele>312</ele>
        <time>2012-05-13T08:09:22Z</time>
      </trkpt>
      <trkpt lat="45.85341" lon="4.82281">
        <ele>312</ele>
        <time>2012-05-13T08:09:26Z</time>
      </trkpt>
      <trkpt lat="45.85343" lon="4.82273">
        <ele>312</ele>
        <time>2012-05-13T08:09:32Z</time>
      </trkpt>
      <trkpt lat="45.85345" lon="4.82269">
        <ele>312</ele>
        <time>2012-05-13T08:09:37Z</time>
      </trkpt>
      <trkpt lat="45.85345" lon="4.82266">
        <ele>311</ele>
        <time>2012-05-13T08:09:40Z</time>
      </trkpt>
      <trkpt lat="45.85345" lon="4.82262">
        <ele>310</ele>
        <time>2012-05-13T08:09:42Z</time>
      </trkpt>
      <trkpt lat="45.85346" lon="4.82261">
        <ele>310</ele>
        <time>2012-05-13T08:09:44Z</time>
      </trkpt>
      <trkpt lat="45.85346" lon="4.8226">
        <ele>310</ele>
        <time>2012-05-13T08:09:46Z</time>
      </trkpt>
      <trkpt lat="45.85347" lon="4.82255">
        <ele>310</ele>
        <time>2012-05-13T08:09:50Z</time>
      </trkpt>
      <trkpt lat="45.8535" lon="4.82247">
        <ele>313</ele>
        <time>2012-05-13T08:09:58Z</time>
      </trkpt>
      <trkpt lat="45.85351" lon="4.82245">
        <ele>314</ele>
        <time>2012-05-13T08:10:00Z</time>
      </trkpt>
      <trkpt lat="45.85352" lon="4.82241">
        <ele>315</ele>
        <time>2012-05-13T08:10:04Z</time>
      </trkpt>
      <trkpt lat="45.85353" lon="4.82239">
        <ele>316</ele>
        <time>2012-05-13T08:10:05Z</time>
      </trkpt>
      <trkpt lat="45.85357" lon="4.82233">
        <ele>318</ele>
        <time>2012-05-13T08:10:10Z</time>
      </trkpt>
      <trkpt lat="45.85362" lon="4.82224">
        <ele>320</ele>
        <time>2012-05-13T08:10:16Z</time>
      </trkpt>
      <trkpt lat="45.85365" lon="4.82217">
        <ele>322</ele>
        <time>2012-05-13T08:10:20Z</time>
      </trkpt>
      <trkpt lat="45.85365" lon="4.82215">
        <ele>322</ele>
        <time>2012-05-13T08:10:22Z</time>
      </trkpt>
      <trkpt lat="45.85371" lon="4.82203">
        <ele>323</ele>
        <time>2012-05-13T08:10:30Z</time>
      </trkpt>
      <trkpt lat="45.85372" lon="4.82199">
        <ele>324</ele>
        <time>2012-05-13T08:10:32Z</time>
      </trkpt>
      <trkpt lat="45.85374" lon="4.82194">
        <ele>324</ele>
        <time>2012-05-13T08:10:36Z</time>
      </trkpt>
      <trkpt lat="45.85374" lon="4.82192">
        <ele>324</ele>
        <time>2012-05-13T08:10:37Z</time>
      </trkpt>
      <trkpt lat="45.85374" lon="4.82191">
        <ele>324</ele>
        <time>2012-05-13T08:10:38Z</time>
      </trkpt>
      <trkpt lat="45.85375" lon="4.82187">
        <ele>325</ele>
        <time>2012-05-13T08:10:40Z</time>
      </trkpt>
      <trkpt lat="45.85376" lon="4.82184">
        <ele>325</ele>
        <time>2012-05-13T08:10:43Z</time>
      </trkpt>
      <trkpt lat="45.85377" lon="4.82182">
        <ele>325</ele>
        <time>2012-05-13T08:10:44Z</time>
      </trkpt>
      <trkpt lat="45.85379" lon="4.82176">
        <ele>326</ele>
        <time>2012-05-13T08:10:49Z</time>
      </trkpt>
      <trkpt lat="45.85383" lon="4.82171">
        <ele>327</ele>
        <time>2012-05-13T08:10:53Z</time>
      </trkpt>
      <trkpt lat="45.85384" lon="4.82167">
        <ele>327</ele>
        <time>2012-05-13T08:10:56Z</time>
      </trkpt>
      <trkpt lat="45.85385" lon="4.82163">
        <ele>333</ele>
        <time>2012-05-13T08:10:59Z</time>
      </trkpt>
      <trkpt lat="45.85386" lon="4.82161">
        <ele>333</ele>
        <time>2012-05-13T08:11:01Z</time>
      </trkpt>
      <trkpt lat="45.85387" lon="4.82155">
        <ele>334</ele>
        <time>2012-05-13T08:11:05Z</time>
      </trkpt>
      <trkpt lat="45.85391" lon="4.82148">
        <ele>334</ele>
        <time>2012-05-13T08:11:11Z</time>
      </trkpt>
      <trkpt lat="45.85392" lon="4.82146">
        <ele>334</ele>
        <time>2012-05-13T08:11:12Z</time>
      </trkpt>
      <trkpt lat="45.85394" lon="4.82137">
        <ele>335</ele>
        <time>2012-05-13T08:11:17Z</time>
      </trkpt>
      <trkpt lat="45.85394" lon="4.82131">
        <ele>335</ele>
        <time>2012-05-13T08:11:22Z</time>
      </trkpt>
      <trkpt lat="45.85394" lon="4.82128">
        <ele>335</ele>
        <time>2012-05-13T08:11:23Z</time>
      </trkpt>
      <trkpt lat="45.85397" lon="4.8212">
        <ele>336</ele>
        <time>2012-05-13T08:11:29Z</time>
      </trkpt>
      <trkpt lat="45.85397" lon="4.82119">
        <ele>336</ele>
        <time>2012-05-13T08:11:30Z</time>
      </trkpt>
      <trkpt lat="45.85401" lon="4.82109">
        <ele>337</ele>
        <time>2012-05-13T08:11:36Z</time>
      </trkpt>
      <trkpt lat="45.85401" lon="4.82105">
        <ele>337</ele>
        <time>2012-05-13T08:11:38Z</time>
      </trkpt>
      <trkpt lat="45.85401" lon="4.82103">
        <ele>338</ele>
        <time>2012-05-13T08:11:40Z</time>
      </trkpt>
      <trkpt lat="45.854" lon="4.82096">
        <ele>338</ele>
        <time>2012-05-13T08:11:46Z</time>
      </trkpt>
      <trkpt lat="45.85399" lon="4.82096">
        <ele>338</ele>
        <time>2012-05-13T08:11:47Z</time>
      </trkpt>
      <trkpt lat="45.85399" lon="4.82094">
        <ele>338</ele>
        <time>2012-05-13T08:11:48Z</time>
      </trkpt>
      <trkpt lat="45.85396" lon="4.8209">
        <ele>338</ele>
        <time>2012-05-13T08:11:52Z</time>
      </trkpt>
      <trkpt lat="45.85387" lon="4.82078">
        <ele>347</ele>
        <time>2012-05-13T08:11:56Z</time>
      </trkpt>
      <trkpt lat="45.85386" lon="4.82077">
        <ele>347</ele>
        <time>2012-05-13T08:11:58Z</time>
      </trkpt>
      <trkpt lat="45.85382" lon="4.82075">
        <ele>347</ele>
        <time>2012-05-13T08:12:01Z</time>
      </trkpt>
      <trkpt lat="45.85381" lon="4.82074">
        <ele>347</ele>
        <time>2012-05-13T08:12:02Z</time>
      </trkpt>
      <trkpt lat="45.8538" lon="4.82067">
        <ele>347</ele>
        <time>2012-05-13T08:12:07Z</time>
      </trkpt>
      <trkpt lat="45.8538" lon="4.82067">
        <ele>347</ele>
        <time>2012-05-13T08:12:08Z</time>
      </trkpt>
      <trkpt lat="45.85381" lon="4.82062">
        <ele>348</ele>
        <time>2012-05-13T08:12:13Z</time>
      </trkpt>
      <trkpt lat="45.85381" lon="4.82059">
        <ele>348</ele>
        <time>2012-05-13T08:12:16Z</time>
      </trkpt>
      <trkpt lat="45.85383" lon="4.82056">
        <ele>348</ele>
        <time>2012-05-13T08:12:17Z</time>
      </trkpt>
      <trkpt lat="45.85383" lon="4.82054">
        <ele>348</ele>
        <time>2012-05-13T08:12:18Z</time>
      </trkpt>
      <trkpt lat="45.85385" lon="4.82049">
        <ele>349</ele>
        <time>2012-05-13T08:12:22Z</time>
      </trkpt>
      <trkpt lat="45.85385" lon="4.82048">
        <ele>349</ele>
        <time>2012-05-13T08:12:23Z</time>
      </trkpt>
      <trkpt lat="45.85385" lon="4.82045">
        <ele>349</ele>
        <time>2012-05-13T08:12:26Z</time>
      </trkpt>
      <trkpt lat="45.85385" lon="4.82044">
        <ele>350</ele>
        <time>2012-05-13T08:12:28Z</time>
      </trkpt>
      <trkpt lat="45.85385" lon="4.82043">
        <ele>350</ele>
        <time>2012-05-13T08:12:35Z</time>
      </trkpt>
      <trkpt lat="45.85384" lon="4.82038">
        <ele>350</ele>
        <time>2012-05-13T08:12:40Z</time>
      </trkpt>
      <trkpt lat="45.85385" lon="4.82038">
        <ele>350</ele>
        <time>2012-05-13T08:12:54Z</time>
      </trkpt>
      <trkpt lat="45.85383" lon="4.82036">
        <ele>350</ele>
        <time>2012-05-13T08:13:22Z</time>
      </trkpt>
      <trkpt lat="45.85382" lon="4.82044">
        <ele>350</ele>
        <time>2012-05-13T08:13:37Z</time>
      </trkpt>
      <trkpt lat="45.85381" lon="4.82045">
        <ele>349</ele>
        <time>2012-05-13T08:13:38Z</time>
      </trkpt>
      <trkpt lat="45.85378" lon="4.82044">
        <ele>349</ele>
        <time>2012-05-13T08:13:41Z</time>
      </trkpt>
      <trkpt lat="45.85377" lon="4.82043">
        <ele>350</ele>
        <time>2012-05-13T08:13:49Z</time>
      </trkpt>
      <trkpt lat="45.85376" lon="4.82042">
        <ele>350</ele>
        <time>2012-05-13T08:13:55Z</time>
      </trkpt>
      <trkpt lat="45.8538" lon="4.82039">
        <ele>350</ele>
        <time>2012-05-13T08:14:04Z</time>
      </trkpt>
      <trkpt lat="45.85382" lon="4.82038">
        <ele>350</ele>
        <time>2012-05-13T08:14:16Z</time>
      </trkpt>
      <trkpt lat="45.85385" lon="4.82038">
        <ele>350</ele>
        <time>2012-05-13T08:14:18Z</time>
      </trkpt>
      <trkpt lat="45.85387" lon="4.82038">
        <ele>350</ele>
        <time>2012-05-13T08:14:20Z</time>
      </trkpt>
      <trkpt lat="45.85388" lon="4.82038">
        <ele>350</ele>
        <time>2012-05-13T08:14:22Z</time>
      </trkpt>
      <trkpt lat="45.8539" lon="4.82039">
        <ele>350</ele>
        <time>2012-05-13T08:14:25Z</time>
      </trkpt>
      <trkpt lat="45.85395" lon="4.82037">
        <ele>350</ele>
        <time>2012-05-13T08:14:31Z</time>
      </trkpt>
      <trkpt lat="45.85395" lon="4.82036">
        <ele>350</ele>
        <time>2012-05-13T08:14:32Z</time>
      </trkpt>
      <trkpt lat="45.85399" lon="4.82038">
        <ele>350</ele>
        <time>2012-05-13T08:14:37Z</time>
      </trkpt>
      <trkpt lat="45.854" lon="4.82038">
        <ele>350</ele>
        <time>2012-05-13T08:14:38Z</time>
      </trkpt>
      <trkpt lat="45.85404" lon="4.82042">
        <ele>350</ele>
        <time>2012-05-13T08:14:43Z</time>
      </trkpt>
      <trkpt lat="45.85406" lon="4.82043">
        <ele>350</ele>
        <time>2012-05-13T08:14:46Z</time>
      </trkpt>
      <trkpt lat="45.85408" lon="4.82046">
        <ele>349</ele>
        <time>2012-05-13T08:14:50Z</time>
      </trkpt>
      <trkpt lat="45.85409" lon="4.8205">
        <ele>349</ele>
        <time>2012-05-13T08:14:55Z</time>
      </trkpt>
      <trkpt lat="45.85412" lon="4.82057">
        <ele>348</ele>
        <time>2012-05-13T08:15:02Z</time>
      </trkpt>
      <trkpt lat="45.85413" lon="4.82059">
        <ele>347</ele>
        <time>2012-05-13T08:15:04Z</time>
      </trkpt>
      <trkpt lat="45.85413" lon="4.82062">
        <ele>347</ele>
        <time>2012-05-13T08:15:05Z</time>
      </trkpt>
      <trkpt lat="45.85414" lon="4.82067">
        <ele>346</ele>
        <time>2012-05-13T08:15:07Z</time>
      </trkpt>
      <trkpt lat="45.85417" lon="4.82077">
        <ele>344</ele>
        <time>2012-05-13T08:15:11Z</time>
      </trkpt>
      <trkpt lat="45.85417" lon="4.82083">
        <ele>344</ele>
        <time>2012-05-13T08:15:13Z</time>
      </trkpt>
      <trkpt lat="45.85417" lon="4.8209">
        <ele>347</ele>
        <time>2012-05-13T08:15:16Z</time>
      </trkpt>
      <trkpt lat="45.85421" lon="4.82105">
        <ele>353</ele>
        <time>2012-05-13T08:15:19Z</time>
      </trkpt>
      <trkpt lat="45.85422" lon="4.82107">
        <ele>354</ele>
        <time>2012-05-13T08:15:20Z</time>
      </trkpt>
      <trkpt lat="45.85423" lon="4.82109">
        <ele>354</ele>
        <time>2012-05-13T08:15:22Z</time>
      </trkpt>
      <trkpt lat="45.85425" lon="4.8212">
        <ele>356</ele>
        <time>2012-05-13T08:15:25Z</time>
      </trkpt>
      <trkpt lat="45.85425" lon="4.82123">
        <ele>356</ele>
        <time>2012-05-13T08:15:26Z</time>
      </trkpt>
      <trkpt lat="45.85426" lon="4.82129">
        <ele>355</ele>
        <time>2012-05-13T08:15:29Z</time>
      </trkpt>
      <trkpt lat="45.85426" lon="4.82131">
        <ele>355</ele>
        <time>2012-05-13T08:15:30Z</time>
      </trkpt>
      <trkpt lat="45.85426" lon="4.82135">
        <ele>355</ele>
        <time>2012-05-13T08:15:32Z</time>
      </trkpt>
      <trkpt lat="45.85427" lon="4.82137">
        <ele>355</ele>
        <time>2012-05-13T08:15:34Z</time>
      </trkpt>
      <trkpt lat="45.85428" lon="4.82139">
        <ele>355</ele>
        <time>2012-05-13T08:15:35Z</time>
      </trkpt>
      <trkpt lat="45.85428" lon="4.8214">
        <ele>355</ele>
        <time>2012-05-13T08:15:36Z</time>
      </trkpt>
      <trkpt lat="45.8543" lon="4.82145">
        <ele>354</ele>
        <time>2012-05-13T08:15:40Z</time>
      </trkpt>
      <trkpt lat="45.85431" lon="4.82155">
        <ele>352</ele>
        <time>2012-05-13T08:15:46Z</time>
      </trkpt>
      <trkpt lat="45.85431" lon="4.82157">
        <ele>351</ele>
        <time>2012-05-13T08:15:47Z</time>
      </trkpt>
      <trkpt lat="45.8543" lon="4.8216">
        <ele>350</ele>
        <time>2012-05-13T08:15:48Z</time>
      </trkpt>
      <trkpt lat="45.85429" lon="4.82169">
        <ele>349</ele>
        <time>2012-05-13T08:15:52Z</time>
      </trkpt>
      <trkpt lat="45.85429" lon="4.8217">
        <ele>349</ele>
        <time>2012-05-13T08:15:53Z</time>
      </trkpt>
      <trkpt lat="45.8543" lon="4.82175">
        <ele>350</ele>
        <time>2012-05-13T08:15:55Z</time>
      </trkpt>
      <trkpt lat="45.85432" lon="4.82178">
        <ele>351</ele>
        <time>2012-05-13T08:15:58Z</time>
      </trkpt>
      <trkpt lat="45.85433" lon="4.82181">
        <ele>352</ele>
        <time>2012-05-13T08:16:00Z</time>
      </trkpt>
      <trkpt lat="45.85433" lon="4.82185">
        <ele>353</ele>
        <time>2012-05-13T08:16:04Z</time>
      </trkpt>
      <trkpt lat="45.85433" lon="4.82186">
        <ele>354</ele>
        <time>2012-05-13T08:16:05Z</time>
      </trkpt>
      <trkpt lat="45.85433" lon="4.82188">
        <ele>354</ele>
        <time>2012-05-13T08:16:07Z</time>
      </trkpt>
      <trkpt lat="45.85434" lon="4.82193">
        <ele>355</ele>
        <time>2012-05-13T08:16:10Z</time>
      </trkpt>
      <trkpt lat="45.85433" lon="4.82206">
        <ele>355</ele>
        <time>2012-05-13T08:16:16Z</time>
      </trkpt>
      <trkpt lat="45.85434" lon="4.82211">
        <ele>356</ele>
        <time>2012-05-13T08:16:20Z</time>
      </trkpt>
      <trkpt lat="45.85434" lon="4.82222">
        <ele>355</ele>
        <time>2012-05-13T08:16:25Z</time>
      </trkpt>
      <trkpt lat="45.85433" lon="4.82231">
        <ele>354</ele>
        <time>2012-05-13T08:16:29Z</time>
      </trkpt>
      <trkpt lat="45.85436" lon="4.82236">
        <ele>354</ele>
        <time>2012-05-13T08:16:31Z</time>
      </trkpt>
      <trkpt lat="45.85436" lon="4.82241">
        <ele>353</ele>
        <time>2012-05-13T08:16:34Z</time>
      </trkpt>
      <trkpt lat="45.85439" lon="4.82255">
        <ele>354</ele>
        <time>2012-05-13T08:16:38Z</time>
      </trkpt>
      <trkpt lat="45.8544" lon="4.82263">
        <ele>354</ele>
        <time>2012-05-13T08:16:41Z</time>
      </trkpt>
      <trkpt lat="45.85441" lon="4.82267">
        <ele>355</ele>
        <time>2012-05-13T08:16:43Z</time>
      </trkpt>
      <trkpt lat="45.85441" lon="4.82269">
        <ele>355</ele>
        <time>2012-05-13T08:16:44Z</time>
      </trkpt>
      <trkpt lat="45.85443" lon="4.82274">
        <ele>356</ele>
        <time>2012-05-13T08:16:49Z</time>
      </trkpt>
      <trkpt lat="45.85443" lon="4.82275">
        <ele>356</ele>
        <time>2012-05-13T08:16:50Z</time>
      </trkpt>
      <trkpt lat="45.85449" lon="4.82275">
        <ele>358</ele>
        <time>2012-05-13T08:17:00Z</time>
      </trkpt>
      <trkpt lat="45.85452" lon="4.82275">
        <ele>359</ele>
        <time>2012-05-13T08:17:04Z</time>
      </trkpt>
      <trkpt lat="45.85454" lon="4.82276">
        <ele>359</ele>
        <time>2012-05-13T08:17:07Z</time>
      </trkpt>
      <trkpt lat="45.85456" lon="4.82283">
        <ele>360</ele>
        <time>2012-05-13T08:17:14Z</time>
      </trkpt>
      <trkpt lat="45.85457" lon="4.82288">
        <ele>360</ele>
        <time>2012-05-13T08:17:20Z</time>
      </trkpt>
      <trkpt lat="45.85459" lon="4.8229">
        <ele>360</ele>
        <time>2012-05-13T08:17:25Z</time>
      </trkpt>
      <trkpt lat="45.85462" lon="4.82292">
        <ele>361</ele>
        <time>2012-05-13T08:17:31Z</time>
      </trkpt>
      <trkpt lat="45.85464" lon="4.82293">
        <ele>361</ele>
        <time>2012-05-13T08:17:34Z</time>
      </trkpt>
      <trkpt lat="45.85466" lon="4.82294">
        <ele>362</ele>
        <time>2012-05-13T08:17:36Z</time>
      </trkpt>
      <trkpt lat="45.85472" lon="4.82297">
        <ele>363</ele>
        <time>2012-05-13T08:17:43Z</time>
      </trkpt>
      <trkpt lat="45.85481" lon="4.82296">
        <ele>365</ele>
        <time>2012-05-13T08:17:56Z</time>
      </trkpt>
      <trkpt lat="45.85484" lon="4.82296">
        <ele>365</ele>
        <time>2012-05-13T08:17:59Z</time>
      </trkpt>
      <trkpt lat="45.85485" lon="4.82296">
        <ele>365</ele>
        <time>2012-05-13T08:18:00Z</time>
      </trkpt>
      <trkpt lat="45.8549" lon="4.82296">
        <ele>366</ele>
        <time>2012-05-13T08:18:06Z</time>
      </trkpt>
      <trkpt lat="45.85493" lon="4.82297">
        <ele>366</ele>
        <time>2012-05-13T08:18:11Z</time>
      </trkpt>
      <trkpt lat="45.85495" lon="4.82297">
        <ele>367</ele>
        <time>2012-05-13T08:18:13Z</time>
      </trkpt>
      <trkpt lat="45.85502" lon="4.82299">
        <ele>378</ele>
        <time>2012-05-13T08:18:18Z</time>
      </trkpt>
      <trkpt lat="45.85503" lon="4.82299">
        <ele>378</ele>
        <time>2012-05-13T08:18:19Z</time>
      </trkpt>
      <trkpt lat="45.85511" lon="4.82299">
        <ele>378</ele>
        <time>2012-05-13T08:18:26Z</time>
      </trkpt>
      <trkpt lat="45.85511" lon="4.82299">
        <ele>378</ele>
        <time>2012-05-13T08:18:35Z</time>
      </trkpt>
      <trkpt lat="45.85512" lon="4.82298">
        <ele>378</ele>
        <time>2012-05-13T08:19:28Z</time>
      </trkpt>
      <trkpt lat="45.85514" lon="4.82306">
        <ele>378</ele>
        <time>2012-05-13T08:19:59Z</time>
      </trkpt>
      <trkpt lat="45.85514" lon="4.82308">
        <ele>378</ele>
        <time>2012-05-13T08:20:00Z</time>
      </trkpt>
      <trkpt lat="45.85512" lon="4.82312">
        <ele>377</ele>
        <time>2012-05-13T08:20:02Z</time>
      </trkpt>
      <trkpt lat="45.8551" lon="4.82318">
        <ele>377</ele>
        <time>2012-05-13T08:20:04Z</time>
      </trkpt>
      <trkpt lat="45.8551" lon="4.82323">
        <ele>377</ele>
        <time>2012-05-13T08:20:06Z</time>
      </trkpt>
      <trkpt lat="45.8551" lon="4.82327">
        <ele>376</ele>
        <time>2012-05-13T08:20:08Z</time>
      </trkpt>
      <trkpt lat="45.85509" lon="4.82331">
        <ele>376</ele>
        <time>2012-05-13T08:20:10Z</time>
      </trkpt>
      <trkpt lat="45.85508" lon="4.82336">
        <ele>373</ele>
        <time>2012-05-13T08:20:12Z</time>
      </trkpt>
      <trkpt lat="45.85503" lon="4.82353">
        <ele>371</ele>
        <time>2012-05-13T08:20:18Z</time>
      </trkpt>
      <trkpt lat="45.85502" lon="4.82355">
        <ele>371</ele>
        <time>2012-05-13T08:20:19Z</time>
      </trkpt>
      <trkpt lat="45.85499" lon="4.82371">
        <ele>361</ele>
        <time>2012-05-13T08:20:25Z</time>
      </trkpt>
      <trkpt lat="45.85496" lon="4.82381">
        <ele>361</ele>
        <time>2012-05-13T08:20:29Z</time>
      </trkpt>
      <trkpt lat="45.85495" lon="4.82385">
        <ele>360</ele>
        <time>2012-05-13T08:20:31Z</time>
      </trkpt>
      <trkpt lat="45.85491" lon="4.82401">
        <ele>361</ele>
        <time>2012-05-13T08:20:36Z</time>
      </trkpt>
      <trkpt lat="45.8549" lon="4.82405">
        <ele>361</ele>
        <time>2012-05-13T08:20:37Z</time>
      </trkpt>
      <trkpt lat="45.85486" lon="4.8242">
        <ele>358</ele>
        <time>2012-05-13T08:20:42Z</time>
      </trkpt>
      <trkpt lat="45.85484" lon="4.8243">
        <ele>356</ele>
        <time>2012-05-13T08:20:46Z</time>
      </trkpt>
      <trkpt lat="45.85481" lon="4.82442">
        <ele>354</ele>
        <time>2012-05-13T08:20:49Z</time>
      </trkpt>
      <trkpt lat="45.85476" lon="4.82454">
        <ele>352</ele>
        <time>2012-05-13T08:20:53Z</time>
      </trkpt>
      <trkpt lat="45.85473" lon="4.82474">
        <ele>351</ele>
        <time>2012-05-13T08:20:58Z</time>
      </trkpt>
      <trkpt lat="45.85471" lon="4.8248">
        <ele>351</ele>
        <time>2012-05-13T08:21:00Z</time>
      </trkpt>
      <trkpt lat="45.85469" lon="4.82495">
        <ele>350</ele>
        <time>2012-05-13T08:21:04Z</time>
      </trkpt>
      <trkpt lat="45.85466" lon="4.82505">
        <ele>345</ele>
        <time>2012-05-13T08:21:07Z</time>
      </trkpt>
      <trkpt lat="45.85465" lon="4.82509">
        <ele>344</ele>
        <time>2012-05-13T08:21:08Z</time>
      </trkpt>
      <trkpt lat="45.85461" lon="4.82527">
        <ele>343</ele>
        <time>2012-05-13T08:21:13Z</time>
      </trkpt>
      <trkpt lat="45.85461" lon="4.82531">
        <ele>342</ele>
        <time>2012-05-13T08:21:14Z</time>
      </trkpt>
      <trkpt lat="45.85458" lon="4.82541">
        <ele>342</ele>
        <time>2012-05-13T08:21:17Z</time>
      </trkpt>
      <trkpt lat="45.85455" lon="4.82556">
        <ele>340</ele>
        <time>2012-05-13T08:21:22Z</time>
      </trkpt>
      <trkpt lat="45.85453" lon="4.82562">
        <ele>340</ele>
        <time>2012-05-13T08:21:24Z</time>
      </trkpt>
      <trkpt lat="45.85452" lon="4.82569">
        <ele>339</ele>
        <time>2012-05-13T08:21:26Z</time>
      </trkpt>
      <trkpt lat="45.8545" lon="4.82579">
        <ele>339</ele>
        <time>2012-05-13T08:21:29Z</time>
      </trkpt>
      <trkpt lat="45.8545" lon="4.82582">
        <ele>338</ele>
        <time>2012-05-13T08:21:30Z</time>
      </trkpt>
      <trkpt lat="45.8545" lon="4.82586">
        <ele>332</ele>
        <time>2012-05-13T08:21:31Z</time>
      </trkpt>
      <trkpt lat="45.85447" lon="4.82593">
        <ele>331</ele>
        <time>2012-05-13T08:21:35Z</time>
      </trkpt>
      <trkpt lat="45.8545" lon="4.82592">
        <ele>331</ele>
        <time>2012-05-13T08:22:14Z</time>
      </trkpt>
      <trkpt lat="45.8545" lon="4.82588">
        <ele>332</ele>
        <time>2012-05-13T08:22:16Z</time>
      </trkpt>
      <trkpt lat="45.85451" lon="4.82584">
        <ele>332</ele>
        <time>2012-05-13T08:22:18Z</time>
      </trkpt>
      <trkpt lat="45.85455" lon="4.8257">
        <ele>340</ele>
        <time>2012-05-13T08:22:24Z</time>
      </trkpt>
      <trkpt lat="45.85458" lon="4.82561">
        <ele>341</ele>
        <time>2012-05-13T08:22:28Z</time>
      </trkpt>
      <trkpt lat="45.85459" lon="4.82558">
        <ele>341</ele>
        <time>2012-05-13T08:22:29Z</time>
      </trkpt>
      <trkpt lat="45.85462" lon="4.82549">
        <ele>341</ele>
        <time>2012-05-13T08:22:34Z</time>
      </trkpt>
      <trkpt lat="45.85463" lon="4.82546">
        <ele>342</ele>
        <time>2012-05-13T08:22:36Z</time>
      </trkpt>
      <trkpt lat="45.85463" lon="4.82544">
        <ele>342</ele>
        <time>2012-05-13T08:22:37Z</time>
      </trkpt>
      <trkpt lat="45.85464" lon="4.82538">
        <ele>342</ele>
        <time>2012-05-13T08:22:40Z</time>
      </trkpt>
      <trkpt lat="45.85465" lon="4.82535">
        <ele>343</ele>
        <time>2012-05-13T08:22:42Z</time>
      </trkpt>
      <trkpt lat="45.85467" lon="4.82526">
        <ele>344</ele>
        <time>2012-05-13T08:22:48Z</time>
      </trkpt>
      <trkpt lat="45.8547" lon="4.82515">
        <ele>345</ele>
        <time>2012-05-13T08:22:54Z</time>
      </trkpt>
      <trkpt lat="45.8547" lon="4.82513">
        <ele>345</ele>
        <time>2012-05-13T08:22:55Z</time>
      </trkpt>
      <trkpt lat="45.85472" lon="4.82504">
        <ele>346</ele>
        <time>2012-05-13T08:23:00Z</time>
      </trkpt>
      <trkpt lat="45.85474" lon="4.82494">
        <ele>351</ele>
        <time>2012-05-13T08:23:05Z</time>
      </trkpt>
      <trkpt lat="45.85476" lon="4.82488">
        <ele>351</ele>
        <time>2012-05-13T08:23:08Z</time>
      </trkpt>
      <trkpt lat="45.85477" lon="4.82481">
        <ele>351</ele>
        <time>2012-05-13T08:23:11Z</time>
      </trkpt>
      <trkpt lat="45.85481" lon="4.82469">
        <ele>352</ele>
        <time>2012-05-13T08:23:17Z</time>
      </trkpt>
      <trkpt lat="45.85481" lon="4.82467">
        <ele>352</ele>
        <time>2012-05-13T08:23:18Z</time>
      </trkpt>
      <trkpt lat="45.85482" lon="4.82462">
        <ele>352</ele>
        <time>2012-05-13T08:23:20Z</time>
      </trkpt>
      <trkpt lat="45.85485" lon="4.82453">
        <ele>353</ele>
        <time>2012-05-13T08:23:24Z</time>
      </trkpt>
      <trkpt lat="45.85486" lon="4.82451">
        <ele>353</ele>
        <time>2012-05-13T08:23:25Z</time>
      </trkpt>
      <trkpt lat="45.85488" lon="4.82444">
        <ele>354</ele>
        <time>2012-05-13T08:23:29Z</time>
      </trkpt>
      <trkpt lat="45.85489" lon="4.82439">
        <ele>355</ele>
        <time>2012-05-13T08:23:32Z</time>
      </trkpt>
      <trkpt lat="45.8549" lon="4.82437">
        <ele>356</ele>
        <time>2012-05-13T08:23:34Z</time>
      </trkpt>
      <trkpt lat="45.85491" lon="4.82431">
        <ele>357</ele>
        <time>2012-05-13T08:23:36Z</time>
      </trkpt>
      <trkpt lat="45.85491" lon="4.82427">
        <ele>358</ele>
        <time>2012-05-13T08:23:38Z</time>
      </trkpt>
      <trkpt lat="45.85494" lon="4.82414">
        <ele>363</ele>
        <time>2012-05-13T08:23:46Z</time>
      </trkpt>
      <trkpt lat="45.85494" lon="4.82412">
        <ele>363</ele>
        <time>2012-05-13T08:23:48Z</time>
      </trkpt>
      <trkpt lat="45.85497" lon="4.82405">
        <ele>362</ele>
        <time>2012-05-13T08:23:52Z</time>
      </trkpt>
      <trkpt lat="45.85499" lon="4.82395">
        <ele>361</ele>
        <time>2012-05-13T08:23:58Z</time>
      </trkpt>
      <trkpt lat="45.85499" lon="4.82393">
        <ele>361</ele>
        <time>2012-05-13T08:23:59Z</time>
      </trkpt>
      <trkpt lat="45.85499" lon="4.82389">
        <ele>361</ele>
        <time>2012-05-13T08:24:01Z</time>
      </trkpt>
      <trkpt lat="45.85499" lon="4.82385">
        <ele>361</ele>
        <time>2012-05-13T08:24:04Z</time>
      </trkpt>
      <trkpt lat="45.855" lon="4.82381">
        <ele>368</ele>
        <time>2012-05-13T08:24:05Z</time>
      </trkpt>
      <trkpt lat="45.85503" lon="4.82373">
        <ele>369</ele>
        <time>2012-05-13T08:24:10Z</time>
      </trkpt>
      <trkpt lat="45.85505" lon="4.82368">
        <ele>370</ele>
        <time>2012-05-13T08:24:11Z</time>
      </trkpt>
      <trkpt lat="45.85507" lon="4.8236">
        <ele>370</ele>
        <time>2012-05-13T08:24:14Z</time>
      </trkpt>
      <trkpt lat="45.85509" lon="4.82353">
        <ele>371</ele>
        <time>2012-05-13T08:24:17Z</time>
      </trkpt>
      <trkpt lat="45.85512" lon="4.8234">
        <ele>372</ele>
        <time>2012-05-13T08:24:22Z</time>
      </trkpt>
      <trkpt lat="45.85513" lon="4.82335">
        <ele>372</ele>
        <time>2012-05-13T08:24:24Z</time>
      </trkpt>
      <trkpt lat="45.85515" lon="4.82328">
        <ele>377</ele>
        <time>2012-05-13T08:24:28Z</time>
      </trkpt>
      <trkpt lat="45.85518" lon="4.82315">
        <ele>377</ele>
        <time>2012-05-13T08:24:32Z</time>
      </trkpt>
      <trkpt lat="45.85519" lon="4.8231">
        <ele>378</ele>
        <time>2012-05-13T08:24:34Z</time>
      </trkpt>
      <trkpt lat="45.8552" lon="4.82302">
        <ele>378</ele>
        <time>2012-05-13T08:24:37Z</time>
      </trkpt>
      <trkpt lat="45.85523" lon="4.8229">
        <ele>379</ele>
        <time>2012-05-13T08:24:42Z</time>
      </trkpt>
      <trkpt lat="45.85525" lon="4.82283">
        <ele>379</ele>
        <time>2012-05-13T08:24:46Z</time>
      </trkpt>
      <trkpt lat="45.85527" lon="4.82281">
        <ele>380</ele>
        <time>2012-05-13T08:24:48Z</time>
      </trkpt>
      <trkpt lat="45.85527" lon="4.82279">
        <ele>380</ele>
        <time>2012-05-13T08:24:49Z</time>
      </trkpt>
      <trkpt lat="45.85528" lon="4.82273">
        <ele>380</ele>
        <time>2012-05-13T08:24:53Z</time>
      </trkpt>
      <trkpt lat="45.85532" lon="4.82266">
        <ele>380</ele>
        <time>2012-05-13T08:24:58Z</time>
      </trkpt>
      <trkpt lat="45.85532" lon="4.82261">
        <ele>381</ele>
        <time>2012-05-13T08:25:00Z</time>
      </trkpt>
      <trkpt lat="45.85533" lon="4.82257">
        <ele>381</ele>
        <time>2012-05-13T08:25:02Z</time>
      </trkpt>
      <trkpt lat="45.85534" lon="4.82248">
        <ele>386</ele>
        <time>2012-05-13T08:25:07Z</time>
      </trkpt>
      <trkpt lat="45.85539" lon="4.82232">
        <ele>387</ele>
        <time>2012-05-13T08:25:16Z</time>
      </trkpt>
      <trkpt lat="45.85544" lon="4.82219">
        <ele>387</ele>
        <time>2012-05-13T08:25:20Z</time>
      </trkpt>
      <trkpt lat="45.85545" lon="4.82207">
        <ele>388</ele>
        <time>2012-05-13T08:25:25Z</time>
      </trkpt>
      <trkpt lat="45.85545" lon="4.82204">
        <ele>388</ele>
        <time>2012-05-13T08:25:26Z</time>
      </trkpt>
      <trkpt lat="45.85546" lon="4.822">
        <ele>388</ele>
        <time>2012-05-13T08:25:28Z</time>
      </trkpt>
      <trkpt lat="45.85548" lon="4.82196">
        <ele>388</ele>
        <time>2012-05-13T08:25:30Z</time>
      </trkpt>
      <trkpt lat="45.85549" lon="4.82193">
        <ele>389</ele>
        <time>2012-05-13T08:25:32Z</time>
      </trkpt>
      <trkpt lat="45.85555" lon="4.82182">
        <ele>390</ele>
        <time>2012-05-13T08:25:37Z</time>
      </trkpt>
      <trkpt lat="45.8556" lon="4.8217">
        <ele>392</ele>
        <time>2012-05-13T08:25:43Z</time>
      </trkpt>
      <trkpt lat="45.85564" lon="4.8216">
        <ele>396</ele>
        <time>2012-05-13T08:25:48Z</time>
      </trkpt>
      <trkpt lat="45.85565" lon="4.82154">
        <ele>396</ele>
        <time>2012-05-13T08:25:53Z</time>
      </trkpt>
      <trkpt lat="45.85566" lon="4.82152">
        <ele>396</ele>
        <time>2012-05-13T08:25:55Z</time>
      </trkpt>
      <trkpt lat="45.85569" lon="4.82147">
        <ele>396</ele>
        <time>2012-05-13T08:25:58Z</time>
      </trkpt>
      <trkpt lat="45.85579" lon="4.82144">
        <ele>397</ele>
        <time>2012-05-13T08:26:04Z</time>
      </trkpt>
      <trkpt lat="45.85586" lon="4.82139">
        <ele>401</ele>
        <time>2012-05-13T08:26:07Z</time>
      </trkpt>
      <trkpt lat="45.85588" lon="4.82138">
        <ele>401</ele>
        <time>2012-05-13T08:26:08Z</time>
      </trkpt>
      <trkpt lat="45.85597" lon="4.82135">
        <ele>401</ele>
        <time>2012-05-13T08:26:12Z</time>
      </trkpt>
      <trkpt lat="45.856" lon="4.82134">
        <ele>401</ele>
        <time>2012-05-13T08:26:13Z</time>
      </trkpt>
      <trkpt lat="45.85608" lon="4.82131">
        <ele>402</ele>
        <time>2012-05-13T08:26:17Z</time>
      </trkpt>
      <trkpt lat="45.85609" lon="4.82132">
        <ele>402</ele>
        <time>2012-05-13T08:26:18Z</time>
      </trkpt>
      <trkpt lat="45.85603" lon="4.82132">
        <ele>402</ele>
        <time>2012-05-13T08:26:23Z</time>
      </trkpt>
      <trkpt lat="45.85601" lon="4.82133">
        <ele>402</ele>
        <time>2012-05-13T08:26:24Z</time>
      </trkpt>
      <trkpt lat="45.85593" lon="4.82137">
        <ele>401</ele>
        <time>2012-05-13T08:26:28Z</time>
      </trkpt>
      <trkpt lat="45.85584" lon="4.8214">
        <ele>401</ele>
        <time>2012-05-13T08:26:32Z</time>
      </trkpt>
      <trkpt lat="45.85582" lon="4.8214">
        <ele>397</ele>
        <time>2012-05-13T08:26:34Z</time>
      </trkpt>
      <trkpt lat="45.85577" lon="4.8214">
        <ele>396</ele>
        <time>2012-05-13T08:26:36Z</time>
      </trkpt>
      <trkpt lat="45.85572" lon="4.82136">
        <ele>396</ele>
        <time>2012-05-13T08:26:42Z</time>
      </trkpt>
      <trkpt lat="45.85569" lon="4.82133">
        <ele>396</ele>
        <time>2012-05-13T08:26:52Z</time>
      </trkpt>
      <trkpt lat="45.85568" lon="4.82133">
        <ele>396</ele>
        <time>2012-05-13T08:26:59Z</time>
      </trkpt>
      <trkpt lat="45.85569" lon="4.82133">
        <ele>396</ele>
        <time>2012-05-13T08:27:04Z</time>
      </trkpt>
      <trkpt lat="45.8556" lon="4.82139">
        <ele>395</ele>
        <time>2012-05-13T08:27:47Z</time>
      </trkpt>
      <trkpt lat="45.85558" lon="4.82142">
        <ele>395</ele>
        <time>2012-05-13T08:27:48Z</time>
      </trkpt>
      <trkpt lat="45.85556" lon="4.82149">
        <ele>394</ele>
        <time>2012-05-13T08:27:51Z</time>
      </trkpt>
      <trkpt lat="45.85554" lon="4.82152">
        <ele>394</ele>
        <time>2012-05-13T08:27:52Z</time>
      </trkpt>
      <trkpt lat="45.85549" lon="4.82167">
        <ele>390</ele>
        <time>2012-05-13T08:27:56Z</time>
      </trkpt>
      <trkpt lat="45.85546" lon="4.82172">
        <ele>389</ele>
        <time>2012-05-13T08:27:58Z</time>
      </trkpt>
      <trkpt lat="45.85539" lon="4.82188">
        <ele>388</ele>
        <time>2012-05-13T08:28:04Z</time>
      </trkpt>
      <trkpt lat="45.85538" lon="4.82192">
        <ele>388</ele>
        <time>2012-05-13T08:28:05Z</time>
      </trkpt>
      <trkpt lat="45.85538" lon="4.82195">
        <ele>388</ele>
        <time>2012-05-13T08:28:06Z</time>
      </trkpt>
      <trkpt lat="45.85536" lon="4.82203">
        <ele>387</ele>
        <time>2012-05-13T08:28:08Z</time>
      </trkpt>
      <trkpt lat="45.85531" lon="4.82223">
        <ele>386</ele>
        <time>2012-05-13T08:28:13Z</time>
      </trkpt>
      <trkpt lat="45.85528" lon="4.8224">
        <ele>386</ele>
        <time>2012-05-13T08:28:17Z</time>
      </trkpt>
      <trkpt lat="45.85527" lon="4.82249">
        <ele>385</ele>
        <time>2012-05-13T08:28:19Z</time>
      </trkpt>
      <trkpt lat="45.85525" lon="4.82258">
        <ele>381</ele>
        <time>2012-05-13T08:28:22Z</time>
      </trkpt>
      <trkpt lat="45.8552" lon="4.82278">
        <ele>380</ele>
        <time>2012-05-13T08:28:25Z</time>
      </trkpt>
      <trkpt lat="45.85517" lon="4.82307">
        <ele>378</ele>
        <time>2012-05-13T08:28:31Z</time>
      </trkpt>
      <trkpt lat="45.85514" lon="4.82322">
        <ele>377</ele>
        <time>2012-05-13T08:28:35Z</time>
      </trkpt>
      <trkpt lat="45.85511" lon="4.82336">
        <ele>373</ele>
        <time>2012-05-13T08:28:40Z</time>
      </trkpt>
      <trkpt lat="45.8551" lon="4.82341">
        <ele>372</ele>
        <time>2012-05-13T08:28:41Z</time>
      </trkpt>
      <trkpt lat="45.85504" lon="4.82365">
        <ele>370</ele>
        <time>2012-05-13T08:28:46Z</time>
      </trkpt>
      <trkpt lat="45.85499" lon="4.82379">
        <ele>361</ele>
        <time>2012-05-13T08:28:49Z</time>
      </trkpt>
      <trkpt lat="45.85496" lon="4.82389">
        <ele>360</ele>
        <time>2012-05-13T08:28:52Z</time>
      </trkpt>
      <trkpt lat="45.85491" lon="4.82404">
        <ele>361</ele>
        <time>2012-05-13T08:28:54Z</time>
      </trkpt>
      <trkpt lat="45.85488" lon="4.82413">
        <ele>361</ele>
        <time>2012-05-13T08:28:56Z</time>
      </trkpt>
      <trkpt lat="45.85484" lon="4.82427">
        <ele>357</ele>
        <time>2012-05-13T08:28:59Z</time>
      </trkpt>
      <trkpt lat="45.85481" lon="4.8244">
        <ele>354</ele>
        <time>2012-05-13T08:29:02Z</time>
      </trkpt>
      <trkpt lat="45.85481" lon="4.82444">
        <ele>353</ele>
        <time>2012-05-13T08:29:04Z</time>
      </trkpt>
      <trkpt lat="45.85476" lon="4.82462">
        <ele>352</ele>
        <time>2012-05-13T08:29:07Z</time>
      </trkpt>
      <trkpt lat="45.85475" lon="4.82467">
        <ele>351</ele>
        <time>2012-05-13T08:29:08Z</time>
      </trkpt>
      <trkpt lat="45.85472" lon="4.82485">
        <ele>351</ele>
        <time>2012-05-13T08:29:12Z</time>
      </trkpt>
      <trkpt lat="45.8547" lon="4.82494">
        <ele>350</ele>
        <time>2012-05-13T08:29:14Z</time>
      </trkpt>
      <trkpt lat="45.85466" lon="4.82506">
        <ele>344</ele>
        <time>2012-05-13T08:29:17Z</time>
      </trkpt>
      <trkpt lat="45.85463" lon="4.8252">
        <ele>343</ele>
        <time>2012-05-13T08:29:20Z</time>
      </trkpt>
      <trkpt lat="45.85462" lon="4.82524">
        <ele>343</ele>
        <time>2012-05-13T08:29:22Z</time>
      </trkpt>
      <trkpt lat="45.85457" lon="4.82546">
        <ele>341</ele>
        <time>2012-05-13T08:29:26Z</time>
      </trkpt>
      <trkpt lat="45.85456" lon="4.8255">
        <ele>341</ele>
        <time>2012-05-13T08:29:28Z</time>
      </trkpt>
      <trkpt lat="45.85452" lon="4.82561">
        <ele>340</ele>
        <time>2012-05-13T08:29:31Z</time>
      </trkpt>
      <trkpt lat="45.8545" lon="4.82572">
        <ele>339</ele>
        <time>2012-05-13T08:29:34Z</time>
      </trkpt>
      <trkpt lat="45.85448" lon="4.82579">
        <ele>338</ele>
        <time>2012-05-13T08:29:35Z</time>
      </trkpt>
      <trkpt lat="45.85449" lon="4.8259">
        <ele>331</ele>
        <time>2012-05-13T08:29:40Z</time>
      </trkpt>
      <trkpt lat="45.85449" lon="4.82591">
        <ele>331</ele>
        <time>2012-05-13T08:29:42Z</time>
      </trkpt>
      <trkpt lat="45.8545" lon="4.82593">
        <ele>331</ele>
        <time>2012-05-13T08:29:46Z</time>
      </trkpt>
      <trkpt lat="45.85452" lon="4.8259">
        <ele>332</ele>
        <time>2012-05-13T08:30:41Z</time>
      </trkpt>
      <trkpt lat="45.85453" lon="4.82584">
        <ele>332</ele>
        <time>2012-05-13T08:30:46Z</time>
      </trkpt>
      <trkpt lat="45.85454" lon="4.82581">
        <ele>339</ele>
        <time>2012-05-13T08:30:47Z</time>
      </trkpt>
      <trkpt lat="45.85455" lon="4.82575">
        <ele>339</ele>
        <time>2012-05-13T08:30:52Z</time>
      </trkpt>
      <trkpt lat="45.85456" lon="4.82567">
        <ele>340</ele>
        <time>2012-05-13T08:30:57Z</time>
      </trkpt>
      <trkpt lat="45.85457" lon="4.82565">
        <ele>340</ele>
        <time>2012-05-13T08:30:58Z</time>
      </trkpt>
      <trkpt lat="45.85459" lon="4.82559">
        <ele>341</ele>
        <time>2012-05-13T08:31:02Z</time>
      </trkpt>
      <trkpt lat="45.85461" lon="4.82555">
        <ele>341</ele>
        <time>2012-05-13T08:31:04Z</time>
      </trkpt>
      <trkpt lat="45.85465" lon="4.82542">
        <ele>342</ele>
        <time>2012-05-13T08:31:10Z</time>
      </trkpt>
      <trkpt lat="45.85469" lon="4.82525">
        <ele>344</ele>
        <time>2012-05-13T08:31:16Z</time>
      </trkpt>
      <trkpt lat="45.85472" lon="4.82515">
        <ele>345</ele>
        <time>2012-05-13T08:31:20Z</time>
      </trkpt>
      <trkpt lat="45.85472" lon="4.82512">
        <ele>345</ele>
        <time>2012-05-13T08:31:21Z</time>
      </trkpt>
      <trkpt lat="45.85474" lon="4.82498">
        <ele>351</ele>
        <time>2012-05-13T08:31:26Z</time>
      </trkpt>
      <trkpt lat="45.85475" lon="4.8249">
        <ele>351</ele>
        <time>2012-05-13T08:31:30Z</time>
      </trkpt>
      <trkpt lat="45.85476" lon="4.82489">
        <ele>351</ele>
        <time>2012-05-13T08:31:31Z</time>
      </trkpt>
      <trkpt lat="45.85476" lon="4.82486">
        <ele>351</ele>
        <time>2012-05-13T08:31:33Z</time>
      </trkpt>
      <trkpt lat="45.85478" lon="4.82483">
        <ele>351</ele>
        <time>2012-05-13T08:31:35Z</time>
      </trkpt>
      <trkpt lat="45.8548" lon="4.82475">
        <ele>352</ele>
        <time>2012-05-13T08:31:40Z</time>
      </trkpt>
      <trkpt lat="45.85483" lon="4.82462">
        <ele>352</ele>
        <time>2012-05-13T08:31:47Z</time>
      </trkpt>
      <trkpt lat="45.85483" lon="4.8246">
        <ele>352</ele>
        <time>2012-05-13T08:31:48Z</time>
      </trkpt>
      <trkpt lat="45.85484" lon="4.82455">
        <ele>353</ele>
        <time>2012-05-13T08:31:51Z</time>
      </trkpt>
      <trkpt lat="45.85485" lon="4.82448">
        <ele>354</ele>
        <time>2012-05-13T08:31:55Z</time>
      </trkpt>
      <trkpt lat="45.85488" lon="4.82436">
        <ele>356</ele>
        <time>2012-05-13T08:32:01Z</time>
      </trkpt>
      <trkpt lat="45.85489" lon="4.82432">
        <ele>357</ele>
        <time>2012-05-13T08:32:02Z</time>
      </trkpt>
      <trkpt lat="45.85493" lon="4.82422">
        <ele>360</ele>
        <time>2012-05-13T08:32:08Z</time>
      </trkpt>
      <trkpt lat="45.85493" lon="4.8242">
        <ele>361</ele>
        <time>2012-05-13T08:32:09Z</time>
      </trkpt>
      <trkpt lat="45.85494" lon="4.82412">
        <ele>363</ele>
        <time>2012-05-13T08:32:13Z</time>
      </trkpt>
      <trkpt lat="45.85494" lon="4.8241">
        <ele>362</ele>
        <time>2012-05-13T08:32:14Z</time>
      </trkpt>
      <trkpt lat="45.85498" lon="4.82399">
        <ele>361</ele>
        <time>2012-05-13T08:32:19Z</time>
      </trkpt>
      <trkpt lat="45.85498" lon="4.82397">
        <ele>361</ele>
        <time>2012-05-13T08:32:20Z</time>
      </trkpt>
      <trkpt lat="45.85499" lon="4.82389">
        <ele>361</ele>
        <time>2012-05-13T08:32:24Z</time>
      </trkpt>
      <trkpt lat="45.855" lon="4.82386">
        <ele>368</ele>
        <time>2012-05-13T08:32:25Z</time>
      </trkpt>
      <trkpt lat="45.85502" lon="4.82384">
        <ele>368</ele>
        <time>2012-05-13T08:32:26Z</time>
      </trkpt>
      <trkpt lat="45.85502" lon="4.82381">
        <ele>368</ele>
        <time>2012-05-13T08:32:27Z</time>
      </trkpt>
      <trkpt lat="45.85503" lon="4.82376">
        <ele>369</ele>
        <time>2012-05-13T08:32:29Z</time>
      </trkpt>
      <trkpt lat="45.85506" lon="4.82366">
        <ele>370</ele>
        <time>2012-05-13T08:32:34Z</time>
      </trkpt>
      <trkpt lat="45.85507" lon="4.82361">
        <ele>370</ele>
        <time>2012-05-13T08:32:37Z</time>
      </trkpt>
      <trkpt lat="45.85507" lon="4.82357">
        <ele>371</ele>
        <time>2012-05-13T08:32:39Z</time>
      </trkpt>
      <trkpt lat="45.85507" lon="4.82354">
        <ele>371</ele>
        <time>2012-05-13T08:32:41Z</time>
      </trkpt>
      <trkpt lat="45.8551" lon="4.8234">
        <ele>372</ele>
        <time>2012-05-13T08:32:49Z</time>
      </trkpt>
      <trkpt lat="45.85511" lon="4.82334">
        <ele>373</ele>
        <time>2012-05-13T08:32:52Z</time>
      </trkpt>
      <trkpt lat="45.85511" lon="4.82332">
        <ele>376</ele>
        <time>2012-05-13T08:32:53Z</time>
      </trkpt>
      <trkpt lat="45.85513" lon="4.82329">
        <ele>376</ele>
        <time>2012-05-13T08:32:55Z</time>
      </trkpt>
      <trkpt lat="45.85517" lon="4.82317">
        <ele>377</ele>
        <time>2012-05-13T08:33:01Z</time>
      </trkpt>
      <trkpt lat="45.85519" lon="4.8231">
        <ele>378</ele>
        <time>2012-05-13T08:33:05Z</time>
      </trkpt>
      <trkpt lat="45.8552" lon="4.82305">
        <ele>378</ele>
        <time>2012-05-13T08:33:07Z</time>
      </trkpt>
      <trkpt lat="45.85522" lon="4.82289">
        <ele>379</ele>
        <time>2012-05-13T08:33:13Z</time>
      </trkpt>
      <trkpt lat="45.85523" lon="4.82283">
        <ele>379</ele>
        <time>2012-05-13T08:33:15Z</time>
      </trkpt>
      <trkpt lat="45.85529" lon="4.82271">
        <ele>380</ele>
        <time>2012-05-13T08:33:19Z</time>
      </trkpt>
      <trkpt lat="45.85529" lon="4.82268">
        <ele>380</ele>
        <time>2012-05-13T08:33:20Z</time>
      </trkpt>
      <trkpt lat="45.8553" lon="4.82258">
        <ele>381</ele>
        <time>2012-05-13T08:33:24Z</time>
      </trkpt>
      <trkpt lat="45.85533" lon="4.82247">
        <ele>386</ele>
        <time>2012-05-13T08:33:29Z</time>
      </trkpt>
      <trkpt lat="45.85533" lon="4.82244">
        <ele>386</ele>
        <time>2012-05-13T08:33:30Z</time>
      </trkpt>
      <trkpt lat="45.85535" lon="4.82232">
        <ele>386</ele>
        <time>2012-05-13T08:33:35Z</time>
      </trkpt>
      <trkpt lat="45.85535" lon="4.82229">
        <ele>386</ele>
        <time>2012-05-13T08:33:36Z</time>
      </trkpt>
      <trkpt lat="45.8554" lon="4.82214">
        <ele>387</ele>
        <time>2012-05-13T08:33:41Z</time>
      </trkpt>
      <trkpt lat="45.85543" lon="4.82207">
        <ele>388</ele>
        <time>2012-05-13T08:33:44Z</time>
      </trkpt>
      <trkpt lat="45.85544" lon="4.82204">
        <ele>388</ele>
        <time>2012-05-13T08:33:46Z</time>
      </trkpt>
      <trkpt lat="45.85545" lon="4.82192">
        <ele>388</ele>
        <time>2012-05-13T08:33:53Z</time>
      </trkpt>
      <trkpt lat="45.85545" lon="4.8219">
        <ele>388</ele>
        <time>2012-05-13T08:33:54Z</time>
      </trkpt>
      <trkpt lat="45.85549" lon="4.82185">
        <ele>389</ele>
        <time>2012-05-13T08:33:59Z</time>
      </trkpt>
      <trkpt lat="45.85549" lon="4.82184">
        <ele>389</ele>
        <time>2012-05-13T08:34:00Z</time>
      </trkpt>
      <trkpt lat="45.8555" lon="4.82183">
        <ele>389</ele>
        <time>2012-05-13T08:34:01Z</time>
      </trkpt>
      <trkpt lat="45.85553" lon="4.82177">
        <ele>390</ele>
        <time>2012-05-13T08:34:06Z</time>
      </trkpt>
      <trkpt lat="45.85554" lon="4.82175">
        <ele>390</ele>
        <time>2012-05-13T08:34:08Z</time>
      </trkpt>
      <trkpt lat="45.85558" lon="4.82165">
        <ele>395</ele>
        <time>2012-05-13T08:34:15Z</time>
      </trkpt>
      <trkpt lat="45.85559" lon="4.82161">
        <ele>395</ele>
        <time>2012-05-13T08:34:18Z</time>
      </trkpt>
      <trkpt lat="45.85561" lon="4.82155">
        <ele>395</ele>
        <time>2012-05-13T08:34:21Z</time>
      </trkpt>
      <trkpt lat="45.85565" lon="4.82146">
        <ele>395</ele>
        <time>2012-05-13T08:34:24Z</time>
      </trkpt>
      <trkpt lat="45.85568" lon="4.82142">
        <ele>396</ele>
        <time>2012-05-13T08:34:26Z</time>
      </trkpt>
      <trkpt lat="45.8557" lon="4.82141">
        <ele>396</ele>
        <time>2012-05-13T08:34:27Z</time>
      </trkpt>
      <trkpt lat="45.85576" lon="4.82137">
        <ele>396</ele>
        <time>2012-05-13T08:34:30Z</time>
      </trkpt>
      <trkpt lat="45.85581" lon="4.82135">
        <ele>397</ele>
        <time>2012-05-13T08:34:32Z</time>
      </trkpt>
      <trkpt lat="45.85588" lon="4.82133">
        <ele>402</ele>
        <time>2012-05-13T08:34:35Z</time>
      </trkpt>
      <trkpt lat="45.85592" lon="4.82131">
        <ele>402</ele>
        <time>2012-05-13T08:34:37Z</time>
      </trkpt>
      <trkpt lat="45.85605" lon="4.82128">
        <ele>402</ele>
        <time>2012-05-13T08:34:42Z</time>
      </trkpt>
      <trkpt lat="45.85609" lon="4.82128">
        <ele>402</ele>
        <time>2012-05-13T08:34:43Z</time>
      </trkpt>
      <trkpt lat="45.85618" lon="4.82127">
        <ele>402</ele>
        <time>2012-05-13T08:34:46Z</time>
      </trkpt>
      <trkpt lat="45.85628" lon="4.82126">
        <ele>402</ele>
        <time>2012-05-13T08:34:50Z</time>
      </trkpt>
      <trkpt lat="45.85632" lon="4.82126">
        <ele>402</ele>
        <time>2012-05-13T08:34:52Z</time>
      </trkpt>
      <trkpt lat="45.85633" lon="4.82126">
        <ele>402</ele>
        <time>2012-05-13T08:34:53Z</time>
      </trkpt>
      <trkpt lat="45.85634" lon="4.82124">
        <ele>402</ele>
        <time>2012-05-13T08:34:56Z</time>
      </trkpt>
      <trkpt lat="45.85635" lon="4.8212">
        <ele>402</ele>
        <time>2012-05-13T08:35:01Z</time>
      </trkpt>
      <trkpt lat="45.8563" lon="4.82122">
        <ele>402</ele>
        <time>2012-05-13T08:35:04Z</time>
      </trkpt>
      <trkpt lat="45.85627" lon="4.82122">
        <ele>402</ele>
        <time>2012-05-13T08:35:05Z</time>
      </trkpt>
      <trkpt lat="45.85624" lon="4.82123">
        <ele>402</ele>
        <time>2012-05-13T08:35:06Z</time>
      </trkpt>
      <trkpt lat="45.85616" lon="4.82125">
        <ele>402</ele>
        <time>2012-05-13T08:35:10Z</time>
      </trkpt>
      <trkpt lat="45.85616" lon="4.82123">
        <ele>402</ele>
        <time>2012-05-13T08:35:13Z</time>
      </trkpt>
      <trkpt lat="45.85616" lon="4.82121">
        <ele>402</ele>
        <time>2012-05-13T08:35:15Z</time>
      </trkpt>
      <trkpt lat="45.8562" lon="4.82124">
        <ele>402</ele>
        <time>2012-05-13T08:35:26Z</time>
      </trkpt>
      <trkpt lat="45.85624" lon="4.82123">
        <ele>402</ele>
        <time>2012-05-13T08:35:29Z</time>
      </trkpt>
      <trkpt lat="45.85628" lon="4.82124">
        <ele>402</ele>
        <time>2012-05-13T08:35:31Z</time>
      </trkpt>
      <trkpt lat="45.85637" lon="4.82128">
        <ele>401</ele>
        <time>2012-05-13T08:35:36Z</time>
      </trkpt>
      <trkpt lat="45.85642" lon="4.82128">
        <ele>401</ele>
        <time>2012-05-13T08:35:38Z</time>
      </trkpt>
      <trkpt lat="45.85653" lon="4.82128">
        <ele>401</ele>
        <time>2012-05-13T08:35:42Z</time>
      </trkpt>
      <trkpt lat="45.85662" lon="4.82128">
        <ele>401</ele>
        <time>2012-05-13T08:35:46Z</time>
      </trkpt>
      <trkpt lat="45.85664" lon="4.82127">
        <ele>401</ele>
        <time>2012-05-13T08:35:47Z</time>
      </trkpt>
      <trkpt lat="45.85679" lon="4.8212">
        <ele>397</ele>
        <time>2012-05-13T08:35:53Z</time>
      </trkpt>
      <trkpt lat="45.85681" lon="4.82119">
        <ele>397</ele>
        <time>2012-05-13T08:35:54Z</time>
      </trkpt>
      <trkpt lat="45.85689" lon="4.82113">
        <ele>397</ele>
        <time>2012-05-13T08:35:58Z</time>
      </trkpt>
      <trkpt lat="45.85696" lon="4.82104">
        <ele>397</ele>
        <time>2012-05-13T08:36:02Z</time>
      </trkpt>
      <trkpt lat="45.85701" lon="4.82099">
        <ele>397</ele>
        <time>2012-05-13T08:36:04Z</time>
      </trkpt>
      <trkpt lat="45.85712" lon="4.82089">
        <ele>397</ele>
        <time>2012-05-13T08:36:09Z</time>
      </trkpt>
      <trkpt lat="45.85727" lon="4.82081">
        <ele>402</ele>
        <time>2012-05-13T08:36:16Z</time>
      </trkpt>
      <trkpt lat="45.8573" lon="4.82079">
        <ele>402</ele>
        <time>2012-05-13T08:36:17Z</time>
      </trkpt>
      <trkpt lat="45.85738" lon="4.82076">
        <ele>400</ele>
        <time>2012-05-13T08:36:20Z</time>
      </trkpt>
      <trkpt lat="45.85749" lon="4.82073">
        <ele>399</ele>
        <time>2012-05-13T08:36:24Z</time>
      </trkpt>
      <trkpt lat="45.85756" lon="4.82073">
        <ele>397</ele>
        <time>2012-05-13T08:36:26Z</time>
      </trkpt>
      <trkpt lat="45.85768" lon="4.82072">
        <ele>398</ele>
        <time>2012-05-13T08:36:31Z</time>
      </trkpt>
      <trkpt lat="45.85784" lon="4.82074">
        <ele>398</ele>
        <time>2012-05-13T08:36:37Z</time>
      </trkpt>
      <trkpt lat="45.85787" lon="4.82075">
        <ele>398</ele>
        <time>2012-05-13T08:36:38Z</time>
      </trkpt>
      <trkpt lat="45.85795" lon="4.82081">
        <ele>397</ele>
        <time>2012-05-13T08:36:42Z</time>
      </trkpt>
      <trkpt lat="45.85801" lon="4.82091">
        <ele>390</ele>
        <time>2012-05-13T08:36:46Z</time>
      </trkpt>
      <trkpt lat="45.85803" lon="4.82093">
        <ele>390</ele>
        <time>2012-05-13T08:36:47Z</time>
      </trkpt>
      <trkpt lat="45.85811" lon="4.82106">
        <ele>390</ele>
        <time>2012-05-13T08:36:52Z</time>
      </trkpt>
      <trkpt lat="45.85814" lon="4.82111">
        <ele>389</ele>
        <time>2012-05-13T08:36:54Z</time>
      </trkpt>
      <trkpt lat="45.85817" lon="4.82117">
        <ele>389</ele>
        <time>2012-05-13T08:36:56Z</time>
      </trkpt>
      <trkpt lat="45.85827" lon="4.82128">
        <ele>388</ele>
        <time>2012-05-13T08:37:01Z</time>
      </trkpt>
      <trkpt lat="45.85827" lon="4.8213">
        <ele>388</ele>
        <time>2012-05-13T08:37:02Z</time>
      </trkpt>
      <trkpt lat="45.85833" lon="4.82132">
        <ele>387</ele>
        <time>2012-05-13T08:37:05Z</time>
      </trkpt>
      <trkpt lat="45.85836" lon="4.82134">
        <ele>388</ele>
        <time>2012-05-13T08:37:08Z</time>
      </trkpt>
      <trkpt lat="45.85838" lon="4.82134">
        <ele>388</ele>
        <time>2012-05-13T08:37:11Z</time>
      </trkpt>
      <trkpt lat="45.8584" lon="4.82134">
        <ele>388</ele>
        <time>2012-05-13T08:37:19Z</time>
      </trkpt>
      <trkpt lat="45.85844" lon="4.82134">
        <ele>388</ele>
        <time>2012-05-13T08:37:26Z</time>
      </trkpt>
      <trkpt lat="45.85846" lon="4.82134">
        <ele>388</ele>
        <time>2012-05-13T08:37:32Z</time>
      </trkpt>
      <trkpt lat="45.85845" lon="4.8213">
        <ele>388</ele>
        <time>2012-05-13T08:37:39Z</time>
      </trkpt>
      <trkpt lat="45.85844" lon="4.82129">
        <ele>388</ele>
        <time>2012-05-13T08:37:47Z</time>
      </trkpt>
      <trkpt lat="45.85844" lon="4.82126">
        <ele>389</ele>
        <time>2012-05-13T08:37:50Z</time>
      </trkpt>
      <trkpt lat="45.85843" lon="4.82134">
        <ele>388</ele>
        <time>2012-05-13T08:37:57Z</time>
      </trkpt>
      <trkpt lat="45.85845" lon="4.82135">
        <ele>388</ele>
        <time>2012-05-13T08:38:04Z</time>
      </trkpt>
      <trkpt lat="45.85846" lon="4.82136">
        <ele>388</ele>
        <time>2012-05-13T08:38:39Z</time>
      </trkpt>
      <trkpt lat="45.85845" lon="4.82137">
        <ele>388</ele>
        <time>2012-05-13T08:38:55Z</time>
      </trkpt>
      <trkpt lat="45.85845" lon="4.82134">
        <ele>388</ele>
        <time>2012-05-13T08:39:01Z</time>
      </trkpt>
      <trkpt lat="45.85843" lon="4.82135">
        <ele>388</ele>
        <time>2012-05-13T08:39:07Z</time>
      </trkpt>
      <trkpt lat="45.85842" lon="4.82135">
        <ele>388</ele>
        <time>2012-05-13T08:39:10Z</time>
      </trkpt>
      <trkpt lat="45.85841" lon="4.82136">
        <ele>388</ele>
        <time>2012-05-13T08:39:49Z</time>
      </trkpt>
      <trkpt lat="45.85834" lon="4.82128">
        <ele>388</ele>
        <time>2012-05-13T08:39:53Z</time>
      </trkpt>
      <trkpt lat="45.85832" lon="4.82125">
        <ele>388</ele>
        <time>2012-05-13T08:39:54Z</time>
      </trkpt>
      <trkpt lat="45.85822" lon="4.82117">
        <ele>389</ele>
        <time>2012-05-13T08:39:58Z</time>
      </trkpt>
      <trkpt lat="45.85818" lon="4.82109">
        <ele>390</ele>
        <time>2012-05-13T08:40:01Z</time>
      </trkpt>
      <trkpt lat="45.85815" lon="4.82104">
        <ele>390</ele>
        <time>2012-05-13T08:40:03Z</time>
      </trkpt>
      <trkpt lat="45.85805" lon="4.8209">
        <ele>391</ele>
        <time>2012-05-13T08:40:09Z</time>
      </trkpt>
      <trkpt lat="45.85804" lon="4.82089">
        <ele>391</ele>
        <time>2012-05-13T08:40:10Z</time>
      </trkpt>
      <trkpt lat="45.85804" lon="4.82088">
        <ele>391</ele>
        <time>2012-05-13T08:40:11Z</time>
      </trkpt>
      <trkpt lat="45.85803" lon="4.82087">
        <ele>391</ele>
        <time>2012-05-13T08:40:15Z</time>
      </trkpt>
      <trkpt lat="45.85795" lon="4.82079">
        <ele>397</ele>
        <time>2012-05-13T08:40:20Z</time>
      </trkpt>
      <trkpt lat="45.85789" lon="4.82075">
        <ele>398</ele>
        <time>2012-05-13T08:40:24Z</time>
      </trkpt>
      <trkpt lat="45.85787" lon="4.82073">
        <ele>398</ele>
        <time>2012-05-13T08:40:25Z</time>
      </trkpt>
      <trkpt lat="45.85786" lon="4.82077">
        <ele>398</ele>
        <time>2012-05-13T08:40:32Z</time>
      </trkpt>
      <trkpt lat="45.85791" lon="4.82079">
        <ele>397</ele>
        <time>2012-05-13T08:40:37Z</time>
      </trkpt>
      <trkpt lat="45.85801" lon="4.82084">
        <ele>391</ele>
        <time>2012-05-13T08:40:42Z</time>
      </trkpt>
      <trkpt lat="45.85809" lon="4.82096">
        <ele>390</ele>
        <time>2012-05-13T08:40:47Z</time>
      </trkpt>
      <trkpt lat="45.85814" lon="4.82103">
        <ele>390</ele>
        <time>2012-05-13T08:40:50Z</time>
      </trkpt>
      <trkpt lat="45.85817" lon="4.82108">
        <ele>390</ele>
        <time>2012-05-13T08:40:52Z</time>
      </trkpt>
      <trkpt lat="45.85826" lon="4.82123">
        <ele>388</ele>
        <time>2012-05-13T08:40:58Z</time>
      </trkpt>
      <trkpt lat="45.85827" lon="4.82126">
        <ele>388</ele>
        <time>2012-05-13T08:40:59Z</time>
      </trkpt>
      <trkpt lat="45.85833" lon="4.82135">
        <ele>387</ele>
        <time>2012-05-13T08:41:04Z</time>
      </trkpt>
      <trkpt lat="45.85839" lon="4.82135">
        <ele>388</ele>
        <time>2012-05-13T08:41:10Z</time>
      </trkpt>
      <trkpt lat="45.85841" lon="4.82132">
        <ele>388</ele>
        <time>2012-05-13T08:41:43Z</time>
      </trkpt>
      <trkpt lat="45.85841" lon="4.82131">
        <ele>388</ele>
        <time>2012-05-13T08:41:44Z</time>
      </trkpt>
      <trkpt lat="45.85843" lon="4.8213">
        <ele>388</ele>
        <time>2012-05-13T08:41:51Z</time>
      </trkpt>
      <trkpt lat="45.85843" lon="4.82132">
        <ele>388</ele>
        <time>2012-05-13T08:41:52Z</time>
      </trkpt>
      <trkpt lat="45.85838" lon="4.8213">
        <ele>388</ele>
        <time>2012-05-13T08:41:56Z</time>
      </trkpt>
      <trkpt lat="45.85829" lon="4.82122">
        <ele>388</ele>
        <time>2012-05-13T08:42:00Z</time>
      </trkpt>
      <trkpt lat="45.85823" lon="4.82114">
        <ele>389</ele>
        <time>2012-05-13T08:42:04Z</time>
      </trkpt>
      <trkpt lat="45.85815" lon="4.82105">
        <ele>390</ele>
        <time>2012-05-13T08:42:08Z</time>
      </trkpt>
      <trkpt lat="45.85814" lon="4.82103">
        <ele>390</ele>
        <time>2012-05-13T08:42:09Z</time>
      </trkpt>
      <trkpt lat="45.85804" lon="4.82089">
        <ele>391</ele>
        <time>2012-05-13T08:42:16Z</time>
      </trkpt>
      <trkpt lat="45.85801" lon="4.82086">
        <ele>391</ele>
        <time>2012-05-13T08:42:17Z</time>
      </trkpt>
      <trkpt lat="45.85795" lon="4.82081">
        <ele>397</ele>
        <time>2012-05-13T08:42:20Z</time>
      </trkpt>
      <trkpt lat="45.85793" lon="4.82078">
        <ele>397</ele>
        <time>2012-05-13T08:42:25Z</time>
      </trkpt>
      <trkpt lat="45.85799" lon="4.82083">
        <ele>397</ele>
        <time>2012-05-13T08:42:30Z</time>
      </trkpt>
      <trkpt lat="45.85806" lon="4.82091">
        <ele>391</ele>
        <time>2012-05-13T08:42:34Z</time>
      </trkpt>
      <trkpt lat="45.85813" lon="4.82103">
        <ele>390</ele>
        <time>2012-05-13T08:42:39Z</time>
      </trkpt>
      <trkpt lat="45.85821" lon="4.82116">
        <ele>389</ele>
        <time>2012-05-13T08:42:44Z</time>
      </trkpt>
      <trkpt lat="45.85825" lon="4.82125">
        <ele>388</ele>
        <time>2012-05-13T08:42:47Z</time>
      </trkpt>
      <trkpt lat="45.85829" lon="4.8213">
        <ele>388</ele>
        <time>2012-05-13T08:42:49Z</time>
      </trkpt>
      <trkpt lat="45.85835" lon="4.82135">
        <ele>388</ele>
        <time>2012-05-13T08:42:53Z</time>
      </trkpt>
      <trkpt lat="45.85837" lon="4.82135">
        <ele>388</ele>
        <time>2012-05-13T08:42:54Z</time>
      </trkpt>
      <trkpt lat="45.85841" lon="4.82133">
        <ele>388</ele>
        <time>2012-05-13T08:43:04Z</time>
      </trkpt>
      <trkpt lat="45.85843" lon="4.82133">
        <ele>388</ele>
        <time>2012-05-13T08:43:16Z</time>
      </trkpt>
      <trkpt lat="45.85845" lon="4.82134">
        <ele>388</ele>
        <time>2012-05-13T08:43:35Z</time>
      </trkpt>
      <trkpt lat="45.85844" lon="4.82133">
        <ele>388</ele>
        <time>2012-05-13T08:43:36Z</time>
      </trkpt>
      <trkpt lat="45.85835" lon="4.82123">
        <ele>389</ele>
        <time>2012-05-13T08:43:40Z</time>
      </trkpt>
      <trkpt lat="45.85827" lon="4.82112">
        <ele>389</ele>
        <time>2012-05-13T08:43:44Z</time>
      </trkpt>
      <trkpt lat="45.85819" lon="4.82103">
        <ele>390</ele>
        <time>2012-05-13T08:43:48Z</time>
      </trkpt>
      <trkpt lat="45.85817" lon="4.82101">
        <ele>390</ele>
        <time>2012-05-13T08:43:49Z</time>
      </trkpt>
      <trkpt lat="45.8581" lon="4.82091">
        <ele>391</ele>
        <time>2012-05-13T08:43:54Z</time>
      </trkpt>
      <trkpt lat="45.85805" lon="4.82089">
        <ele>391</ele>
        <time>2012-05-13T08:43:56Z</time>
      </trkpt>
      <trkpt lat="45.85803" lon="4.82088">
        <ele>391</ele>
        <time>2012-05-13T08:43:57Z</time>
      </trkpt>
      <trkpt lat="45.85798" lon="4.82083">
        <ele>397</ele>
        <time>2012-05-13T08:43:59Z</time>
      </trkpt>
      <trkpt lat="45.85786" lon="4.82076">
        <ele>398</ele>
        <time>2012-05-13T08:44:04Z</time>
      </trkpt>
      <trkpt lat="45.85784" lon="4.82076">
        <ele>398</ele>
        <time>2012-05-13T08:44:05Z</time>
      </trkpt>
      <trkpt lat="45.8578" lon="4.82074">
        <ele>398</ele>
        <time>2012-05-13T08:44:08Z</time>
      </trkpt>
      <trkpt lat="45.85779" lon="4.82072">
        <ele>398</ele>
        <time>2012-05-13T08:44:10Z</time>
      </trkpt>
      <trkpt lat="45.85784" lon="4.82075">
        <ele>398</ele>
        <time>2012-05-13T08:44:14Z</time>
      </trkpt>
      <trkpt lat="45.85784" lon="4.82076">
        <ele>398</ele>
        <time>2012-05-13T08:44:15Z</time>
      </trkpt>
      <trkpt lat="45.85788" lon="4.82078">
        <ele>397</ele>
        <time>2012-05-13T08:44:18Z</time>
      </trkpt>
      <trkpt lat="45.85794" lon="4.82084">
        <ele>391</ele>
        <time>2012-05-13T08:44:22Z</time>
      </trkpt>
      <trkpt lat="45.85801" lon="4.82093">
        <ele>390</ele>
        <time>2012-05-13T08:44:26Z</time>
      </trkpt>
      <trkpt lat="45.85802" lon="4.82096">
        <ele>390</ele>
        <time>2012-05-13T08:44:27Z</time>
      </trkpt>
      <trkpt lat="45.8581" lon="4.82105">
        <ele>390</ele>
        <time>2012-05-13T08:44:31Z</time>
      </trkpt>
      <trkpt lat="45.85815" lon="4.82115">
        <ele>389</ele>
        <time>2012-05-13T08:44:35Z</time>
      </trkpt>
      <trkpt lat="45.8582" lon="4.82124">
        <ele>388</ele>
        <time>2012-05-13T08:44:39Z</time>
      </trkpt>
      <trkpt lat="45.85827" lon="4.82135">
        <ele>387</ele>
        <time>2012-05-13T08:44:44Z</time>
      </trkpt>
      <trkpt lat="45.85828" lon="4.82136">
        <ele>387</ele>
        <time>2012-05-13T08:44:45Z</time>
      </trkpt>
      <trkpt lat="45.85835" lon="4.82135">
        <ele>388</ele>
        <time>2012-05-13T08:44:49Z</time>
      </trkpt>
      <trkpt lat="45.85839" lon="4.82129">
        <ele>388</ele>
        <time>2012-05-13T08:44:54Z</time>
      </trkpt>
      <trkpt lat="45.85839" lon="4.82129">
        <ele>388</ele>
        <time>2012-05-13T08:44:55Z</time>
      </trkpt>
      <trkpt lat="45.8584" lon="4.82132">
        <ele>388</ele>
        <time>2012-05-13T08:45:02Z</time>
      </trkpt>
      <trkpt lat="45.85842" lon="4.82133">
        <ele>388</ele>
        <time>2012-05-13T08:45:08Z</time>
      </trkpt>
      <trkpt lat="45.8584" lon="4.82133">
        <ele>388</ele>
        <time>2012-05-13T08:45:23Z</time>
      </trkpt>
      <trkpt lat="45.8584" lon="4.82134">
        <ele>388</ele>
        <time>2012-05-13T08:45:27Z</time>
      </trkpt>
      <trkpt lat="45.85839" lon="4.82136">
        <ele>388</ele>
        <time>2012-05-13T08:45:34Z</time>
      </trkpt>
      <trkpt lat="45.85838" lon="4.82143">
        <ele>387</ele>
        <time>2012-05-13T08:45:39Z</time>
      </trkpt>
      <trkpt lat="45.85838" lon="4.82152">
        <ele>386</ele>
        <time>2012-05-13T08:45:43Z</time>
      </trkpt>
      <trkpt lat="45.85839" lon="4.82157">
        <ele>385</ele>
        <time>2012-05-13T08:45:45Z</time>
      </trkpt>
      <trkpt lat="45.85843" lon="4.82175">
        <ele>381</ele>
        <time>2012-05-13T08:45:52Z</time>
      </trkpt>
      <trkpt lat="45.85843" lon="4.82182">
        <ele>381</ele>
        <time>2012-05-13T08:45:54Z</time>
      </trkpt>
      <trkpt lat="45.85844" lon="4.82192">
        <ele>380</ele>
        <time>2012-05-13T08:45:57Z</time>
      </trkpt>
      <trkpt lat="45.85846" lon="4.8221">
        <ele>378</ele>
        <time>2012-05-13T08:46:02Z</time>
      </trkpt>
      <trkpt lat="45.85846" lon="4.82213">
        <ele>378</ele>
        <time>2012-05-13T08:46:03Z</time>
      </trkpt>
      <trkpt lat="45.85849" lon="4.82236">
        <ele>374</ele>
        <time>2012-05-13T08:46:09Z</time>
      </trkpt>
      <trkpt lat="45.85853" lon="4.82253">
        <ele>368</ele>
        <time>2012-05-13T08:46:14Z</time>
      </trkpt>
      <trkpt lat="45.85856" lon="4.8226">
        <ele>368</ele>
        <time>2012-05-13T08:46:16Z</time>
      </trkpt>
      <trkpt lat="45.85862" lon="4.8227">
        <ele>368</ele>
        <time>2012-05-13T08:46:19Z</time>
      </trkpt>
      <trkpt lat="45.85867" lon="4.82284">
        <ele>368</ele>
        <time>2012-05-13T08:46:23Z</time>
      </trkpt>
      <trkpt lat="45.85868" lon="4.82288">
        <ele>367</ele>
        <time>2012-05-13T08:46:24Z</time>
      </trkpt>
      <trkpt lat="45.85875" lon="4.82304">
        <ele>367</ele>
        <time>2012-05-13T08:46:29Z</time>
      </trkpt>
      <trkpt lat="45.85877" lon="4.82307">
        <ele>367</ele>
        <time>2012-05-13T08:46:30Z</time>
      </trkpt>
      <trkpt lat="45.85882" lon="4.82322">
        <ele>367</ele>
        <time>2012-05-13T08:46:34Z</time>
      </trkpt>
      <trkpt lat="45.85887" lon="4.82334">
        <ele>360</ele>
        <time>2012-05-13T08:46:37Z</time>
      </trkpt>
      <trkpt lat="45.85891" lon="4.82346">
        <ele>361</ele>
        <time>2012-05-13T08:46:40Z</time>
      </trkpt>
      <trkpt lat="45.85895" lon="4.8236">
        <ele>360</ele>
        <time>2012-05-13T08:46:44Z</time>
      </trkpt>
      <trkpt lat="45.85898" lon="4.82367">
        <ele>359</ele>
        <time>2012-05-13T08:46:46Z</time>
      </trkpt>
      <trkpt lat="45.85905" lon="4.82381">
        <ele>359</ele>
        <time>2012-05-13T08:46:51Z</time>
      </trkpt>
      <trkpt lat="45.85914" lon="4.82392">
        <ele>359</ele>
        <time>2012-05-13T08:46:56Z</time>
      </trkpt>
      <trkpt lat="45.85916" lon="4.82394">
        <ele>359</ele>
        <time>2012-05-13T08:46:57Z</time>
      </trkpt>
      <trkpt lat="45.85918" lon="4.82392">
        <ele>366</ele>
        <time>2012-05-13T08:47:01Z</time>
      </trkpt>
      <trkpt lat="45.85917" lon="4.82392">
        <ele>366</ele>
        <time>2012-05-13T08:47:02Z</time>
      </trkpt>
      <trkpt lat="45.85916" lon="4.82388">
        <ele>359</ele>
        <time>2012-05-13T08:47:05Z</time>
      </trkpt>
      <trkpt lat="45.85916" lon="4.82387">
        <ele>359</ele>
        <time>2012-05-13T08:47:06Z</time>
      </trkpt>
      <trkpt lat="45.85915" lon="4.82385">
        <ele>359</ele>
        <time>2012-05-13T08:47:09Z</time>
      </trkpt>
      <trkpt lat="45.85914" lon="4.82383">
        <ele>359</ele>
        <time>2012-05-13T08:47:16Z</time>
      </trkpt>
      <trkpt lat="45.85914" lon="4.82386">
        <ele>359</ele>
        <time>2012-05-13T08:47:25Z</time>
      </trkpt>
      <trkpt lat="45.85914" lon="4.82387">
        <ele>359</ele>
        <time>2012-05-13T08:47:31Z</time>
      </trkpt>
      <trkpt lat="45.85915" lon="4.82381">
        <ele>360</ele>
        <time>2012-05-13T08:48:22Z</time>
      </trkpt>
      <trkpt lat="45.85912" lon="4.82375">
        <ele>360</ele>
        <time>2012-05-13T08:48:28Z</time>
      </trkpt>
      <trkpt lat="45.85911" lon="4.82373">
        <ele>360</ele>
        <time>2012-05-13T08:48:29Z</time>
      </trkpt>
      <trkpt lat="45.85905" lon="4.8236">
        <ele>361</ele>
        <time>2012-05-13T08:48:34Z</time>
      </trkpt>
      <trkpt lat="45.85902" lon="4.82351">
        <ele>362</ele>
        <time>2012-05-13T08:48:37Z</time>
      </trkpt>
      <trkpt lat="45.85898" lon="4.82341">
        <ele>363</ele>
        <time>2012-05-13T08:48:40Z</time>
      </trkpt>
      <trkpt lat="45.85892" lon="4.82326">
        <ele>368</ele>
        <time>2012-05-13T08:48:45Z</time>
      </trkpt>
      <trkpt lat="45.85892" lon="4.82323">
        <ele>368</ele>
        <time>2012-05-13T08:48:46Z</time>
      </trkpt>
      <trkpt lat="45.85887" lon="4.82311">
        <ele>368</ele>
        <time>2012-05-13T08:48:51Z</time>
      </trkpt>
      <trkpt lat="45.85884" lon="4.82301">
        <ele>368</ele>
        <time>2012-05-13T08:48:54Z</time>
      </trkpt>
      <trkpt lat="45.85882" lon="4.82295">
        <ele>368</ele>
        <time>2012-05-13T08:48:56Z</time>
      </trkpt>
      <trkpt lat="45.8588" lon="4.82284">
        <ele>369</ele>
        <time>2012-05-13T08:49:01Z</time>
      </trkpt>
      <trkpt lat="45.8588" lon="4.82282">
        <ele>369</ele>
        <time>2012-05-13T08:49:04Z</time>
      </trkpt>
      <trkpt lat="45.8588" lon="4.82284">
        <ele>369</ele>
        <time>2012-05-13T08:49:05Z</time>
      </trkpt>
      <trkpt lat="45.85881" lon="4.82288">
        <ele>369</ele>
        <time>2012-05-13T08:49:07Z</time>
      </trkpt>
      <trkpt lat="45.85882" lon="4.82291">
        <ele>368</ele>
        <time>2012-05-13T08:49:08Z</time>
      </trkpt>
      <trkpt lat="45.85883" lon="4.82297">
        <ele>368</ele>
        <time>2012-05-13T08:49:10Z</time>
      </trkpt>
      <trkpt lat="45.85887" lon="4.82314">
        <ele>368</ele>
        <time>2012-05-13T08:49:16Z</time>
      </trkpt>
      <trkpt lat="45.85893" lon="4.82336">
        <ele>362</ele>
        <time>2012-05-13T08:49:23Z</time>
      </trkpt>
      <trkpt lat="45.85894" lon="4.82339">
        <ele>362</ele>
        <time>2012-05-13T08:49:24Z</time>
      </trkpt>
      <trkpt lat="45.85898" lon="4.82355">
        <ele>361</ele>
        <time>2012-05-13T08:49:29Z</time>
      </trkpt>
      <trkpt lat="45.85901" lon="4.82363">
        <ele>360</ele>
        <time>2012-05-13T08:49:31Z</time>
      </trkpt>
      <trkpt lat="45.85905" lon="4.82372">
        <ele>360</ele>
        <time>2012-05-13T08:49:34Z</time>
      </trkpt>
      <trkpt lat="45.85909" lon="4.82382">
        <ele>359</ele>
        <time>2012-05-13T08:49:39Z</time>
      </trkpt>
      <trkpt lat="45.85909" lon="4.82383">
        <ele>359</ele>
        <time>2012-05-13T08:49:40Z</time>
      </trkpt>
      <trkpt lat="45.8591" lon="4.82387">
        <ele>359</ele>
        <time>2012-05-13T08:49:44Z</time>
      </trkpt>
      <trkpt lat="45.8591" lon="4.82388">
        <ele>359</ele>
        <time>2012-05-13T08:49:45Z</time>
      </trkpt>
      <trkpt lat="45.85913" lon="4.82388">
        <ele>359</ele>
        <time>2012-05-13T08:49:52Z</time>
      </trkpt>
      <trkpt lat="45.85916" lon="4.82381">
        <ele>360</ele>
        <time>2012-05-13T08:50:41Z</time>
      </trkpt>
      <trkpt lat="45.85917" lon="4.82377">
        <ele>360</ele>
        <time>2012-05-13T08:50:45Z</time>
      </trkpt>
      <trkpt lat="45.85913" lon="4.82371">
        <ele>360</ele>
        <time>2012-05-13T08:50:48Z</time>
      </trkpt>
      <trkpt lat="45.85912" lon="4.82369">
        <ele>360</ele>
        <time>2012-05-13T08:50:49Z</time>
      </trkpt>
      <trkpt lat="45.85909" lon="4.82364">
        <ele>361</ele>
        <time>2012-05-13T08:50:51Z</time>
      </trkpt>
      <trkpt lat="45.85905" lon="4.82355">
        <ele>362</ele>
        <time>2012-05-13T08:50:55Z</time>
      </trkpt>
      <trkpt lat="45.859" lon="4.82342">
        <ele>363</ele>
        <time>2012-05-13T08:51:00Z</time>
      </trkpt>
      <trkpt lat="45.85894" lon="4.82328">
        <ele>368</ele>
        <time>2012-05-13T08:51:04Z</time>
      </trkpt>
      <trkpt lat="45.85891" lon="4.82319">
        <ele>368</ele>
        <time>2012-05-13T08:51:07Z</time>
      </trkpt>
      <trkpt lat="45.85887" lon="4.8231">
        <ele>368</ele>
        <time>2012-05-13T08:51:10Z</time>
      </trkpt>
      <trkpt lat="45.85882" lon="4.82295">
        <ele>368</ele>
        <time>2012-05-13T08:51:15Z</time>
      </trkpt>
      <trkpt lat="45.85881" lon="4.82291">
        <ele>368</ele>
        <time>2012-05-13T08:51:16Z</time>
      </trkpt>
      <trkpt lat="45.85876" lon="4.82274">
        <ele>369</ele>
        <time>2012-05-13T08:51:21Z</time>
      </trkpt>
      <trkpt lat="45.85875" lon="4.82268">
        <ele>369</ele>
        <time>2012-05-13T08:51:23Z</time>
      </trkpt>
      <trkpt lat="45.85872" lon="4.82258">
        <ele>369</ele>
        <time>2012-05-13T08:51:26Z</time>
      </trkpt>
      <trkpt lat="45.85872" lon="4.82255">
        <ele>370</ele>
        <time>2012-05-13T08:51:28Z</time>
      </trkpt>
      <trkpt lat="45.85872" lon="4.82256">
        <ele>370</ele>
        <time>2012-05-13T08:51:30Z</time>
      </trkpt>
      <trkpt lat="45.85875" lon="4.82266">
        <ele>370</ele>
        <time>2012-05-13T08:51:34Z</time>
      </trkpt>
      <trkpt lat="45.85877" lon="4.82275">
        <ele>369</ele>
        <time>2012-05-13T08:51:37Z</time>
      </trkpt>
      <trkpt lat="45.85878" lon="4.82282">
        <ele>369</ele>
        <time>2012-05-13T08:51:39Z</time>
      </trkpt>
      <trkpt lat="45.85881" lon="4.82292">
        <ele>368</ele>
        <time>2012-05-13T08:51:42Z</time>
      </trkpt>
      <trkpt lat="45.85884" lon="4.82301">
        <ele>368</ele>
        <time>2012-05-13T08:51:45Z</time>
      </trkpt>
      <trkpt lat="45.85888" lon="4.82319">
        <ele>368</ele>
        <time>2012-05-13T08:51:50Z</time>
      </trkpt>
      <trkpt lat="45.85893" lon="4.82335">
        <ele>362</ele>
        <time>2012-05-13T08:51:54Z</time>
      </trkpt>
      <trkpt lat="45.85896" lon="4.82343">
        <ele>362</ele>
        <time>2012-05-13T08:51:56Z</time>
      </trkpt>
      <trkpt lat="45.85901" lon="4.82358">
        <ele>361</ele>
        <time>2012-05-13T08:52:00Z</time>
      </trkpt>
      <trkpt lat="45.85904" lon="4.82369">
        <ele>360</ele>
        <time>2012-05-13T08:52:03Z</time>
      </trkpt>
      <trkpt lat="45.85906" lon="4.82375">
        <ele>359</ele>
        <time>2012-05-13T08:52:05Z</time>
      </trkpt>
      <trkpt lat="45.85913" lon="4.82383">
        <ele>359</ele>
        <time>2012-05-13T08:52:10Z</time>
      </trkpt>
      <trkpt lat="45.85913" lon="4.82385">
        <ele>359</ele>
        <time>2012-05-13T08:52:13Z</time>
      </trkpt>
      <trkpt lat="45.85913" lon="4.82386">
        <ele>359</ele>
        <time>2012-05-13T08:52:14Z</time>
      </trkpt>
      <trkpt lat="45.85912" lon="4.82387">
        <ele>359</ele>
        <time>2012-05-13T08:52:37Z</time>
      </trkpt>
      <trkpt lat="45.85915" lon="4.82382">
        <ele>359</ele>
        <time>2012-05-13T08:53:13Z</time>
      </trkpt>
      <trkpt lat="45.85915" lon="4.8238">
        <ele>360</ele>
        <time>2012-05-13T08:53:14Z</time>
      </trkpt>
      <trkpt lat="45.85914" lon="4.82375">
        <ele>360</ele>
        <time>2012-05-13T08:53:17Z</time>
      </trkpt>
      <trkpt lat="45.8591" lon="4.82369">
        <ele>360</ele>
        <time>2012-05-13T08:53:20Z</time>
      </trkpt>
      <trkpt lat="45.85907" lon="4.82363">
        <ele>361</ele>
        <time>2012-05-13T08:53:22Z</time>
      </trkpt>
      <trkpt lat="45.85906" lon="4.8236">
        <ele>361</ele>
        <time>2012-05-13T08:53:23Z</time>
      </trkpt>
      <trkpt lat="45.85899" lon="4.82346">
        <ele>362</ele>
        <time>2012-05-13T08:53:27Z</time>
      </trkpt>
      <trkpt lat="45.85894" lon="4.82333">
        <ele>368</ele>
        <time>2012-05-13T08:53:31Z</time>
      </trkpt>
      <trkpt lat="45.8589" lon="4.82321">
        <ele>368</ele>
        <time>2012-05-13T08:53:35Z</time>
      </trkpt>
      <trkpt lat="45.85885" lon="4.82307">
        <ele>368</ele>
        <time>2012-05-13T08:53:40Z</time>
      </trkpt>
      <trkpt lat="45.85882" lon="4.82296">
        <ele>368</ele>
        <time>2012-05-13T08:53:43Z</time>
      </trkpt>
      <trkpt lat="45.85881" lon="4.8229">
        <ele>368</ele>
        <time>2012-05-13T08:53:45Z</time>
      </trkpt>
      <trkpt lat="45.8588" lon="4.82288">
        <ele>369</ele>
        <time>2012-05-13T08:53:46Z</time>
      </trkpt>
      <trkpt lat="45.85878" lon="4.82285">
        <ele>369</ele>
        <time>2012-05-13T08:53:49Z</time>
      </trkpt>
      <trkpt lat="45.85878" lon="4.82288">
        <ele>368</ele>
        <time>2012-05-13T08:53:56Z</time>
      </trkpt>
      <trkpt lat="45.85881" lon="4.82295">
        <ele>368</ele>
        <time>2012-05-13T08:53:59Z</time>
      </trkpt>
      <trkpt lat="45.85883" lon="4.82304">
        <ele>368</ele>
        <time>2012-05-13T08:54:02Z</time>
      </trkpt>
      <trkpt lat="45.85886" lon="4.8232">
        <ele>367</ele>
        <time>2012-05-13T08:54:07Z</time>
      </trkpt>
      <trkpt lat="45.85887" lon="4.82322">
        <ele>367</ele>
        <time>2012-05-13T08:54:08Z</time>
      </trkpt>
      <trkpt lat="45.85891" lon="4.82337">
        <ele>361</ele>
        <time>2012-05-13T08:54:13Z</time>
      </trkpt>
      <trkpt lat="45.85892" lon="4.8234">
        <ele>361</ele>
        <time>2012-05-13T08:54:14Z</time>
      </trkpt>
      <trkpt lat="45.85893" lon="4.82347">
        <ele>361</ele>
        <time>2012-05-13T08:54:16Z</time>
      </trkpt>
      <trkpt lat="45.85894" lon="4.82351">
        <ele>361</ele>
        <time>2012-05-13T08:54:17Z</time>
      </trkpt>
      <trkpt lat="45.85901" lon="4.8237">
        <ele>359</ele>
        <time>2012-05-13T08:54:23Z</time>
      </trkpt>
      <trkpt lat="45.85903" lon="4.82373">
        <ele>359</ele>
        <time>2012-05-13T08:54:24Z</time>
      </trkpt>
      <trkpt lat="45.85906" lon="4.82379">
        <ele>359</ele>
        <time>2012-05-13T08:54:27Z</time>
      </trkpt>
      <trkpt lat="45.85907" lon="4.82381">
        <ele>359</ele>
        <time>2012-05-13T08:54:29Z</time>
      </trkpt>
      <trkpt lat="45.85911" lon="4.82382">
        <ele>359</ele>
        <time>2012-05-13T08:54:32Z</time>
      </trkpt>
      <trkpt lat="45.85914" lon="4.82385">
        <ele>359</ele>
        <time>2012-05-13T08:54:43Z</time>
      </trkpt>
      <trkpt lat="45.85915" lon="4.82384">
        <ele>359</ele>
        <time>2012-05-13T08:54:52Z</time>
      </trkpt>
      <trkpt lat="45.85915" lon="4.82382">
        <ele>359</ele>
        <time>2012-05-13T08:54:58Z</time>
      </trkpt>
      <trkpt lat="45.85919" lon="4.82383">
        <ele>367</ele>
        <time>2012-05-13T08:55:07Z</time>
      </trkpt>
      <trkpt lat="45.8592" lon="4.82385">
        <ele>366</ele>
        <time>2012-05-13T08:55:08Z</time>
      </trkpt>
      <trkpt lat="45.85927" lon="4.82392">
        <ele>366</ele>
        <time>2012-05-13T08:55:11Z</time>
      </trkpt>
      <trkpt lat="45.85936" lon="4.82402">
        <ele>365</ele>
        <time>2012-05-13T08:55:16Z</time>
      </trkpt>
      <trkpt lat="45.85945" lon="4.82409">
        <ele>366</ele>
        <time>2012-05-13T08:55:21Z</time>
      </trkpt>
      <trkpt lat="45.85954" lon="4.82413">
        <ele>366</ele>
        <time>2012-05-13T08:55:25Z</time>
      </trkpt>
      <trkpt lat="45.8596" lon="4.82414">
        <ele>366</ele>
        <time>2012-05-13T08:55:27Z</time>
      </trkpt>
      <trkpt lat="45.85972" lon="4.82417">
        <ele>366</ele>
        <time>2012-05-13T08:55:32Z</time>
      </trkpt>
      <trkpt lat="45.85975" lon="4.82417">
        <ele>360</ele>
        <time>2012-05-13T08:55:33Z</time>
      </trkpt>
      <trkpt lat="45.85987" lon="4.82419">
        <ele>362</ele>
        <time>2012-05-13T08:55:39Z</time>
      </trkpt>
      <trkpt lat="45.8599" lon="4.82419">
        <ele>362</ele>
        <time>2012-05-13T08:55:40Z</time>
      </trkpt>
      <trkpt lat="45.85992" lon="4.82421">
        <ele>362</ele>
        <time>2012-05-13T08:55:43Z</time>
      </trkpt>
      <trkpt lat="45.85994" lon="4.82421">
        <ele>362</ele>
        <time>2012-05-13T08:55:45Z</time>
      </trkpt>
      <trkpt lat="45.85998" lon="4.82421">
        <ele>363</ele>
        <time>2012-05-13T08:55:47Z</time>
      </trkpt>
      <trkpt lat="45.86001" lon="4.82421">
        <ele>363</ele>
        <time>2012-05-13T08:55:49Z</time>
      </trkpt>
      <trkpt lat="45.86006" lon="4.82422">
        <ele>363</ele>
        <time>2012-05-13T08:55:51Z</time>
      </trkpt>
      <trkpt lat="45.86008" lon="4.82423">
        <ele>363</ele>
        <time>2012-05-13T08:55:52Z</time>
      </trkpt>
      <trkpt lat="45.86022" lon="4.82424">
        <ele>362</ele>
        <time>2012-05-13T08:55:57Z</time>
      </trkpt>
      <trkpt lat="45.86027" lon="4.82426">
        <ele>361</ele>
        <time>2012-05-13T08:55:59Z</time>
      </trkpt>
      <trkpt lat="45.86032" lon="4.82425">
        <ele>361</ele>
        <time>2012-05-13T08:56:01Z</time>
      </trkpt>
      <trkpt lat="45.86047" lon="4.82428">
        <ele>361</ele>
        <time>2012-05-13T08:56:07Z</time>
      </trkpt>
      <trkpt lat="45.86062" lon="4.8243">
        <ele>361</ele>
        <time>2012-05-13T08:56:13Z</time>
      </trkpt>
      <trkpt lat="45.86068" lon="4.82429">
        <ele>362</ele>
        <time>2012-05-13T08:56:15Z</time>
      </trkpt>
      <trkpt lat="45.86079" lon="4.82428">
        <ele>362</ele>
        <time>2012-05-13T08:56:19Z</time>
      </trkpt>
      <trkpt lat="45.86087" lon="4.82425">
        <ele>361</ele>
        <time>2012-05-13T08:56:23Z</time>
      </trkpt>
      <trkpt lat="45.86093" lon="4.82425">
        <ele>361</ele>
        <time>2012-05-13T08:56:25Z</time>
      </trkpt>
      <trkpt lat="45.86104" lon="4.82424">
        <ele>359</ele>
        <time>2012-05-13T08:56:30Z</time>
      </trkpt>
      <trkpt lat="45.86107" lon="4.82424">
        <ele>359</ele>
        <time>2012-05-13T08:56:31Z</time>
      </trkpt>
      <trkpt lat="45.8611" lon="4.82424">
        <ele>359</ele>
        <time>2012-05-13T08:56:33Z</time>
      </trkpt>
      <trkpt lat="45.86112" lon="4.82424">
        <ele>358</ele>
        <time>2012-05-13T08:56:34Z</time>
      </trkpt>
      <trkpt lat="45.86119" lon="4.82425">
        <ele>358</ele>
        <time>2012-05-13T08:56:37Z</time>
      </trkpt>
      <trkpt lat="45.86125" lon="4.82427">
        <ele>357</ele>
        <time>2012-05-13T08:56:40Z</time>
      </trkpt>
      <trkpt lat="45.86139" lon="4.82431">
        <ele>356</ele>
        <time>2012-05-13T08:56:46Z</time>
      </trkpt>
      <trkpt lat="45.86144" lon="4.82432">
        <ele>356</ele>
        <time>2012-05-13T08:56:48Z</time>
      </trkpt>
      <trkpt lat="45.86155" lon="4.82433">
        <ele>356</ele>
        <time>2012-05-13T08:56:53Z</time>
      </trkpt>
      <trkpt lat="45.86163" lon="4.82434">
        <ele>356</ele>
        <time>2012-05-13T08:56:56Z</time>
      </trkpt>
      <trkpt lat="45.86165" lon="4.82434">
        <ele>356</ele>
        <time>2012-05-13T08:56:57Z</time>
      </trkpt>
      <trkpt lat="45.8617" lon="4.82433">
        <ele>351</ele>
        <time>2012-05-13T08:56:59Z</time>
      </trkpt>
      <trkpt lat="45.86175" lon="4.82433">
        <ele>351</ele>
        <time>2012-05-13T08:57:01Z</time>
      </trkpt>
      <trkpt lat="45.86182" lon="4.82433">
        <ele>350</ele>
        <time>2012-05-13T08:57:05Z</time>
      </trkpt>
      <trkpt lat="45.86187" lon="4.82431">
        <ele>350</ele>
        <time>2012-05-13T08:57:07Z</time>
      </trkpt>
      <trkpt lat="45.862" lon="4.82431">
        <ele>348</ele>
        <time>2012-05-13T08:57:12Z</time>
      </trkpt>
      <trkpt lat="45.86211" lon="4.82429">
        <ele>347</ele>
        <time>2012-05-13T08:57:17Z</time>
      </trkpt>
      <trkpt lat="45.86218" lon="4.82427">
        <ele>347</ele>
        <time>2012-05-13T08:57:21Z</time>
      </trkpt>
      <trkpt lat="45.8623" lon="4.82424">
        <ele>346</ele>
        <time>2012-05-13T08:57:26Z</time>
      </trkpt>
      <trkpt lat="45.86238" lon="4.82422">
        <ele>345</ele>
        <time>2012-05-13T08:57:29Z</time>
      </trkpt>
      <trkpt lat="45.86243" lon="4.8242">
        <ele>345</ele>
        <time>2012-05-13T08:57:31Z</time>
      </trkpt>
      <trkpt lat="45.86258" lon="4.82414">
        <ele>342</ele>
        <time>2012-05-13T08:57:37Z</time>
      </trkpt>
      <trkpt lat="45.86271" lon="4.82405">
        <ele>339</ele>
        <time>2012-05-13T08:57:43Z</time>
      </trkpt>
      <trkpt lat="45.86276" lon="4.82401">
        <ele>339</ele>
        <time>2012-05-13T08:57:45Z</time>
      </trkpt>
      <trkpt lat="45.86287" lon="4.8239">
        <ele>337</ele>
        <time>2012-05-13T08:57:50Z</time>
      </trkpt>
      <trkpt lat="45.86291" lon="4.82386">
        <ele>337</ele>
        <time>2012-05-13T08:57:52Z</time>
      </trkpt>
      <trkpt lat="45.86298" lon="4.82376">
        <ele>336</ele>
        <time>2012-05-13T08:57:56Z</time>
      </trkpt>
      <trkpt lat="45.86307" lon="4.82369">
        <ele>336</ele>
        <time>2012-05-13T08:58:01Z</time>
      </trkpt>
      <trkpt lat="45.86316" lon="4.82368">
        <ele>335</ele>
        <time>2012-05-13T08:58:05Z</time>
      </trkpt>
      <trkpt lat="45.86318" lon="4.82367">
        <ele>335</ele>
        <time>2012-05-13T08:58:06Z</time>
      </trkpt>
      <trkpt lat="45.86326" lon="4.82364">
        <ele>334</ele>
        <time>2012-05-13T08:58:10Z</time>
      </trkpt>
      <trkpt lat="45.86331" lon="4.82363">
        <ele>334</ele>
        <time>2012-05-13T08:58:12Z</time>
      </trkpt>
      <trkpt lat="45.86346" lon="4.82358">
        <ele>324</ele>
        <time>2012-05-13T08:58:18Z</time>
      </trkpt>
      <trkpt lat="45.86359" lon="4.82351">
        <ele>323</ele>
        <time>2012-05-13T08:58:23Z</time>
      </trkpt>
      <trkpt lat="45.86363" lon="4.82346">
        <ele>323</ele>
        <time>2012-05-13T08:58:25Z</time>
      </trkpt>
      <trkpt lat="45.8637" lon="4.82339">
        <ele>322</ele>
        <time>2012-05-13T08:58:28Z</time>
      </trkpt>
      <trkpt lat="45.8638" lon="4.82335">
        <ele>321</ele>
        <time>2012-05-13T08:58:32Z</time>
      </trkpt>
      <trkpt lat="45.86386" lon="4.82334">
        <ele>320</ele>
        <time>2012-05-13T08:58:34Z</time>
      </trkpt>
      <trkpt lat="45.86399" lon="4.8233">
        <ele>316</ele>
        <time>2012-05-13T08:58:38Z</time>
      </trkpt>
      <trkpt lat="45.86402" lon="4.8233">
        <ele>315</ele>
        <time>2012-05-13T08:58:39Z</time>
      </trkpt>
      <trkpt lat="45.86416" lon="4.82328">
        <ele>314</ele>
        <time>2012-05-13T08:58:44Z</time>
      </trkpt>
      <trkpt lat="45.86418" lon="4.82327">
        <ele>310</ele>
        <time>2012-05-13T08:58:45Z</time>
      </trkpt>
      <trkpt lat="45.86425" lon="4.82325">
        <ele>307</ele>
        <time>2012-05-13T08:58:49Z</time>
      </trkpt>
      <trkpt lat="45.86434" lon="4.82324">
        <ele>305</ele>
        <time>2012-05-13T08:58:54Z</time>
      </trkpt>
      <trkpt lat="45.86435" lon="4.82321">
        <ele>304</ele>
        <time>2012-05-13T08:58:55Z</time>
      </trkpt>
      <trkpt lat="45.86439" lon="4.82316">
        <ele>303</ele>
        <time>2012-05-13T08:58:58Z</time>
      </trkpt>
      <trkpt lat="45.86439" lon="4.82315">
        <ele>303</ele>
        <time>2012-05-13T08:58:59Z</time>
      </trkpt>
      <trkpt lat="45.86439" lon="4.82314">
        <ele>303</ele>
        <time>2012-05-13T08:59:00Z</time>
      </trkpt>
      <trkpt lat="45.86438" lon="4.82313">
        <ele>303</ele>
        <time>2012-05-13T08:59:02Z</time>
      </trkpt>
      <trkpt lat="45.86438" lon="4.82311">
        <ele>303</ele>
        <time>2012-05-13T08:59:04Z</time>
      </trkpt>
      <trkpt lat="45.86438" lon="4.8231">
        <ele>302</ele>
        <time>2012-05-13T08:59:05Z</time>
      </trkpt>
      <trkpt lat="45.86438" lon="4.82309">
        <ele>302</ele>
        <time>2012-05-13T08:59:07Z</time>
      </trkpt>
      <trkpt lat="45.86438" lon="4.82301">
        <ele>302</ele>
        <time>2012-05-13T08:59:17Z</time>
      </trkpt>
      <trkpt lat="45.86435" lon="4.82295">
        <ele>302</ele>
        <time>2012-05-13T08:59:20Z</time>
      </trkpt>
      <trkpt lat="45.86432" lon="4.82289">
        <ele>302</ele>
        <time>2012-05-13T08:59:23Z</time>
      </trkpt>
      <trkpt lat="45.86424" lon="4.8228">
        <ele>302</ele>
        <time>2012-05-13T08:59:28Z</time>
      </trkpt>
      <trkpt lat="45.86422" lon="4.82278">
        <ele>302</ele>
        <time>2012-05-13T08:59:29Z</time>
      </trkpt>
      <trkpt lat="45.86413" lon="4.82268">
        <ele>312</ele>
        <time>2012-05-13T08:59:34Z</time>
      </trkpt>
      <trkpt lat="45.86407" lon="4.82263">
        <ele>312</ele>
        <time>2012-05-13T08:59:37Z</time>
      </trkpt>
      <trkpt lat="45.86404" lon="4.8226">
        <ele>312</ele>
        <time>2012-05-13T08:59:39Z</time>
      </trkpt>
      <trkpt lat="45.86391" lon="4.82251">
        <ele>314</ele>
        <time>2012-05-13T08:59:45Z</time>
      </trkpt>
      <trkpt lat="45.86378" lon="4.82241">
        <ele>314</ele>
        <time>2012-05-13T08:59:51Z</time>
      </trkpt>
      <trkpt lat="45.86374" lon="4.82237">
        <ele>314</ele>
        <time>2012-05-13T08:59:53Z</time>
      </trkpt>
      <trkpt lat="45.86369" lon="4.82235">
        <ele>315</ele>
        <time>2012-05-13T08:59:55Z</time>
      </trkpt>
      <trkpt lat="45.86367" lon="4.82233">
        <ele>315</ele>
        <time>2012-05-13T08:59:56Z</time>
      </trkpt>
      <trkpt lat="45.86361" lon="4.82218">
        <ele>315</ele>
        <time>2012-05-13T09:00:01Z</time>
      </trkpt>
      <trkpt lat="45.86361" lon="4.82207">
        <ele>315</ele>
        <time>2012-05-13T09:00:04Z</time>
      </trkpt>
      <trkpt lat="45.86361" lon="4.82199">
        <ele>315</ele>
        <time>2012-05-13T09:00:06Z</time>
      </trkpt>
      <trkpt lat="45.86361" lon="4.82195">
        <ele>315</ele>
        <time>2012-05-13T09:00:08Z</time>
      </trkpt>
      <trkpt lat="45.86359" lon="4.82194">
        <ele>316</ele>
        <time>2012-05-13T09:00:10Z</time>
      </trkpt>
      <trkpt lat="45.86358" lon="4.82192">
        <ele>316</ele>
        <time>2012-05-13T09:00:11Z</time>
      </trkpt>
      <trkpt lat="45.86354" lon="4.82188">
        <ele>317</ele>
        <time>2012-05-13T09:00:16Z</time>
      </trkpt>
      <trkpt lat="45.86348" lon="4.82186">
        <ele>318</ele>
        <time>2012-05-13T09:00:22Z</time>
      </trkpt>
      <trkpt lat="45.86348" lon="4.82185">
        <ele>318</ele>
        <time>2012-05-13T09:00:23Z</time>
      </trkpt>
      <trkpt lat="45.86342" lon="4.82182">
        <ele>319</ele>
        <time>2012-05-13T09:00:28Z</time>
      </trkpt>
      <trkpt lat="45.8634" lon="4.82171">
        <ele>321</ele>
        <time>2012-05-13T09:00:35Z</time>
      </trkpt>
      <trkpt lat="45.86339" lon="4.8216">
        <ele>320</ele>
        <time>2012-05-13T09:00:40Z</time>
      </trkpt>
      <trkpt lat="45.86338" lon="4.82157">
        <ele>320</ele>
        <time>2012-05-13T09:00:42Z</time>
      </trkpt>
      <trkpt lat="45.86338" lon="4.82156">
        <ele>319</ele>
        <time>2012-05-13T09:00:43Z</time>
      </trkpt>
      <trkpt lat="45.86337" lon="4.82151">
        <ele>318</ele>
        <time>2012-05-13T09:00:47Z</time>
      </trkpt>
      <trkpt lat="45.86337" lon="4.82146">
        <ele>317</ele>
        <time>2012-05-13T09:00:50Z</time>
      </trkpt>
      <trkpt lat="45.86336" lon="4.82145">
        <ele>317</ele>
        <time>2012-05-13T09:00:51Z</time>
      </trkpt>
      <trkpt lat="45.86335" lon="4.82143">
        <ele>317</ele>
        <time>2012-05-13T09:00:53Z</time>
      </trkpt>
      <trkpt lat="45.86333" lon="4.82141">
        <ele>317</ele>
        <time>2012-05-13T09:00:55Z</time>
      </trkpt>
      <trkpt lat="45.86331" lon="4.82138">
        <ele>327</ele>
        <time>2012-05-13T09:00:57Z</time>
      </trkpt>
      <trkpt lat="45.8633" lon="4.82133">
        <ele>327</ele>
        <time>2012-05-13T09:00:59Z</time>
      </trkpt>
      <trkpt lat="45.8633" lon="4.82132">
        <ele>327</ele>
        <time>2012-05-13T09:01:00Z</time>
      </trkpt>
      <trkpt lat="45.86329" lon="4.8213">
        <ele>327</ele>
        <time>2012-05-13T09:01:01Z</time>
      </trkpt>
      <trkpt lat="45.86332" lon="4.82122">
        <ele>326</ele>
        <time>2012-05-13T09:01:06Z</time>
      </trkpt>
      <trkpt lat="45.86335" lon="4.82117">
        <ele>315</ele>
        <time>2012-05-13T09:01:08Z</time>
      </trkpt>
      <trkpt lat="45.86336" lon="4.82115">
        <ele>315</ele>
        <time>2012-05-13T09:01:09Z</time>
      </trkpt>
      <trkpt lat="45.86338" lon="4.82113">
        <ele>315</ele>
        <time>2012-05-13T09:01:10Z</time>
      </trkpt>
      <trkpt lat="45.86339" lon="4.82111">
        <ele>314</ele>
        <time>2012-05-13T09:01:11Z</time>
      </trkpt>
      <trkpt lat="45.86342" lon="4.82096">
        <ele>315</ele>
        <time>2012-05-13T09:01:16Z</time>
      </trkpt>
      <trkpt lat="45.86344" lon="4.82089">
        <ele>315</ele>
        <time>2012-05-13T09:01:18Z</time>
      </trkpt>
      <trkpt lat="45.86345" lon="4.8208">
        <ele>313</ele>
        <time>2012-05-13T09:01:20Z</time>
      </trkpt>
      <trkpt lat="45.86348" lon="4.8207">
        <ele>310</ele>
        <time>2012-05-13T09:01:24Z</time>
      </trkpt>
      <trkpt lat="45.86352" lon="4.82063">
        <ele>308</ele>
        <time>2012-05-13T09:01:27Z</time>
      </trkpt>
      <trkpt lat="45.86354" lon="4.8206">
        <ele>307</ele>
        <time>2012-05-13T09:01:28Z</time>
      </trkpt>
      <trkpt lat="45.86355" lon="4.82057">
        <ele>307</ele>
        <time>2012-05-13T09:01:29Z</time>
      </trkpt>
      <trkpt lat="45.86357" lon="4.82048">
        <ele>306</ele>
        <time>2012-05-13T09:01:32Z</time>
      </trkpt>
      <trkpt lat="45.86357" lon="4.82038">
        <ele>305</ele>
        <time>2012-05-13T09:01:35Z</time>
      </trkpt>
      <trkpt lat="45.86359" lon="4.82031">
        <ele>304</ele>
        <time>2012-05-13T09:01:37Z</time>
      </trkpt>
      <trkpt lat="45.86362" lon="4.82028">
        <ele>304</ele>
        <time>2012-05-13T09:01:38Z</time>
      </trkpt>
      <trkpt lat="45.86366" lon="4.82019">
        <ele>303</ele>
        <time>2012-05-13T09:01:41Z</time>
      </trkpt>
      <trkpt lat="45.86366" lon="4.82016">
        <ele>303</ele>
        <time>2012-05-13T09:01:42Z</time>
      </trkpt>
      <trkpt lat="45.8637" lon="4.82006">
        <ele>302</ele>
        <time>2012-05-13T09:01:46Z</time>
      </trkpt>
      <trkpt lat="45.8637" lon="4.82002">
        <ele>302</ele>
        <time>2012-05-13T09:01:49Z</time>
      </trkpt>
      <trkpt lat="45.86369" lon="4.82">
        <ele>296</ele>
        <time>2012-05-13T09:01:51Z</time>
      </trkpt>
      <trkpt lat="45.86368" lon="4.82003">
        <ele>302</ele>
        <time>2012-05-13T09:01:55Z</time>
      </trkpt>
      <trkpt lat="45.86367" lon="4.82003">
        <ele>302</ele>
        <time>2012-05-13T09:02:01Z</time>
      </trkpt>
      <trkpt lat="45.8637" lon="4.82003">
        <ele>302</ele>
        <time>2012-05-13T09:02:04Z</time>
      </trkpt>
      <trkpt lat="45.86371" lon="4.82003">
        <ele>302</ele>
        <time>2012-05-13T09:02:05Z</time>
      </trkpt>
      <trkpt lat="45.86375" lon="4.82004">
        <ele>301</ele>
        <time>2012-05-13T09:02:07Z</time>
      </trkpt>
      <trkpt lat="45.86386" lon="4.82007">
        <ele>300</ele>
        <time>2012-05-13T09:02:11Z</time>
      </trkpt>
      <trkpt lat="45.86389" lon="4.82008">
        <ele>300</ele>
        <time>2012-05-13T09:02:12Z</time>
      </trkpt>
      <trkpt lat="45.864" lon="4.82011">
        <ele>298</ele>
        <time>2012-05-13T09:02:16Z</time>
      </trkpt>
      <trkpt lat="45.86408" lon="4.82012">
        <ele>296</ele>
        <time>2012-05-13T09:02:19Z</time>
      </trkpt>
      <trkpt lat="45.86416" lon="4.82013">
        <ele>296</ele>
        <time>2012-05-13T09:02:22Z</time>
      </trkpt>
      <trkpt lat="45.86426" lon="4.82017">
        <ele>290</ele>
        <time>2012-05-13T09:02:26Z</time>
      </trkpt>
      <trkpt lat="45.86439" lon="4.82018">
        <ele>290</ele>
        <time>2012-05-13T09:02:31Z</time>
      </trkpt>
      <trkpt lat="45.86445" lon="4.8202">
        <ele>289</ele>
        <time>2012-05-13T09:02:33Z</time>
      </trkpt>
      <trkpt lat="45.86455" lon="4.82025">
        <ele>289</ele>
        <time>2012-05-13T09:02:37Z</time>
      </trkpt>
      <trkpt lat="45.86463" lon="4.82027">
        <ele>288</ele>
        <time>2012-05-13T09:02:40Z</time>
      </trkpt>
      <trkpt lat="45.86468" lon="4.82028">
        <ele>287</ele>
        <time>2012-05-13T09:02:42Z</time>
      </trkpt>
      <trkpt lat="45.86481" lon="4.82031">
        <ele>287</ele>
        <time>2012-05-13T09:02:47Z</time>
      </trkpt>
      <trkpt lat="45.86483" lon="4.8203">
        <ele>286</ele>
        <time>2012-05-13T09:02:48Z</time>
      </trkpt>
      <trkpt lat="45.86483" lon="4.82025">
        <ele>286</ele>
        <time>2012-05-13T09:02:51Z</time>
      </trkpt>
      <trkpt lat="45.86485" lon="4.82014">
        <ele>284</ele>
        <time>2012-05-13T09:02:55Z</time>
      </trkpt>
      <trkpt lat="45.86486" lon="4.82006">
        <ele>283</ele>
        <time>2012-05-13T09:02:58Z</time>
      </trkpt>
      <trkpt lat="45.86485" lon="4.82003">
        <ele>283</ele>
        <time>2012-05-13T09:02:59Z</time>
      </trkpt>
      <trkpt lat="45.86485" lon="4.81999">
        <ele>281</ele>
        <time>2012-05-13T09:03:00Z</time>
      </trkpt>
      <trkpt lat="45.8649" lon="4.81982">
        <ele>281</ele>
        <time>2012-05-13T09:03:04Z</time>
      </trkpt>
      <trkpt lat="45.86494" lon="4.81971">
        <ele>282</ele>
        <time>2012-05-13T09:03:06Z</time>
      </trkpt>
      <trkpt lat="45.86498" lon="4.81964">
        <ele>283</ele>
        <time>2012-05-13T09:03:08Z</time>
      </trkpt>
      <trkpt lat="45.86499" lon="4.81961">
        <ele>283</ele>
        <time>2012-05-13T09:03:11Z</time>
      </trkpt>
      <trkpt lat="45.86499" lon="4.81955">
        <ele>283</ele>
        <time>2012-05-13T09:03:15Z</time>
      </trkpt>
      <trkpt lat="45.86501" lon="4.81951">
        <ele>278</ele>
        <time>2012-05-13T09:03:17Z</time>
      </trkpt>
      <trkpt lat="45.86503" lon="4.81951">
        <ele>278</ele>
        <time>2012-05-13T09:03:18Z</time>
      </trkpt>
      <trkpt lat="45.86505" lon="4.81953">
        <ele>278</ele>
        <time>2012-05-13T09:03:21Z</time>
      </trkpt>
      <trkpt lat="45.86508" lon="4.81952">
        <ele>278</ele>
        <time>2012-05-13T09:03:24Z</time>
      </trkpt>
      <trkpt lat="45.8651" lon="4.81951">
        <ele>278</ele>
        <time>2012-05-13T09:03:28Z</time>
      </trkpt>
      <trkpt lat="45.86509" lon="4.81951">
        <ele>278</ele>
        <time>2012-05-13T09:03:32Z</time>
      </trkpt>
      <trkpt lat="45.86505" lon="4.81952">
        <ele>278</ele>
        <time>2012-05-13T09:03:46Z</time>
      </trkpt>
      <trkpt lat="45.86499" lon="4.81956">
        <ele>283</ele>
        <time>2012-05-13T09:03:54Z</time>
      </trkpt>
      <trkpt lat="45.86498" lon="4.81957">
        <ele>283</ele>
        <time>2012-05-13T09:03:59Z</time>
      </trkpt>
      <trkpt lat="45.86496" lon="4.81959">
        <ele>283</ele>
        <time>2012-05-13T09:04:01Z</time>
      </trkpt>
      <trkpt lat="45.86489" lon="4.81959">
        <ele>283</ele>
        <time>2012-05-13T09:04:05Z</time>
      </trkpt>
      <trkpt lat="45.86487" lon="4.81957">
        <ele>283</ele>
        <time>2012-05-13T09:04:06Z</time>
      </trkpt>
      <trkpt lat="45.86479" lon="4.81951">
        <ele>284</ele>
        <time>2012-05-13T09:04:10Z</time>
      </trkpt>
      <trkpt lat="45.86472" lon="4.81944">
        <ele>284</ele>
        <time>2012-05-13T09:04:13Z</time>
      </trkpt>
      <trkpt lat="45.86469" lon="4.81942">
        <ele>284</ele>
        <time>2012-05-13T09:04:15Z</time>
      </trkpt>
      <trkpt lat="45.86463" lon="4.8194">
        <ele>284</ele>
        <time>2012-05-13T09:04:17Z</time>
      </trkpt>
      <trkpt lat="45.86455" lon="4.81937">
        <ele>285</ele>
        <time>2012-05-13T09:04:20Z</time>
      </trkpt>
      <trkpt lat="45.86446" lon="4.81933">
        <ele>285</ele>
        <time>2012-05-13T09:04:25Z</time>
      </trkpt>
      <trkpt lat="45.86438" lon="4.8193">
        <ele>285</ele>
        <time>2012-05-13T09:04:29Z</time>
      </trkpt>
      <trkpt lat="45.86436" lon="4.81929">
        <ele>285</ele>
        <time>2012-05-13T09:04:30Z</time>
      </trkpt>
      <trkpt lat="45.86432" lon="4.81926">
        <ele>285</ele>
        <time>2012-05-13T09:04:32Z</time>
      </trkpt>
      <trkpt lat="45.86426" lon="4.81918">
        <ele>286</ele>
        <time>2012-05-13T09:04:35Z</time>
      </trkpt>
      <trkpt lat="45.86424" lon="4.81915">
        <ele>287</ele>
        <time>2012-05-13T09:04:36Z</time>
      </trkpt>
      <trkpt lat="45.86422" lon="4.81912">
        <ele>287</ele>
        <time>2012-05-13T09:04:37Z</time>
      </trkpt>
      <trkpt lat="45.8642" lon="4.81908">
        <ele>288</ele>
        <time>2012-05-13T09:04:39Z</time>
      </trkpt>
      <trkpt lat="45.86413" lon="4.81903">
        <ele>290</ele>
        <time>2012-05-13T09:04:44Z</time>
      </trkpt>
      <trkpt lat="45.86413" lon="4.81901">
        <ele>290</ele>
        <time>2012-05-13T09:04:45Z</time>
      </trkpt>
      <trkpt lat="45.86411" lon="4.81896">
        <ele>291</ele>
        <time>2012-05-13T09:04:52Z</time>
      </trkpt>
      <trkpt lat="45.8641" lon="4.81894">
        <ele>291</ele>
        <time>2012-05-13T09:04:56Z</time>
      </trkpt>
      <trkpt lat="45.86407" lon="4.81893">
        <ele>291</ele>
        <time>2012-05-13T09:05:07Z</time>
      </trkpt>
      <trkpt lat="45.86407" lon="4.81893">
        <ele>291</ele>
        <time>2012-05-13T09:05:08Z</time>
      </trkpt>
      <trkpt lat="45.86403" lon="4.81888">
        <ele>292</ele>
        <time>2012-05-13T09:05:11Z</time>
      </trkpt>
      <trkpt lat="45.86402" lon="4.81887">
        <ele>292</ele>
        <time>2012-05-13T09:05:12Z</time>
      </trkpt>
      <trkpt lat="45.864" lon="4.81883">
        <ele>293</ele>
        <time>2012-05-13T09:05:15Z</time>
      </trkpt>
      <trkpt lat="45.86397" lon="4.81878">
        <ele>293</ele>
        <time>2012-05-13T09:05:18Z</time>
      </trkpt>
      <trkpt lat="45.86396" lon="4.81876">
        <ele>293</ele>
        <time>2012-05-13T09:05:19Z</time>
      </trkpt>
      <trkpt lat="45.86391" lon="4.81869">
        <ele>294</ele>
        <time>2012-05-13T09:05:25Z</time>
      </trkpt>
      <trkpt lat="45.8639" lon="4.81863">
        <ele>294</ele>
        <time>2012-05-13T09:05:29Z</time>
      </trkpt>
      <trkpt lat="45.86388" lon="4.81859">
        <ele>294</ele>
        <time>2012-05-13T09:05:32Z</time>
      </trkpt>
      <trkpt lat="45.86385" lon="4.81856">
        <ele>294</ele>
        <time>2012-05-13T09:05:36Z</time>
      </trkpt>
      <trkpt lat="45.86385" lon="4.81855">
        <ele>294</ele>
        <time>2012-05-13T09:05:38Z</time>
      </trkpt>
      <trkpt lat="45.86382" lon="4.81853">
        <ele>294</ele>
        <time>2012-05-13T09:05:46Z</time>
      </trkpt>
      <trkpt lat="45.86379" lon="4.81852">
        <ele>294</ele>
        <time>2012-05-13T09:05:50Z</time>
      </trkpt>
      <trkpt lat="45.8638" lon="4.81847">
        <ele>295</ele>
        <time>2012-05-13T09:06:30Z</time>
      </trkpt>
      <trkpt lat="45.86378" lon="4.81851">
        <ele>294</ele>
        <time>2012-05-13T09:06:46Z</time>
      </trkpt>
      <trkpt lat="45.86378" lon="4.81854">
        <ele>294</ele>
        <time>2012-05-13T09:06:48Z</time>
      </trkpt>
      <trkpt lat="45.86378" lon="4.81857">
        <ele>294</ele>
        <time>2012-05-13T09:06:51Z</time>
      </trkpt>
      <trkpt lat="45.86378" lon="4.81857">
        <ele>294</ele>
        <time>2012-05-13T09:06:54Z</time>
      </trkpt>
      <trkpt lat="45.8638" lon="4.81856">
        <ele>294</ele>
        <time>2012-05-13T09:07:02Z</time>
      </trkpt>
      <trkpt lat="45.86384" lon="4.81852">
        <ele>294</ele>
        <time>2012-05-13T09:08:00Z</time>
      </trkpt>
      <trkpt lat="45.86384" lon="4.81847">
        <ele>295</ele>
        <time>2012-05-13T09:08:03Z</time>
      </trkpt>
      <trkpt lat="45.86388" lon="4.81842">
        <ele>295</ele>
        <time>2012-05-13T09:08:07Z</time>
      </trkpt>
      <trkpt lat="45.86389" lon="4.81841">
        <ele>295</ele>
        <time>2012-05-13T09:08:08Z</time>
      </trkpt>
      <trkpt lat="45.86393" lon="4.81836">
        <ele>296</ele>
        <time>2012-05-13T09:08:13Z</time>
      </trkpt>
      <trkpt lat="45.86397" lon="4.81829">
        <ele>301</ele>
        <time>2012-05-13T09:08:19Z</time>
      </trkpt>
      <trkpt lat="45.86397" lon="4.81828">
        <ele>301</ele>
        <time>2012-05-13T09:08:20Z</time>
      </trkpt>
      <trkpt lat="45.86397" lon="4.81826">
        <ele>301</ele>
        <time>2012-05-13T09:08:29Z</time>
      </trkpt>
      <trkpt lat="45.86399" lon="4.81828">
        <ele>301</ele>
        <time>2012-05-13T09:08:36Z</time>
      </trkpt>
      <trkpt lat="45.86396" lon="4.81825">
        <ele>301</ele>
        <time>2012-05-13T09:08:46Z</time>
      </trkpt>
      <trkpt lat="45.86395" lon="4.81826">
        <ele>301</ele>
        <time>2012-05-13T09:08:49Z</time>
      </trkpt>
      <trkpt lat="45.86394" lon="4.81833">
        <ele>301</ele>
        <time>2012-05-13T09:08:58Z</time>
      </trkpt>
      <trkpt lat="45.86394" lon="4.81837">
        <ele>296</ele>
        <time>2012-05-13T09:09:05Z</time>
      </trkpt>
      <trkpt lat="45.86392" lon="4.81839">
        <ele>295</ele>
        <time>2012-05-13T09:09:06Z</time>
      </trkpt>
      <trkpt lat="45.86391" lon="4.81842">
        <ele>295</ele>
        <time>2012-05-13T09:09:10Z</time>
      </trkpt>
      <trkpt lat="45.86387" lon="4.81852">
        <ele>295</ele>
        <time>2012-05-13T09:09:17Z</time>
      </trkpt>
      <trkpt lat="45.86386" lon="4.81856">
        <ele>294</ele>
        <time>2012-05-13T09:09:19Z</time>
      </trkpt>
      <trkpt lat="45.86384" lon="4.81858">
        <ele>294</ele>
        <time>2012-05-13T09:09:26Z</time>
      </trkpt>
      <trkpt lat="45.86385" lon="4.81856">
        <ele>294</ele>
        <time>2012-05-13T09:09:45Z</time>
      </trkpt>
      <trkpt lat="45.86382" lon="4.81839">
        <ele>295</ele>
        <time>2012-05-13T09:10:29Z</time>
      </trkpt>
      <trkpt lat="45.86383" lon="4.81838">
        <ele>295</ele>
        <time>2012-05-13T09:10:31Z</time>
      </trkpt>
      <trkpt lat="45.86386" lon="4.81836">
        <ele>295</ele>
        <time>2012-05-13T09:10:35Z</time>
      </trkpt>
      <trkpt lat="45.86389" lon="4.81834">
        <ele>295</ele>
        <time>2012-05-13T09:10:39Z</time>
      </trkpt>
      <trkpt lat="45.86393" lon="4.81831">
        <ele>301</ele>
        <time>2012-05-13T09:10:46Z</time>
      </trkpt>
      <trkpt lat="45.86396" lon="4.81827">
        <ele>301</ele>
        <time>2012-05-13T09:10:53Z</time>
      </trkpt>
      <trkpt lat="45.86398" lon="4.81826">
        <ele>301</ele>
        <time>2012-05-13T09:10:59Z</time>
      </trkpt>
      <trkpt lat="45.86398" lon="4.81828">
        <ele>301</ele>
        <time>2012-05-13T09:11:08Z</time>
      </trkpt>
      <trkpt lat="45.86397" lon="4.81828">
        <ele>301</ele>
        <time>2012-05-13T09:11:10Z</time>
      </trkpt>
      <trkpt lat="45.86395" lon="4.81829">
        <ele>301</ele>
        <time>2012-05-13T09:11:21Z</time>
      </trkpt>
      <trkpt lat="45.86393" lon="4.8184">
        <ele>295</ele>
        <time>2012-05-13T09:11:36Z</time>
      </trkpt>
      <trkpt lat="45.86391" lon="4.81842">
        <ele>295</ele>
        <time>2012-05-13T09:11:37Z</time>
      </trkpt>
      <trkpt lat="45.86387" lon="4.8185">
        <ele>295</ele>
        <time>2012-05-13T09:11:42Z</time>
      </trkpt>
      <trkpt lat="45.86385" lon="4.81853">
        <ele>294</ele>
        <time>2012-05-13T09:11:44Z</time>
      </trkpt>
      <trkpt lat="45.86385" lon="4.81854">
        <ele>294</ele>
        <time>2012-05-13T09:11:45Z</time>
      </trkpt>
      <trkpt lat="45.86381" lon="4.81857">
        <ele>294</ele>
        <time>2012-05-13T09:11:48Z</time>
      </trkpt>
      <trkpt lat="45.86379" lon="4.81859">
        <ele>294</ele>
        <time>2012-05-13T09:11:51Z</time>
      </trkpt>
      <trkpt lat="45.86377" lon="4.81861">
        <ele>294</ele>
        <time>2012-05-13T09:11:53Z</time>
      </trkpt>
      <trkpt lat="45.86377" lon="4.81862">
        <ele>294</ele>
        <time>2012-05-13T09:11:54Z</time>
      </trkpt>
      <trkpt lat="45.86378" lon="4.81861">
        <ele>294</ele>
        <time>2012-05-13T09:11:59Z</time>
      </trkpt>
      <trkpt lat="45.86379" lon="4.81866">
        <ele>294</ele>
        <time>2012-05-13T09:12:08Z</time>
      </trkpt>
      <trkpt lat="45.8638" lon="4.81867">
        <ele>294</ele>
        <time>2012-05-13T09:12:13Z</time>
      </trkpt>
      <trkpt lat="45.8638" lon="4.81866">
        <ele>294</ele>
        <time>2012-05-13T09:12:18Z</time>
      </trkpt>
      <trkpt lat="45.86383" lon="4.81864">
        <ele>294</ele>
        <time>2012-05-13T09:12:41Z</time>
      </trkpt>
      <trkpt lat="45.86384" lon="4.81864">
        <ele>294</ele>
        <time>2012-05-13T09:13:04Z</time>
      </trkpt>
      <trkpt lat="45.86381" lon="4.81861">
        <ele>294</ele>
        <time>2012-05-13T09:13:10Z</time>
      </trkpt>
      <trkpt lat="45.86386" lon="4.81855">
        <ele>294</ele>
        <time>2012-05-13T09:13:14Z</time>
      </trkpt>
      <trkpt lat="45.86387" lon="4.81854">
        <ele>294</ele>
        <time>2012-05-13T09:13:15Z</time>
      </trkpt>
      <trkpt lat="45.86388" lon="4.81852">
        <ele>295</ele>
        <time>2012-05-13T09:13:16Z</time>
      </trkpt>
      <trkpt lat="45.8639" lon="4.81846">
        <ele>295</ele>
        <time>2012-05-13T09:13:20Z</time>
      </trkpt>
      <trkpt lat="45.8639" lon="4.81845">
        <ele>295</ele>
        <time>2012-05-13T09:13:21Z</time>
      </trkpt>
      <trkpt lat="45.86393" lon="4.81843">
        <ele>295</ele>
        <time>2012-05-13T09:13:25Z</time>
      </trkpt>
      <trkpt lat="45.86393" lon="4.81841">
        <ele>295</ele>
        <time>2012-05-13T09:13:27Z</time>
      </trkpt>
      <trkpt lat="45.86394" lon="4.81839">
        <ele>296</ele>
        <time>2012-05-13T09:13:30Z</time>
      </trkpt>
      <trkpt lat="45.86395" lon="4.81835">
        <ele>296</ele>
        <time>2012-05-13T09:13:34Z</time>
      </trkpt>
      <trkpt lat="45.86396" lon="4.81834">
        <ele>296</ele>
        <time>2012-05-13T09:13:35Z</time>
      </trkpt>
      <trkpt lat="45.86397" lon="4.81833">
        <ele>296</ele>
        <time>2012-05-13T09:13:36Z</time>
      </trkpt>
      <trkpt lat="45.86398" lon="4.81834">
        <ele>296</ele>
        <time>2012-05-13T09:13:39Z</time>
      </trkpt>
      <trkpt lat="45.86398" lon="4.81831">
        <ele>301</ele>
        <time>2012-05-13T09:13:53Z</time>
      </trkpt>
      <trkpt lat="45.86397" lon="4.81829">
        <ele>301</ele>
        <time>2012-05-13T09:14:05Z</time>
      </trkpt>
      <trkpt lat="45.86398" lon="4.81832">
        <ele>301</ele>
        <time>2012-05-13T09:14:15Z</time>
      </trkpt>
      <trkpt lat="45.86388" lon="4.81848">
        <ele>295</ele>
        <time>2012-05-13T09:14:21Z</time>
      </trkpt>
      <trkpt lat="45.86387" lon="4.81854">
        <ele>295</ele>
        <time>2012-05-13T09:14:27Z</time>
      </trkpt>
      <trkpt lat="45.86382" lon="4.81861">
        <ele>294</ele>
        <time>2012-05-13T09:14:33Z</time>
      </trkpt>
      <trkpt lat="45.86381" lon="4.81861">
        <ele>294</ele>
        <time>2012-05-13T09:14:34Z</time>
      </trkpt>
      <trkpt lat="45.8638" lon="4.81859">
        <ele>294</ele>
        <time>2012-05-13T09:14:36Z</time>
      </trkpt>
      <trkpt lat="45.86381" lon="4.81857">
        <ele>294</ele>
        <time>2012-05-13T09:14:38Z</time>
      </trkpt>
      <trkpt lat="45.86381" lon="4.81852">
        <ele>294</ele>
        <time>2012-05-13T09:15:03Z</time>
      </trkpt>
      <trkpt lat="45.86382" lon="4.81852">
        <ele>294</ele>
        <time>2012-05-13T09:15:15Z</time>
      </trkpt>
      <trkpt lat="45.8638" lon="4.81852">
        <ele>294</ele>
        <time>2012-05-13T09:15:32Z</time>
      </trkpt>
      <trkpt lat="45.86382" lon="4.81851">
        <ele>294</ele>
        <time>2012-05-13T09:15:53Z</time>
      </trkpt>
      <trkpt lat="45.86381" lon="4.81852">
        <ele>294</ele>
        <time>2012-05-13T09:16:02Z</time>
      </trkpt>
      <trkpt lat="45.86381" lon="4.81853">
        <ele>294</ele>
        <time>2012-05-13T09:16:14Z</time>
      </trkpt>
      <trkpt lat="45.86383" lon="4.81851">
        <ele>294</ele>
        <time>2012-05-13T09:16:16Z</time>
      </trkpt>
      <trkpt lat="45.86385" lon="4.81848">
        <ele>295</ele>
        <time>2012-05-13T09:16:19Z</time>
      </trkpt>
      <trkpt lat="45.86386" lon="4.81845">
        <ele>295</ele>
        <time>2012-05-13T09:16:22Z</time>
      </trkpt>
      <trkpt lat="45.86388" lon="4.8184">
        <ele>295</ele>
        <time>2012-05-13T09:16:30Z</time>
      </trkpt>
      <trkpt lat="45.8639" lon="4.81836">
        <ele>295</ele>
        <time>2012-05-13T09:16:39Z</time>
      </trkpt>
      <trkpt lat="45.86392" lon="4.81834">
        <ele>296</ele>
        <time>2012-05-13T09:16:47Z</time>
      </trkpt>
      <trkpt lat="45.86393" lon="4.81833">
        <ele>301</ele>
        <time>2012-05-13T09:16:52Z</time>
      </trkpt>
      <trkpt lat="45.86396" lon="4.81828">
        <ele>301</ele>
        <time>2012-05-13T09:17:02Z</time>
      </trkpt>
      <trkpt lat="45.86398" lon="4.81826">
        <ele>301</ele>
        <time>2012-05-13T09:17:05Z</time>
      </trkpt>
      <trkpt lat="45.86401" lon="4.81819">
        <ele>301</ele>
        <time>2012-05-13T09:17:12Z</time>
      </trkpt>
      <trkpt lat="45.86404" lon="4.81815">
        <ele>301</ele>
        <time>2012-05-13T09:17:19Z</time>
      </trkpt>
      <trkpt lat="45.86407" lon="4.8181">
        <ele>302</ele>
        <time>2012-05-13T09:17:28Z</time>
      </trkpt>
      <trkpt lat="45.86408" lon="4.81808">
        <ele>302</ele>
        <time>2012-05-13T09:17:33Z</time>
      </trkpt>
      <trkpt lat="45.86409" lon="4.81806">
        <ele>302</ele>
        <time>2012-05-13T09:17:37Z</time>
      </trkpt>
      <trkpt lat="45.86412" lon="4.81801">
        <ele>303</ele>
        <time>2012-05-13T09:17:49Z</time>
      </trkpt>
      <trkpt lat="45.86412" lon="4.818">
        <ele>303</ele>
        <time>2012-05-13T09:17:50Z</time>
      </trkpt>
      <trkpt lat="45.86416" lon="4.8179">
        <ele>304</ele>
        <time>2012-05-13T09:18:07Z</time>
      </trkpt>
      <trkpt lat="45.86419" lon="4.81788">
        <ele>304</ele>
        <time>2012-05-13T09:18:14Z</time>
      </trkpt>
      <trkpt lat="45.8642" lon="4.81786">
        <ele>304</ele>
        <time>2012-05-13T09:18:17Z</time>
      </trkpt>
      <trkpt lat="45.86424" lon="4.81785">
        <ele>304</ele>
        <time>2012-05-13T09:18:23Z</time>
      </trkpt>
      <trkpt lat="45.86423" lon="4.81781">
        <ele>305</ele>
        <time>2012-05-13T09:18:28Z</time>
      </trkpt>
      <trkpt lat="45.86421" lon="4.81775">
        <ele>306</ele>
        <time>2012-05-13T09:18:33Z</time>
      </trkpt>
      <trkpt lat="45.86421" lon="4.81775">
        <ele>306</ele>
        <time>2012-05-13T09:18:58Z</time>
      </trkpt>
      <trkpt lat="45.86422" lon="4.81774">
        <ele>306</ele>
        <time>2012-05-13T09:19:02Z</time>
      </trkpt>
      <trkpt lat="45.86421" lon="4.81773">
        <ele>306</ele>
        <time>2012-05-13T09:19:15Z</time>
      </trkpt>
      <trkpt lat="45.86422" lon="4.8177">
        <ele>307</ele>
        <time>2012-05-13T09:19:36Z</time>
      </trkpt>
      <trkpt lat="45.86423" lon="4.81767">
        <ele>307</ele>
        <time>2012-05-13T09:20:58Z</time>
      </trkpt>
      <trkpt lat="45.86423" lon="4.81765">
        <ele>307</ele>
        <time>2012-05-13T09:21:06Z</time>
      </trkpt>
      <trkpt lat="45.86423" lon="4.81762">
        <ele>308</ele>
        <time>2012-05-13T09:21:09Z</time>
      </trkpt>
      <trkpt lat="45.86424" lon="4.81757">
        <ele>309</ele>
        <time>2012-05-13T09:21:13Z</time>
      </trkpt>
      <trkpt lat="45.86424" lon="4.81755">
        <ele>309</ele>
        <time>2012-05-13T09:21:15Z</time>
      </trkpt>
      <trkpt lat="45.86425" lon="4.81744">
        <ele>312</ele>
        <time>2012-05-13T09:21:21Z</time>
      </trkpt>
      <trkpt lat="45.86426" lon="4.8174">
        <ele>312</ele>
        <time>2012-05-13T09:21:23Z</time>
      </trkpt>
      <trkpt lat="45.86427" lon="4.81735">
        <ele>312</ele>
        <time>2012-05-13T09:21:25Z</time>
      </trkpt>
      <trkpt lat="45.86427" lon="4.81732">
        <ele>312</ele>
        <time>2012-05-13T09:21:26Z</time>
      </trkpt>
      <trkpt lat="45.86428" lon="4.81717">
        <ele>313</ele>
        <time>2012-05-13T09:21:32Z</time>
      </trkpt>
      <trkpt lat="45.86428" lon="4.81714">
        <ele>313</ele>
        <time>2012-05-13T09:21:33Z</time>
      </trkpt>
      <trkpt lat="45.86429" lon="4.81704">
        <ele>314</ele>
        <time>2012-05-13T09:21:37Z</time>
      </trkpt>
      <trkpt lat="45.86432" lon="4.81689">
        <ele>316</ele>
        <time>2012-05-13T09:21:42Z</time>
      </trkpt>
      <trkpt lat="45.86432" lon="4.81687">
        <ele>317</ele>
        <time>2012-05-13T09:21:43Z</time>
      </trkpt>
      <trkpt lat="45.86432" lon="4.81685">
        <ele>317</ele>
        <time>2012-05-13T09:21:44Z</time>
      </trkpt>
      <trkpt lat="45.86434" lon="4.81677">
        <ele>318</ele>
        <time>2012-05-13T09:21:48Z</time>
      </trkpt>
      <trkpt lat="45.86435" lon="4.81661">
        <ele>321</ele>
        <time>2012-05-13T09:21:53Z</time>
      </trkpt>
      <trkpt lat="45.86436" lon="4.81658">
        <ele>321</ele>
        <time>2012-05-13T09:21:54Z</time>
      </trkpt>
      <trkpt lat="45.86438" lon="4.8164">
        <ele>320</ele>
        <time>2012-05-13T09:22:01Z</time>
      </trkpt>
      <trkpt lat="45.86439" lon="4.81634">
        <ele>319</ele>
        <time>2012-05-13T09:22:04Z</time>
      </trkpt>
      <trkpt lat="45.86439" lon="4.81627">
        <ele>319</ele>
        <time>2012-05-13T09:22:07Z</time>
      </trkpt>
      <trkpt lat="45.86439" lon="4.81616">
        <ele>320</ele>
        <time>2012-05-13T09:22:14Z</time>
      </trkpt>
      <trkpt lat="45.86439" lon="4.81609">
        <ele>320</ele>
        <time>2012-05-13T09:22:18Z</time>
      </trkpt>
      <trkpt lat="45.86439" lon="4.81606">
        <ele>321</ele>
        <time>2012-05-13T09:22:19Z</time>
      </trkpt>
      <trkpt lat="45.86439" lon="4.81601">
        <ele>321</ele>
        <time>2012-05-13T09:22:21Z</time>
      </trkpt>
      <trkpt lat="45.86435" lon="4.81586">
        <ele>323</ele>
        <time>2012-05-13T09:22:29Z</time>
      </trkpt>
      <trkpt lat="45.86435" lon="4.81583">
        <ele>321</ele>
        <time>2012-05-13T09:22:32Z</time>
      </trkpt>
      <trkpt lat="45.86434" lon="4.81582">
        <ele>321</ele>
        <time>2012-05-13T09:22:33Z</time>
      </trkpt>
      <trkpt lat="45.86433" lon="4.81578">
        <ele>321</ele>
        <time>2012-05-13T09:22:36Z</time>
      </trkpt>
      <trkpt lat="45.86432" lon="4.81576">
        <ele>321</ele>
        <time>2012-05-13T09:22:38Z</time>
      </trkpt>
      <trkpt lat="45.86431" lon="4.81575">
        <ele>321</ele>
        <time>2012-05-13T09:22:39Z</time>
      </trkpt>
      <trkpt lat="45.86429" lon="4.81571">
        <ele>321</ele>
        <time>2012-05-13T09:22:42Z</time>
      </trkpt>
      <trkpt lat="45.86426" lon="4.81564">
        <ele>319</ele>
        <time>2012-05-13T09:22:48Z</time>
      </trkpt>
      <trkpt lat="45.86423" lon="4.8156">
        <ele>319</ele>
        <time>2012-05-13T09:22:56Z</time>
      </trkpt>
      <trkpt lat="45.86423" lon="4.81559">
        <ele>318</ele>
        <time>2012-05-13T09:22:57Z</time>
      </trkpt>
      <trkpt lat="45.8642" lon="4.81556">
        <ele>318</ele>
        <time>2012-05-13T09:23:10Z</time>
      </trkpt>
      <trkpt lat="45.86417" lon="4.81553">
        <ele>317</ele>
        <time>2012-05-13T09:23:13Z</time>
      </trkpt>
      <trkpt lat="45.86415" lon="4.81551">
        <ele>330</ele>
        <time>2012-05-13T09:23:16Z</time>
      </trkpt>
      <trkpt lat="45.86413" lon="4.81551">
        <ele>331</ele>
        <time>2012-05-13T09:23:25Z</time>
      </trkpt>
      <trkpt lat="45.86412" lon="4.81546">
        <ele>330</ele>
        <time>2012-05-13T09:23:29Z</time>
      </trkpt>
      <trkpt lat="45.86411" lon="4.81545">
        <ele>330</ele>
        <time>2012-05-13T09:23:30Z</time>
      </trkpt>
      <trkpt lat="45.86405" lon="4.81541">
        <ele>330</ele>
        <time>2012-05-13T09:23:37Z</time>
      </trkpt>
      <trkpt lat="45.86404" lon="4.81542">
        <ele>330</ele>
        <time>2012-05-13T09:23:38Z</time>
      </trkpt>
      <trkpt lat="45.86402" lon="4.8154">
        <ele>330</ele>
        <time>2012-05-13T09:23:44Z</time>
      </trkpt>
      <trkpt lat="45.86402" lon="4.81539">
        <ele>330</ele>
        <time>2012-05-13T09:23:45Z</time>
      </trkpt>
      <trkpt lat="45.86398" lon="4.81534">
        <ele>329</ele>
        <time>2012-05-13T09:23:49Z</time>
      </trkpt>
      <trkpt lat="45.86397" lon="4.81532">
        <ele>329</ele>
        <time>2012-05-13T09:23:50Z</time>
      </trkpt>
      <trkpt lat="45.8639" lon="4.81527">
        <ele>329</ele>
        <time>2012-05-13T09:23:54Z</time>
      </trkpt>
      <trkpt lat="45.86383" lon="4.81524">
        <ele>330</ele>
        <time>2012-05-13T09:23:58Z</time>
      </trkpt>
      <trkpt lat="45.86381" lon="4.81523">
        <ele>330</ele>
        <time>2012-05-13T09:23:59Z</time>
      </trkpt>
      <trkpt lat="45.8638" lon="4.81523">
        <ele>331</ele>
        <time>2012-05-13T09:24:00Z</time>
      </trkpt>
      <trkpt lat="45.86375" lon="4.8152">
        <ele>331</ele>
        <time>2012-05-13T09:24:03Z</time>
      </trkpt>
      <trkpt lat="45.86371" lon="4.81518">
        <ele>332</ele>
        <time>2012-05-13T09:24:05Z</time>
      </trkpt>
      <trkpt lat="45.86364" lon="4.81515">
        <ele>333</ele>
        <time>2012-05-13T09:24:08Z</time>
      </trkpt>
      <trkpt lat="45.86362" lon="4.81513">
        <ele>333</ele>
        <time>2012-05-13T09:24:09Z</time>
      </trkpt>
      <trkpt lat="45.86352" lon="4.81507">
        <ele>335</ele>
        <time>2012-05-13T09:24:13Z</time>
      </trkpt>
      <trkpt lat="45.86347" lon="4.81505">
        <ele>336</ele>
        <time>2012-05-13T09:24:15Z</time>
      </trkpt>
      <trkpt lat="45.86344" lon="4.81506">
        <ele>336</ele>
        <time>2012-05-13T09:24:16Z</time>
      </trkpt>
      <trkpt lat="45.86335" lon="4.81505">
        <ele>338</ele>
        <time>2012-05-13T09:24:19Z</time>
      </trkpt>
      <trkpt lat="45.86325" lon="4.81502">
        <ele>341</ele>
        <time>2012-05-13T09:24:23Z</time>
      </trkpt>
      <trkpt lat="45.86314" lon="4.81499">
        <ele>333</ele>
        <time>2012-05-13T09:24:28Z</time>
      </trkpt>
      <trkpt lat="45.86306" lon="4.81496">
        <ele>332</ele>
        <time>2012-05-13T09:24:32Z</time>
      </trkpt>
      <trkpt lat="45.86304" lon="4.81494">
        <ele>332</ele>
        <time>2012-05-13T09:24:33Z</time>
      </trkpt>
      <trkpt lat="45.86291" lon="4.81493">
        <ele>333</ele>
        <time>2012-05-13T09:24:38Z</time>
      </trkpt>
      <trkpt lat="45.86288" lon="4.81491">
        <ele>333</ele>
        <time>2012-05-13T09:24:40Z</time>
      </trkpt>
      <trkpt lat="45.86286" lon="4.8149">
        <ele>333</ele>
        <time>2012-05-13T09:24:41Z</time>
      </trkpt>
      <trkpt lat="45.86282" lon="4.81487">
        <ele>333</ele>
        <time>2012-05-13T09:24:44Z</time>
      </trkpt>
      <trkpt lat="45.86272" lon="4.81483">
        <ele>334</ele>
        <time>2012-05-13T09:24:49Z</time>
      </trkpt>
      <trkpt lat="45.8627" lon="4.81482">
        <ele>335</ele>
        <time>2012-05-13T09:24:50Z</time>
      </trkpt>
      <trkpt lat="45.8626" lon="4.81475">
        <ele>334</ele>
        <time>2012-05-13T09:24:55Z</time>
      </trkpt>
      <trkpt lat="45.86252" lon="4.81474">
        <ele>335</ele>
        <time>2012-05-13T09:24:58Z</time>
      </trkpt>
      <trkpt lat="45.86245" lon="4.81472">
        <ele>339</ele>
        <time>2012-05-13T09:25:01Z</time>
      </trkpt>
      <trkpt lat="45.86239" lon="4.81469">
        <ele>338</ele>
        <time>2012-05-13T09:25:04Z</time>
      </trkpt>
      <trkpt lat="45.86235" lon="4.81467">
        <ele>338</ele>
        <time>2012-05-13T09:25:06Z</time>
      </trkpt>
      <trkpt lat="45.86233" lon="4.81466">
        <ele>337</ele>
        <time>2012-05-13T09:25:07Z</time>
      </trkpt>
      <trkpt lat="45.86223" lon="4.81464">
        <ele>337</ele>
        <time>2012-05-13T09:25:11Z</time>
      </trkpt>
      <trkpt lat="45.86214" lon="4.8146">
        <ele>336</ele>
        <time>2012-05-13T09:25:15Z</time>
      </trkpt>
      <trkpt lat="45.86212" lon="4.81459">
        <ele>336</ele>
        <time>2012-05-13T09:25:16Z</time>
      </trkpt>
      <trkpt lat="45.86201" lon="4.81455">
        <ele>336</ele>
        <time>2012-05-13T09:25:21Z</time>
      </trkpt>
      <trkpt lat="45.86196" lon="4.81453">
        <ele>336</ele>
        <time>2012-05-13T09:25:23Z</time>
      </trkpt>
      <trkpt lat="45.86187" lon="4.81452">
        <ele>336</ele>
        <time>2012-05-13T09:25:26Z</time>
      </trkpt>
      <trkpt lat="45.86179" lon="4.81449">
        <ele>336</ele>
        <time>2012-05-13T09:25:29Z</time>
      </trkpt>
      <trkpt lat="45.86174" lon="4.81448">
        <ele>335</ele>
        <time>2012-05-13T09:25:31Z</time>
      </trkpt>
      <trkpt lat="45.86164" lon="4.81447">
        <ele>338</ele>
        <time>2012-05-13T09:25:34Z</time>
      </trkpt>
      <trkpt lat="45.86158" lon="4.81446">
        <ele>338</ele>
        <time>2012-05-13T09:25:36Z</time>
      </trkpt>
      <trkpt lat="45.86149" lon="4.81443">
        <ele>338</ele>
        <time>2012-05-13T09:25:40Z</time>
      </trkpt>
      <trkpt lat="45.86145" lon="4.81442">
        <ele>338</ele>
        <time>2012-05-13T09:25:42Z</time>
      </trkpt>
      <trkpt lat="45.8614" lon="4.81438">
        <ele>338</ele>
        <time>2012-05-13T09:25:45Z</time>
      </trkpt>
      <trkpt lat="45.86137" lon="4.81437">
        <ele>338</ele>
        <time>2012-05-13T09:25:46Z</time>
      </trkpt>
      <trkpt lat="45.86127" lon="4.81437">
        <ele>339</ele>
        <time>2012-05-13T09:25:50Z</time>
      </trkpt>
      <trkpt lat="45.86124" lon="4.81437">
        <ele>339</ele>
        <time>2012-05-13T09:25:51Z</time>
      </trkpt>
      <trkpt lat="45.86121" lon="4.81439">
        <ele>339</ele>
        <time>2012-05-13T09:25:52Z</time>
      </trkpt>
      <trkpt lat="45.86112" lon="4.8144">
        <ele>340</ele>
        <time>2012-05-13T09:25:56Z</time>
      </trkpt>
      <trkpt lat="45.86106" lon="4.81441">
        <ele>340</ele>
        <time>2012-05-13T09:25:59Z</time>
      </trkpt>
      <trkpt lat="45.86104" lon="4.81441">
        <ele>340</ele>
        <time>2012-05-13T09:26:00Z</time>
      </trkpt>
      <trkpt lat="45.86101" lon="4.81441">
        <ele>340</ele>
        <time>2012-05-13T09:26:01Z</time>
      </trkpt>
      <trkpt lat="45.86097" lon="4.81441">
        <ele>340</ele>
        <time>2012-05-13T09:26:03Z</time>
      </trkpt>
      <trkpt lat="45.86092" lon="4.8144">
        <ele>340</ele>
        <time>2012-05-13T09:26:06Z</time>
      </trkpt>
      <trkpt lat="45.86085" lon="4.81438">
        <ele>340</ele>
        <time>2012-05-13T09:26:10Z</time>
      </trkpt>
      <trkpt lat="45.86083" lon="4.81436">
        <ele>340</ele>
        <time>2012-05-13T09:26:11Z</time>
      </trkpt>
      <trkpt lat="45.86074" lon="4.81431">
        <ele>343</ele>
        <time>2012-05-13T09:26:16Z</time>
      </trkpt>
      <trkpt lat="45.86067" lon="4.8143">
        <ele>344</ele>
        <time>2012-05-13T09:26:21Z</time>
      </trkpt>
      <trkpt lat="45.86066" lon="4.81431">
        <ele>344</ele>
        <time>2012-05-13T09:26:22Z</time>
      </trkpt>
      <trkpt lat="45.86067" lon="4.81433">
        <ele>344</ele>
        <time>2012-05-13T09:26:24Z</time>
      </trkpt>
      <trkpt lat="45.86067" lon="4.81433">
        <ele>344</ele>
        <time>2012-05-13T09:26:25Z</time>
      </trkpt>
      <trkpt lat="45.86066" lon="4.81435">
        <ele>344</ele>
        <time>2012-05-13T09:26:29Z</time>
      </trkpt>
      <trkpt lat="45.8606" lon="4.81435">
        <ele>344</ele>
        <time>2012-05-13T09:26:36Z</time>
      </trkpt>
      <trkpt lat="45.86058" lon="4.81431">
        <ele>345</ele>
        <time>2012-05-13T09:26:54Z</time>
      </trkpt>
      <trkpt lat="45.86058" lon="4.81433">
        <ele>345</ele>
        <time>2012-05-13T09:27:01Z</time>
      </trkpt>
      <trkpt lat="45.86057" lon="4.81435">
        <ele>345</ele>
        <time>2012-05-13T09:27:06Z</time>
      </trkpt>
      <trkpt lat="45.86055" lon="4.81435">
        <ele>345</ele>
        <time>2012-05-13T09:27:41Z</time>
      </trkpt>
      <trkpt lat="45.86054" lon="4.81435">
        <ele>345</ele>
        <time>2012-05-13T09:27:42Z</time>
      </trkpt>
      <trkpt lat="45.86052" lon="4.81435">
        <ele>345</ele>
        <time>2012-05-13T09:27:43Z</time>
      </trkpt>
      <trkpt lat="45.86046" lon="4.81435">
        <ele>346</ele>
        <time>2012-05-13T09:27:48Z</time>
      </trkpt>
      <trkpt lat="45.86039" lon="4.8143">
        <ele>346</ele>
        <time>2012-05-13T09:27:53Z</time>
      </trkpt>
      <trkpt lat="45.86031" lon="4.81426">
        <ele>347</ele>
        <time>2012-05-13T09:27:57Z</time>
      </trkpt>
      <trkpt lat="45.86021" lon="4.81421">
        <ele>349</ele>
        <time>2012-05-13T09:28:02Z</time>
      </trkpt>
      <trkpt lat="45.86018" lon="4.81421">
        <ele>350</ele>
        <time>2012-05-13T09:28:03Z</time>
      </trkpt>
      <trkpt lat="45.86002" lon="4.81415">
        <ele>353</ele>
        <time>2012-05-13T09:28:09Z</time>
      </trkpt>
      <trkpt lat="45.8599" lon="4.81409">
        <ele>355</ele>
        <time>2012-05-13T09:28:15Z</time>
      </trkpt>
      <trkpt lat="45.85984" lon="4.81405">
        <ele>355</ele>
        <time>2012-05-13T09:28:18Z</time>
      </trkpt>
      <trkpt lat="45.85978" lon="4.81402">
        <ele>355</ele>
        <time>2012-05-13T09:28:21Z</time>
      </trkpt>
      <trkpt lat="45.85966" lon="4.81397">
        <ele>356</ele>
        <time>2012-05-13T09:28:26Z</time>
      </trkpt>
      <trkpt lat="45.85955" lon="4.81389">
        <ele>356</ele>
        <time>2012-05-13T09:28:31Z</time>
      </trkpt>
      <trkpt lat="45.85949" lon="4.81384">
        <ele>356</ele>
        <time>2012-05-13T09:28:34Z</time>
      </trkpt>
      <trkpt lat="45.85946" lon="4.8138">
        <ele>356</ele>
        <time>2012-05-13T09:28:36Z</time>
      </trkpt>
      <trkpt lat="45.85942" lon="4.81376">
        <ele>357</ele>
        <time>2012-05-13T09:28:38Z</time>
      </trkpt>
      <trkpt lat="45.85938" lon="4.81373">
        <ele>357</ele>
        <time>2012-05-13T09:28:41Z</time>
      </trkpt>
      <trkpt lat="45.85932" lon="4.81368">
        <ele>357</ele>
        <time>2012-05-13T09:28:44Z</time>
      </trkpt>
      <trkpt lat="45.85924" lon="4.81366">
        <ele>358</ele>
        <time>2012-05-13T09:28:47Z</time>
      </trkpt>
      <trkpt lat="45.85916" lon="4.81363">
        <ele>370</ele>
        <time>2012-05-13T09:28:51Z</time>
      </trkpt>
      <trkpt lat="45.85914" lon="4.81363">
        <ele>371</ele>
        <time>2012-05-13T09:28:52Z</time>
      </trkpt>
      <trkpt lat="45.85906" lon="4.81368">
        <ele>372</ele>
        <time>2012-05-13T09:28:56Z</time>
      </trkpt>
      <trkpt lat="45.85905" lon="4.8137">
        <ele>372</ele>
        <time>2012-05-13T09:28:57Z</time>
      </trkpt>
      <trkpt lat="45.85899" lon="4.8138">
        <ele>373</ele>
        <time>2012-05-13T09:29:02Z</time>
      </trkpt>
      <trkpt lat="45.85896" lon="4.81383">
        <ele>373</ele>
        <time>2012-05-13T09:29:04Z</time>
      </trkpt>
      <trkpt lat="45.85894" lon="4.81385">
        <ele>374</ele>
        <time>2012-05-13T09:29:06Z</time>
      </trkpt>
      <trkpt lat="45.85893" lon="4.81385">
        <ele>374</ele>
        <time>2012-05-13T09:29:07Z</time>
      </trkpt>
      <trkpt lat="45.85888" lon="4.8139">
        <ele>374</ele>
        <time>2012-05-13T09:29:14Z</time>
      </trkpt>
      <trkpt lat="45.85883" lon="4.81391">
        <ele>375</ele>
        <time>2012-05-13T09:29:21Z</time>
      </trkpt>
      <trkpt lat="45.85882" lon="4.81392">
        <ele>375</ele>
        <time>2012-05-13T09:29:22Z</time>
      </trkpt>
      <trkpt lat="45.85878" lon="4.81394">
        <ele>376</ele>
        <time>2012-05-13T09:29:27Z</time>
      </trkpt>
      <trkpt lat="45.85878" lon="4.81394">
        <ele>376</ele>
        <time>2012-05-13T09:29:28Z</time>
      </trkpt>
      <trkpt lat="45.85874" lon="4.814">
        <ele>377</ele>
        <time>2012-05-13T09:29:40Z</time>
      </trkpt>
      <trkpt lat="45.85873" lon="4.81403">
        <ele>377</ele>
        <time>2012-05-13T09:29:48Z</time>
      </trkpt>
      <trkpt lat="45.85868" lon="4.81405">
        <ele>378</ele>
        <time>2012-05-13T09:29:55Z</time>
      </trkpt>
      <trkpt lat="45.85866" lon="4.81406">
        <ele>379</ele>
        <time>2012-05-13T09:29:57Z</time>
      </trkpt>
      <trkpt lat="45.85864" lon="4.81406">
        <ele>379</ele>
        <time>2012-05-13T09:29:58Z</time>
      </trkpt>
      <trkpt lat="45.85863" lon="4.81407">
        <ele>379</ele>
        <time>2012-05-13T09:30:01Z</time>
      </trkpt>
      <trkpt lat="45.85857" lon="4.81406">
        <ele>381</ele>
        <time>2012-05-13T09:30:07Z</time>
      </trkpt>
      <trkpt lat="45.85849" lon="4.81408">
        <ele>383</ele>
        <time>2012-05-13T09:30:13Z</time>
      </trkpt>
      <trkpt lat="45.85847" lon="4.81409">
        <ele>384</ele>
        <time>2012-05-13T09:30:15Z</time>
      </trkpt>
      <trkpt lat="45.85844" lon="4.81409">
        <ele>385</ele>
        <time>2012-05-13T09:30:19Z</time>
      </trkpt>
      <trkpt lat="45.85842" lon="4.81409">
        <ele>385</ele>
        <time>2012-05-13T09:30:21Z</time>
      </trkpt>
      <trkpt lat="45.8584" lon="4.8141">
        <ele>386</ele>
        <time>2012-05-13T09:30:23Z</time>
      </trkpt>
      <trkpt lat="45.85834" lon="4.81414">
        <ele>389</ele>
        <time>2012-05-13T09:30:31Z</time>
      </trkpt>
      <trkpt lat="45.85831" lon="4.81415">
        <ele>392</ele>
        <time>2012-05-13T09:30:39Z</time>
      </trkpt>
      <trkpt lat="45.8583" lon="4.81413">
        <ele>392</ele>
        <time>2012-05-13T09:30:43Z</time>
      </trkpt>
      <trkpt lat="45.85824" lon="4.81416">
        <ele>393</ele>
        <time>2012-05-13T09:30:49Z</time>
      </trkpt>
      <trkpt lat="45.85816" lon="4.81423">
        <ele>393</ele>
        <time>2012-05-13T09:30:55Z</time>
      </trkpt>
      <trkpt lat="45.85814" lon="4.81424">
        <ele>394</ele>
        <time>2012-05-13T09:30:57Z</time>
      </trkpt>
      <trkpt lat="45.85811" lon="4.81426">
        <ele>394</ele>
        <time>2012-05-13T09:31:02Z</time>
      </trkpt>
      <trkpt lat="45.85808" lon="4.81425">
        <ele>394</ele>
        <time>2012-05-13T09:31:05Z</time>
      </trkpt>
      <trkpt lat="45.85806" lon="4.81426">
        <ele>395</ele>
        <time>2012-05-13T09:31:07Z</time>
      </trkpt>
      <trkpt lat="45.85804" lon="4.81427">
        <ele>395</ele>
        <time>2012-05-13T09:31:09Z</time>
      </trkpt>
      <trkpt lat="45.85802" lon="4.81428">
        <ele>395</ele>
        <time>2012-05-13T09:31:11Z</time>
      </trkpt>
      <trkpt lat="45.85798" lon="4.81429">
        <ele>396</ele>
        <time>2012-05-13T09:31:14Z</time>
      </trkpt>
      <trkpt lat="45.85797" lon="4.8143">
        <ele>396</ele>
        <time>2012-05-13T09:31:18Z</time>
      </trkpt>
      <trkpt lat="45.85795" lon="4.8143">
        <ele>396</ele>
        <time>2012-05-13T09:31:20Z</time>
      </trkpt>
      <trkpt lat="45.85793" lon="4.8143">
        <ele>396</ele>
        <time>2012-05-13T09:31:22Z</time>
      </trkpt>
      <trkpt lat="45.85787" lon="4.81429">
        <ele>397</ele>
        <time>2012-05-13T09:31:26Z</time>
      </trkpt>
      <trkpt lat="45.85783" lon="4.81431">
        <ele>398</ele>
        <time>2012-05-13T09:31:32Z</time>
      </trkpt>
      <trkpt lat="45.85781" lon="4.81431">
        <ele>398</ele>
        <time>2012-05-13T09:31:35Z</time>
      </trkpt>
      <trkpt lat="45.85779" lon="4.8143">
        <ele>399</ele>
        <time>2012-05-13T09:31:37Z</time>
      </trkpt>
      <trkpt lat="45.85778" lon="4.8143">
        <ele>399</ele>
        <time>2012-05-13T09:31:38Z</time>
      </trkpt>
      <trkpt lat="45.85772" lon="4.81428">
        <ele>400</ele>
        <time>2012-05-13T09:31:44Z</time>
      </trkpt>
      <trkpt lat="45.8577" lon="4.81426">
        <ele>401</ele>
        <time>2012-05-13T09:31:49Z</time>
      </trkpt>
      <trkpt lat="45.85761" lon="4.81425">
        <ele>404</ele>
        <time>2012-05-13T09:31:55Z</time>
      </trkpt>
      <trkpt lat="45.85759" lon="4.81424">
        <ele>404</ele>
        <time>2012-05-13T09:31:56Z</time>
      </trkpt>
      <trkpt lat="45.85754" lon="4.81419">
        <ele>407</ele>
        <time>2012-05-13T09:32:02Z</time>
      </trkpt>
      <trkpt lat="45.85753" lon="4.81417">
        <ele>409</ele>
        <time>2012-05-13T09:32:04Z</time>
      </trkpt>
      <trkpt lat="45.85751" lon="4.81417">
        <ele>409</ele>
        <time>2012-05-13T09:32:05Z</time>
      </trkpt>
      <trkpt lat="45.85748" lon="4.81415">
        <ele>410</ele>
        <time>2012-05-13T09:32:09Z</time>
      </trkpt>
      <trkpt lat="45.85746" lon="4.81413">
        <ele>410</ele>
        <time>2012-05-13T09:32:11Z</time>
      </trkpt>
      <trkpt lat="45.85744" lon="4.81413">
        <ele>410</ele>
        <time>2012-05-13T09:32:12Z</time>
      </trkpt>
      <trkpt lat="45.85744" lon="4.81412">
        <ele>410</ele>
        <time>2012-05-13T09:32:13Z</time>
      </trkpt>
      <trkpt lat="45.85741" lon="4.81406">
        <ele>409</ele>
        <time>2012-05-13T09:32:17Z</time>
      </trkpt>
      <trkpt lat="45.85737" lon="4.81398">
        <ele>409</ele>
        <time>2012-05-13T09:32:24Z</time>
      </trkpt>
      <trkpt lat="45.85736" lon="4.81397">
        <ele>409</ele>
        <time>2012-05-13T09:32:25Z</time>
      </trkpt>
      <trkpt lat="45.85732" lon="4.81393">
        <ele>409</ele>
        <time>2012-05-13T09:32:29Z</time>
      </trkpt>
      <trkpt lat="45.85729" lon="4.81392">
        <ele>409</ele>
        <time>2012-05-13T09:32:32Z</time>
      </trkpt>
      <trkpt lat="45.85719" lon="4.8139">
        <ele>409</ele>
        <time>2012-05-13T09:32:39Z</time>
      </trkpt>
      <trkpt lat="45.85718" lon="4.81389">
        <ele>409</ele>
        <time>2012-05-13T09:32:42Z</time>
      </trkpt>
      <trkpt lat="45.85715" lon="4.81386">
        <ele>409</ele>
        <time>2012-05-13T09:32:46Z</time>
      </trkpt>
      <trkpt lat="45.85714" lon="4.81386">
        <ele>409</ele>
        <time>2012-05-13T09:32:47Z</time>
      </trkpt>
      <trkpt lat="45.85712" lon="4.81386">
        <ele>409</ele>
        <time>2012-05-13T09:32:49Z</time>
      </trkpt>
      <trkpt lat="45.85704" lon="4.81389">
        <ele>410</ele>
        <time>2012-05-13T09:32:53Z</time>
      </trkpt>
      <trkpt lat="45.85701" lon="4.81387">
        <ele>410</ele>
        <time>2012-05-13T09:32:56Z</time>
      </trkpt>
      <trkpt lat="45.85698" lon="4.81384">
        <ele>410</ele>
        <time>2012-05-13T09:32:59Z</time>
      </trkpt>
      <trkpt lat="45.85697" lon="4.81384">
        <ele>410</ele>
        <time>2012-05-13T09:33:00Z</time>
      </trkpt>
      <trkpt lat="45.85691" lon="4.81382">
        <ele>410</ele>
        <time>2012-05-13T09:33:05Z</time>
      </trkpt>
      <trkpt lat="45.85685" lon="4.81377">
        <ele>410</ele>
        <time>2012-05-13T09:33:09Z</time>
      </trkpt>
      <trkpt lat="45.85684" lon="4.81374">
        <ele>411</ele>
        <time>2012-05-13T09:33:11Z</time>
      </trkpt>
      <trkpt lat="45.85682" lon="4.81371">
        <ele>411</ele>
        <time>2012-05-13T09:33:13Z</time>
      </trkpt>
      <trkpt lat="45.85682" lon="4.8137">
        <ele>411</ele>
        <time>2012-05-13T09:33:14Z</time>
      </trkpt>
      <trkpt lat="45.85681" lon="4.81367">
        <ele>411</ele>
        <time>2012-05-13T09:33:16Z</time>
      </trkpt>
      <trkpt lat="45.85679" lon="4.81362">
        <ele>411</ele>
        <time>2012-05-13T09:33:19Z</time>
      </trkpt>
      <trkpt lat="45.85677" lon="4.81358">
        <ele>411</ele>
        <time>2012-05-13T09:33:22Z</time>
      </trkpt>
      <trkpt lat="45.85676" lon="4.81357">
        <ele>411</ele>
        <time>2012-05-13T09:33:23Z</time>
      </trkpt>
      <trkpt lat="45.85675" lon="4.81356">
        <ele>411</ele>
        <time>2012-05-13T09:33:24Z</time>
      </trkpt>
      <trkpt lat="45.8567" lon="4.81353">
        <ele>411</ele>
        <time>2012-05-13T09:33:26Z</time>
      </trkpt>
      <trkpt lat="45.8566" lon="4.81354">
        <ele>416</ele>
        <time>2012-05-13T09:33:29Z</time>
      </trkpt>
      <trkpt lat="45.8565" lon="4.81351">
        <ele>417</ele>
        <time>2012-05-13T09:33:33Z</time>
      </trkpt>
      <trkpt lat="45.85649" lon="4.81348">
        <ele>417</ele>
        <time>2012-05-13T09:33:34Z</time>
      </trkpt>
      <trkpt lat="45.85641" lon="4.81347">
        <ele>417</ele>
        <time>2012-05-13T09:33:39Z</time>
      </trkpt>
      <trkpt lat="45.85639" lon="4.81344">
        <ele>418</ele>
        <time>2012-05-13T09:33:41Z</time>
      </trkpt>
      <trkpt lat="45.85636" lon="4.81341">
        <ele>418</ele>
        <time>2012-05-13T09:33:43Z</time>
      </trkpt>
      <trkpt lat="45.85635" lon="4.8134">
        <ele>418</ele>
        <time>2012-05-13T09:33:44Z</time>
      </trkpt>
      <trkpt lat="45.85624" lon="4.81335">
        <ele>419</ele>
        <time>2012-05-13T09:33:49Z</time>
      </trkpt>
      <trkpt lat="45.85619" lon="4.8133">
        <ele>414</ele>
        <time>2012-05-13T09:33:53Z</time>
      </trkpt>
      <trkpt lat="45.85616" lon="4.81328">
        <ele>415</ele>
        <time>2012-05-13T09:33:55Z</time>
      </trkpt>
      <trkpt lat="45.85608" lon="4.81323">
        <ele>416</ele>
        <time>2012-05-13T09:34:00Z</time>
      </trkpt>
      <trkpt lat="45.85602" lon="4.8132">
        <ele>417</ele>
        <time>2012-05-13T09:34:03Z</time>
      </trkpt>
      <trkpt lat="45.85599" lon="4.81319">
        <ele>417</ele>
        <time>2012-05-13T09:34:05Z</time>
      </trkpt>
      <trkpt lat="45.85589" lon="4.81314">
        <ele>418</ele>
        <time>2012-05-13T09:34:10Z</time>
      </trkpt>
      <trkpt lat="45.85585" lon="4.81312">
        <ele>417</ele>
        <time>2012-05-13T09:34:12Z</time>
      </trkpt>
      <trkpt lat="45.85578" lon="4.81309">
        <ele>426</ele>
        <time>2012-05-13T09:34:16Z</time>
      </trkpt>
      <trkpt lat="45.85566" lon="4.81306">
        <ele>426</ele>
        <time>2012-05-13T09:34:21Z</time>
      </trkpt>
      <trkpt lat="45.85563" lon="4.81306">
        <ele>426</ele>
        <time>2012-05-13T09:34:22Z</time>
      </trkpt>
      <trkpt lat="45.85559" lon="4.81304">
        <ele>426</ele>
        <time>2012-05-13T09:34:24Z</time>
      </trkpt>
      <trkpt lat="45.85555" lon="4.81301">
        <ele>426</ele>
        <time>2012-05-13T09:34:26Z</time>
      </trkpt>
      <trkpt lat="45.85549" lon="4.81299">
        <ele>427</ele>
        <time>2012-05-13T09:34:29Z</time>
      </trkpt>
      <trkpt lat="45.85541" lon="4.81294">
        <ele>427</ele>
        <time>2012-05-13T09:34:33Z</time>
      </trkpt>
      <trkpt lat="45.85532" lon="4.81289">
        <ele>428</ele>
        <time>2012-05-13T09:34:38Z</time>
      </trkpt>
      <trkpt lat="45.85528" lon="4.81287">
        <ele>428</ele>
        <time>2012-05-13T09:34:40Z</time>
      </trkpt>
      <trkpt lat="45.85517" lon="4.8128">
        <ele>429</ele>
        <time>2012-05-13T09:34:46Z</time>
      </trkpt>
      <trkpt lat="45.85515" lon="4.81279">
        <ele>429</ele>
        <time>2012-05-13T09:34:47Z</time>
      </trkpt>
      <trkpt lat="45.85513" lon="4.81279">
        <ele>429</ele>
        <time>2012-05-13T09:34:49Z</time>
      </trkpt>
      <trkpt lat="45.85513" lon="4.81278">
        <ele>429</ele>
        <time>2012-05-13T09:34:50Z</time>
      </trkpt>
      <trkpt lat="45.8551" lon="4.81279">
        <ele>429</ele>
        <time>2012-05-13T09:35:15Z</time>
      </trkpt>
      <trkpt lat="45.85507" lon="4.81282">
        <ele>429</ele>
        <time>2012-05-13T09:35:33Z</time>
      </trkpt>
      <trkpt lat="45.85507" lon="4.81289">
        <ele>430</ele>
        <time>2012-05-13T09:35:40Z</time>
      </trkpt>
      <trkpt lat="45.85506" lon="4.8129">
        <ele>430</ele>
        <time>2012-05-13T09:35:41Z</time>
      </trkpt>
      <trkpt lat="45.85504" lon="4.81292">
        <ele>430</ele>
        <time>2012-05-13T09:35:46Z</time>
      </trkpt>
      <trkpt lat="45.85505" lon="4.81293">
        <ele>430</ele>
        <time>2012-05-13T09:35:51Z</time>
      </trkpt>
      <trkpt lat="45.85507" lon="4.8129">
        <ele>430</ele>
        <time>2012-05-13T09:36:03Z</time>
      </trkpt>
      <trkpt lat="45.85508" lon="4.81287">
        <ele>430</ele>
        <time>2012-05-13T09:36:08Z</time>
      </trkpt>
      <trkpt lat="45.85509" lon="4.8128">
        <ele>429</ele>
        <time>2012-05-13T09:36:15Z</time>
      </trkpt>
      <trkpt lat="45.85511" lon="4.81281">
        <ele>429</ele>
        <time>2012-05-13T09:36:22Z</time>
      </trkpt>
      <trkpt lat="45.8551" lon="4.81281">
        <ele>429</ele>
        <time>2012-05-13T09:36:28Z</time>
      </trkpt>
      <trkpt lat="45.85509" lon="4.8128">
        <ele>429</ele>
        <time>2012-05-13T09:36:37Z</time>
      </trkpt>
      <trkpt lat="45.8551" lon="4.81278">
        <ele>429</ele>
        <time>2012-05-13T09:36:40Z</time>
      </trkpt>
      <trkpt lat="45.85507" lon="4.81278">
        <ele>430</ele>
        <time>2012-05-13T09:37:02Z</time>
      </trkpt>
      <trkpt lat="45.85507" lon="4.81277">
        <ele>430</ele>
        <time>2012-05-13T09:37:08Z</time>
      </trkpt>
      <trkpt lat="45.85507" lon="4.81278">
        <ele>430</ele>
        <time>2012-05-13T09:37:21Z</time>
      </trkpt>
      <trkpt lat="45.85503" lon="4.8128">
        <ele>430</ele>
        <time>2012-05-13T09:37:37Z</time>
      </trkpt>
      <trkpt lat="45.85501" lon="4.81285">
        <ele>430</ele>
        <time>2012-05-13T09:37:41Z</time>
      </trkpt>
      <trkpt lat="45.85499" lon="4.81288">
        <ele>440</ele>
        <time>2012-05-13T09:37:43Z</time>
      </trkpt>
      <trkpt lat="45.85497" lon="4.8129">
        <ele>440</ele>
        <time>2012-05-13T09:37:44Z</time>
      </trkpt>
      <trkpt lat="45.85487" lon="4.81301">
        <ele>441</ele>
        <time>2012-05-13T09:37:48Z</time>
      </trkpt>
      <trkpt lat="45.85485" lon="4.81304">
        <ele>441</ele>
        <time>2012-05-13T09:37:49Z</time>
      </trkpt>
      <trkpt lat="45.85473" lon="4.81322">
        <ele>442</ele>
        <time>2012-05-13T09:37:55Z</time>
      </trkpt>
      <trkpt lat="45.85465" lon="4.81336">
        <ele>442</ele>
        <time>2012-05-13T09:38:00Z</time>
      </trkpt>
      <trkpt lat="45.85462" lon="4.81343">
        <ele>442</ele>
        <time>2012-05-13T09:38:02Z</time>
      </trkpt>
      <trkpt lat="45.8546" lon="4.81354">
        <ele>442</ele>
        <time>2012-05-13T09:38:05Z</time>
      </trkpt>
      <trkpt lat="45.85458" lon="4.81368">
        <ele>442</ele>
        <time>2012-05-13T09:38:09Z</time>
      </trkpt>
      <trkpt lat="45.85458" lon="4.81372">
        <ele>441</ele>
        <time>2012-05-13T09:38:10Z</time>
      </trkpt>
      <trkpt lat="45.85458" lon="4.81385">
        <ele>441</ele>
        <time>2012-05-13T09:38:13Z</time>
      </trkpt>
      <trkpt lat="45.8546" lon="4.814">
        <ele>440</ele>
        <time>2012-05-13T09:38:17Z</time>
      </trkpt>
      <trkpt lat="45.85462" lon="4.81423">
        <ele>437</ele>
        <time>2012-05-13T09:38:23Z</time>
      </trkpt>
      <trkpt lat="45.85463" lon="4.81427">
        <ele>437</ele>
        <time>2012-05-13T09:38:24Z</time>
      </trkpt>
      <trkpt lat="45.85464" lon="4.81441">
        <ele>437</ele>
        <time>2012-05-13T09:38:28Z</time>
      </trkpt>
      <trkpt lat="45.85465" lon="4.81452">
        <ele>437</ele>
        <time>2012-05-13T09:38:31Z</time>
      </trkpt>
      <trkpt lat="45.85465" lon="4.81456">
        <ele>437</ele>
        <time>2012-05-13T09:38:32Z</time>
      </trkpt>
      <trkpt lat="45.85465" lon="4.81459">
        <ele>437</ele>
        <time>2012-05-13T09:38:33Z</time>
      </trkpt>
      <trkpt lat="45.85465" lon="4.81479">
        <ele>437</ele>
        <time>2012-05-13T09:38:39Z</time>
      </trkpt>
      <trkpt lat="45.85465" lon="4.81482">
        <ele>437</ele>
        <time>2012-05-13T09:38:40Z</time>
      </trkpt>
      <trkpt lat="45.85465" lon="4.81494">
        <ele>436</ele>
        <time>2012-05-13T09:38:43Z</time>
      </trkpt>
      <trkpt lat="45.85465" lon="4.81509">
        <ele>435</ele>
        <time>2012-05-13T09:38:47Z</time>
      </trkpt>
      <trkpt lat="45.85465" lon="4.81517">
        <ele>435</ele>
        <time>2012-05-13T09:38:49Z</time>
      </trkpt>
      <trkpt lat="45.85464" lon="4.81535">
        <ele>435</ele>
        <time>2012-05-13T09:38:54Z</time>
      </trkpt>
      <trkpt lat="45.85463" lon="4.81538">
        <ele>435</ele>
        <time>2012-05-13T09:38:55Z</time>
      </trkpt>
      <trkpt lat="45.85463" lon="4.81541">
        <ele>435</ele>
        <time>2012-05-13T09:38:57Z</time>
      </trkpt>
      <trkpt lat="45.85463" lon="4.81543">
        <ele>435</ele>
        <time>2012-05-13T09:38:58Z</time>
      </trkpt>
      <trkpt lat="45.85459" lon="4.81549">
        <ele>435</ele>
        <time>2012-05-13T09:39:02Z</time>
      </trkpt>
      <trkpt lat="45.85456" lon="4.81556">
        <ele>435</ele>
        <time>2012-05-13T09:39:06Z</time>
      </trkpt>
      <trkpt lat="45.85456" lon="4.8156">
        <ele>435</ele>
        <time>2012-05-13T09:39:07Z</time>
      </trkpt>
      <trkpt lat="45.85454" lon="4.81569">
        <ele>435</ele>
        <time>2012-05-13T09:39:10Z</time>
      </trkpt>
      <trkpt lat="45.85452" lon="4.81578">
        <ele>435</ele>
        <time>2012-05-13T09:39:13Z</time>
      </trkpt>
      <trkpt lat="45.8545" lon="4.81585">
        <ele>432</ele>
        <time>2012-05-13T09:39:15Z</time>
      </trkpt>
      <trkpt lat="45.85449" lon="4.81588">
        <ele>432</ele>
        <time>2012-05-13T09:39:16Z</time>
      </trkpt>
      <trkpt lat="45.85443" lon="4.81601">
        <ele>432</ele>
        <time>2012-05-13T09:39:21Z</time>
      </trkpt>
      <trkpt lat="45.85437" lon="4.81607">
        <ele>432</ele>
        <time>2012-05-13T09:39:25Z</time>
      </trkpt>
      <trkpt lat="45.85436" lon="4.81609">
        <ele>432</ele>
        <time>2012-05-13T09:39:26Z</time>
      </trkpt>
      <trkpt lat="45.85431" lon="4.81622">
        <ele>432</ele>
        <time>2012-05-13T09:39:30Z</time>
      </trkpt>
      <trkpt lat="45.8543" lon="4.8163">
        <ele>431</ele>
        <time>2012-05-13T09:39:32Z</time>
      </trkpt>
      <trkpt lat="45.85427" lon="4.8164">
        <ele>431</ele>
        <time>2012-05-13T09:39:35Z</time>
      </trkpt>
      <trkpt lat="45.85423" lon="4.81652">
        <ele>430</ele>
        <time>2012-05-13T09:39:39Z</time>
      </trkpt>
      <trkpt lat="45.85423" lon="4.81655">
        <ele>430</ele>
        <time>2012-05-13T09:39:40Z</time>
      </trkpt>
      <trkpt lat="45.85423" lon="4.81663">
        <ele>430</ele>
        <time>2012-05-13T09:39:43Z</time>
      </trkpt>
      <trkpt lat="45.85424" lon="4.81663">
        <ele>430</ele>
        <time>2012-05-13T09:39:44Z</time>
      </trkpt>
      <trkpt lat="45.85426" lon="4.81669">
        <ele>428</ele>
        <time>2012-05-13T09:39:47Z</time>
      </trkpt>
      <trkpt lat="45.85426" lon="4.81674">
        <ele>427</ele>
        <time>2012-05-13T09:39:49Z</time>
      </trkpt>
      <trkpt lat="45.85423" lon="4.81681">
        <ele>427</ele>
        <time>2012-05-13T09:39:52Z</time>
      </trkpt>
      <trkpt lat="45.85421" lon="4.81686">
        <ele>426</ele>
        <time>2012-05-13T09:39:54Z</time>
      </trkpt>
      <trkpt lat="45.85414" lon="4.81701">
        <ele>425</ele>
        <time>2012-05-13T09:39:59Z</time>
      </trkpt>
      <trkpt lat="45.85413" lon="4.81704">
        <ele>424</ele>
        <time>2012-05-13T09:40:00Z</time>
      </trkpt>
      <trkpt lat="45.85407" lon="4.8172">
        <ele>422</ele>
        <time>2012-05-13T09:40:06Z</time>
      </trkpt>
      <trkpt lat="45.85404" lon="4.81727">
        <ele>422</ele>
        <time>2012-05-13T09:40:09Z</time>
      </trkpt>
      <trkpt lat="45.85402" lon="4.8173">
        <ele>421</ele>
        <time>2012-05-13T09:40:10Z</time>
      </trkpt>
      <trkpt lat="45.85399" lon="4.81735">
        <ele>421</ele>
        <time>2012-05-13T09:40:13Z</time>
      </trkpt>
      <trkpt lat="45.85395" lon="4.81737">
        <ele>421</ele>
        <time>2012-05-13T09:40:15Z</time>
      </trkpt>
      <trkpt lat="45.85387" lon="4.81737">
        <ele>421</ele>
        <time>2012-05-13T09:40:20Z</time>
      </trkpt>
      <trkpt lat="45.85374" lon="4.81744">
        <ele>420</ele>
        <time>2012-05-13T09:40:25Z</time>
      </trkpt>
      <trkpt lat="45.85371" lon="4.81745">
        <ele>420</ele>
        <time>2012-05-13T09:40:26Z</time>
      </trkpt>
      <trkpt lat="45.85366" lon="4.81745">
        <ele>420</ele>
        <time>2012-05-13T09:40:29Z</time>
      </trkpt>
      <trkpt lat="45.85357" lon="4.81749">
        <ele>419</ele>
        <time>2012-05-13T09:40:35Z</time>
      </trkpt>
      <trkpt lat="45.85356" lon="4.81749">
        <ele>419</ele>
        <time>2012-05-13T09:40:36Z</time>
      </trkpt>
      <trkpt lat="45.85352" lon="4.81749">
        <ele>418</ele>
        <time>2012-05-13T09:40:40Z</time>
      </trkpt>
      <trkpt lat="45.8535" lon="4.8175">
        <ele>409</ele>
        <time>2012-05-13T09:40:41Z</time>
      </trkpt>
      <trkpt lat="45.85342" lon="4.8175">
        <ele>415</ele>
        <time>2012-05-13T09:40:47Z</time>
      </trkpt>
      <trkpt lat="45.85334" lon="4.81749">
        <ele>413</ele>
        <time>2012-05-13T09:40:52Z</time>
      </trkpt>
      <trkpt lat="45.85333" lon="4.81751">
        <ele>412</ele>
        <time>2012-05-13T09:40:53Z</time>
      </trkpt>
      <trkpt lat="45.85327" lon="4.81757">
        <ele>410</ele>
        <time>2012-05-13T09:40:57Z</time>
      </trkpt>
      <trkpt lat="45.85326" lon="4.81758">
        <ele>410</ele>
        <time>2012-05-13T09:40:58Z</time>
      </trkpt>
      <trkpt lat="45.85325" lon="4.81759">
        <ele>410</ele>
        <time>2012-05-13T09:40:59Z</time>
      </trkpt>
      <trkpt lat="45.85323" lon="4.81761">
        <ele>409</ele>
        <time>2012-05-13T09:41:00Z</time>
      </trkpt>
      <trkpt lat="45.85319" lon="4.81763">
        <ele>409</ele>
        <time>2012-05-13T09:41:04Z</time>
      </trkpt>
      <trkpt lat="45.85319" lon="4.81764">
        <ele>409</ele>
        <time>2012-05-13T09:41:05Z</time>
      </trkpt>
      <trkpt lat="45.8532" lon="4.81765">
        <ele>409</ele>
        <time>2012-05-13T09:41:07Z</time>
      </trkpt>
      <trkpt lat="45.85321" lon="4.81766">
        <ele>409</ele>
        <time>2012-05-13T09:41:08Z</time>
      </trkpt>
      <trkpt lat="45.85323" lon="4.81767">
        <ele>408</ele>
        <time>2012-05-13T09:41:10Z</time>
      </trkpt>
      <trkpt lat="45.85322" lon="4.81772">
        <ele>408</ele>
        <time>2012-05-13T09:41:16Z</time>
      </trkpt>
      <trkpt lat="45.85318" lon="4.81775">
        <ele>407</ele>
        <time>2012-05-13T09:41:18Z</time>
      </trkpt>
      <trkpt lat="45.85313" lon="4.81775">
        <ele>407</ele>
        <time>2012-05-13T09:41:20Z</time>
      </trkpt>
      <trkpt lat="45.85311" lon="4.81776">
        <ele>407</ele>
        <time>2012-05-13T09:41:22Z</time>
      </trkpt>
      <trkpt lat="45.85311" lon="4.81776">
        <ele>407</ele>
        <time>2012-05-13T09:41:23Z</time>
      </trkpt>
      <trkpt lat="45.85301" lon="4.81778">
        <ele>407</ele>
        <time>2012-05-13T09:41:34Z</time>
      </trkpt>
      <trkpt lat="45.85295" lon="4.8178">
        <ele>407</ele>
        <time>2012-05-13T09:41:36Z</time>
      </trkpt>
      <trkpt lat="45.85292" lon="4.81781">
        <ele>407</ele>
        <time>2012-05-13T09:41:39Z</time>
      </trkpt>
      <trkpt lat="45.8529" lon="4.81782">
        <ele>407</ele>
        <time>2012-05-13T09:41:40Z</time>
      </trkpt>
      <trkpt lat="45.85285" lon="4.81787">
        <ele>407</ele>
        <time>2012-05-13T09:41:43Z</time>
      </trkpt>
      <trkpt lat="45.85282" lon="4.81796">
        <ele>406</ele>
        <time>2012-05-13T09:41:46Z</time>
      </trkpt>
      <trkpt lat="45.8528" lon="4.818">
        <ele>406</ele>
        <time>2012-05-13T09:41:47Z</time>
      </trkpt>
      <trkpt lat="45.85276" lon="4.81812">
        <ele>405</ele>
        <time>2012-05-13T09:41:51Z</time>
      </trkpt>
      <trkpt lat="45.85273" lon="4.81819">
        <ele>405</ele>
        <time>2012-05-13T09:41:53Z</time>
      </trkpt>
      <trkpt lat="45.85271" lon="4.81822">
        <ele>404</ele>
        <time>2012-05-13T09:41:54Z</time>
      </trkpt>
      <trkpt lat="45.85267" lon="4.81828">
        <ele>404</ele>
        <time>2012-05-13T09:41:56Z</time>
      </trkpt>
      <trkpt lat="45.85266" lon="4.81841">
        <ele>397</ele>
        <time>2012-05-13T09:42:00Z</time>
      </trkpt>
      <trkpt lat="45.85266" lon="4.81847">
        <ele>396</ele>
        <time>2012-05-13T09:42:02Z</time>
      </trkpt>
      <trkpt lat="45.85263" lon="4.81858">
        <ele>395</ele>
        <time>2012-05-13T09:42:06Z</time>
      </trkpt>
      <trkpt lat="45.85262" lon="4.81862">
        <ele>394</ele>
        <time>2012-05-13T09:42:08Z</time>
      </trkpt>
      <trkpt lat="45.8526" lon="4.81868">
        <ele>394</ele>
        <time>2012-05-13T09:42:10Z</time>
      </trkpt>
      <trkpt lat="45.85259" lon="4.81873">
        <ele>393</ele>
        <time>2012-05-13T09:42:11Z</time>
      </trkpt>
      <trkpt lat="45.8526" lon="4.81883">
        <ele>392</ele>
        <time>2012-05-13T09:42:14Z</time>
      </trkpt>
      <trkpt lat="45.85262" lon="4.819">
        <ele>392</ele>
        <time>2012-05-13T09:42:19Z</time>
      </trkpt>
      <trkpt lat="45.85263" lon="4.81902">
        <ele>392</ele>
        <time>2012-05-13T09:42:20Z</time>
      </trkpt>
      <trkpt lat="45.85263" lon="4.81904">
        <ele>392</ele>
        <time>2012-05-13T09:42:21Z</time>
      </trkpt>
      <trkpt lat="45.8526" lon="4.81906">
        <ele>393</ele>
        <time>2012-05-13T09:42:25Z</time>
      </trkpt>
      <trkpt lat="45.85258" lon="4.81917">
        <ele>390</ele>
        <time>2012-05-13T09:42:30Z</time>
      </trkpt>
      <trkpt lat="45.85258" lon="4.81923">
        <ele>389</ele>
        <time>2012-05-13T09:42:32Z</time>
      </trkpt>
      <trkpt lat="45.8526" lon="4.81929">
        <ele>387</ele>
        <time>2012-05-13T09:42:34Z</time>
      </trkpt>
      <trkpt lat="45.85261" lon="4.81938">
        <ele>385</ele>
        <time>2012-05-13T09:42:36Z</time>
      </trkpt>
      <trkpt lat="45.85261" lon="4.81947">
        <ele>383</ele>
        <time>2012-05-13T09:42:38Z</time>
      </trkpt>
      <trkpt lat="45.85261" lon="4.81951">
        <ele>382</ele>
        <time>2012-05-13T09:42:39Z</time>
      </trkpt>
      <trkpt lat="45.85262" lon="4.81964">
        <ele>381</ele>
        <time>2012-05-13T09:42:43Z</time>
      </trkpt>
      <trkpt lat="45.85264" lon="4.81978">
        <ele>381</ele>
        <time>2012-05-13T09:42:47Z</time>
      </trkpt>
      <trkpt lat="45.85266" lon="4.81985">
        <ele>380</ele>
        <time>2012-05-13T09:42:49Z</time>
      </trkpt>
      <trkpt lat="45.85265" lon="4.81988">
        <ele>381</ele>
        <time>2012-05-13T09:42:50Z</time>
      </trkpt>
      <trkpt lat="45.85262" lon="4.81998">
        <ele>381</ele>
        <time>2012-05-13T09:42:53Z</time>
      </trkpt>
      <trkpt lat="45.85261" lon="4.82">
        <ele>377</ele>
        <time>2012-05-13T09:42:54Z</time>
      </trkpt>
      <trkpt lat="45.8526" lon="4.82002">
        <ele>377</ele>
        <time>2012-05-13T09:42:55Z</time>
      </trkpt>
      <trkpt lat="45.85253" lon="4.82014">
        <ele>375</ele>
        <time>2012-05-13T09:43:00Z</time>
      </trkpt>
      <trkpt lat="45.85247" lon="4.82022">
        <ele>384</ele>
        <time>2012-05-13T09:43:03Z</time>
      </trkpt>
      <trkpt lat="45.85244" lon="4.82029">
        <ele>384</ele>
        <time>2012-05-13T09:43:05Z</time>
      </trkpt>
      <trkpt lat="45.85236" lon="4.82042">
        <ele>383</ele>
        <time>2012-05-13T09:43:10Z</time>
      </trkpt>
      <trkpt lat="45.85234" lon="4.82044">
        <ele>382</ele>
        <time>2012-05-13T09:43:11Z</time>
      </trkpt>
      <trkpt lat="45.8523" lon="4.82048">
        <ele>382</ele>
        <time>2012-05-13T09:43:13Z</time>
      </trkpt>
      <trkpt lat="45.85228" lon="4.8205">
        <ele>382</ele>
        <time>2012-05-13T09:43:14Z</time>
      </trkpt>
      <trkpt lat="45.8522" lon="4.82059">
        <ele>382</ele>
        <time>2012-05-13T09:43:18Z</time>
      </trkpt>
      <trkpt lat="45.85218" lon="4.82061">
        <ele>382</ele>
        <time>2012-05-13T09:43:19Z</time>
      </trkpt>
      <trkpt lat="45.85216" lon="4.82065">
        <ele>382</ele>
        <time>2012-05-13T09:43:20Z</time>
      </trkpt>
      <trkpt lat="45.85211" lon="4.82073">
        <ele>382</ele>
        <time>2012-05-13T09:43:23Z</time>
      </trkpt>
      <trkpt lat="45.85205" lon="4.82082">
        <ele>383</ele>
        <time>2012-05-13T09:43:26Z</time>
      </trkpt>
      <trkpt lat="45.85202" lon="4.82087">
        <ele>371</ele>
        <time>2012-05-13T09:43:28Z</time>
      </trkpt>
      <trkpt lat="45.852" lon="4.8209">
        <ele>371</ele>
        <time>2012-05-13T09:43:29Z</time>
      </trkpt>
      <trkpt lat="45.85191" lon="4.82096">
        <ele>373</ele>
        <time>2012-05-13T09:43:33Z</time>
      </trkpt>
      <trkpt lat="45.85189" lon="4.82098">
        <ele>373</ele>
        <time>2012-05-13T09:43:34Z</time>
      </trkpt>
      <trkpt lat="45.85183" lon="4.82104">
        <ele>373</ele>
        <time>2012-05-13T09:43:37Z</time>
      </trkpt>
      <trkpt lat="45.85174" lon="4.82116">
        <ele>371</ele>
        <time>2012-05-13T09:43:42Z</time>
      </trkpt>
      <trkpt lat="45.85169" lon="4.82127">
        <ele>369</ele>
        <time>2012-05-13T09:43:46Z</time>
      </trkpt>
      <trkpt lat="45.85166" lon="4.82142">
        <ele>378</ele>
        <time>2012-05-13T09:43:50Z</time>
      </trkpt>
      <trkpt lat="45.85164" lon="4.82161">
        <ele>371</ele>
        <time>2012-05-13T09:43:56Z</time>
      </trkpt>
      <trkpt lat="45.85163" lon="4.82171">
        <ele>367</ele>
        <time>2012-05-13T09:43:59Z</time>
      </trkpt>
      <trkpt lat="45.85162" lon="4.82173">
        <ele>367</ele>
        <time>2012-05-13T09:44:00Z</time>
      </trkpt>
      <trkpt lat="45.85155" lon="4.82186">
        <ele>366</ele>
        <time>2012-05-13T09:44:04Z</time>
      </trkpt>
      <trkpt lat="45.85152" lon="4.82192">
        <ele>366</ele>
        <time>2012-05-13T09:44:06Z</time>
      </trkpt>
      <trkpt lat="45.8515" lon="4.82195">
        <ele>365</ele>
        <time>2012-05-13T09:44:07Z</time>
      </trkpt>
      <trkpt lat="45.85148" lon="4.82202">
        <ele>365</ele>
        <time>2012-05-13T09:44:09Z</time>
      </trkpt>
      <trkpt lat="45.85145" lon="4.82213">
        <ele>363</ele>
        <time>2012-05-13T09:44:12Z</time>
      </trkpt>
      <trkpt lat="45.85144" lon="4.82217">
        <ele>363</ele>
        <time>2012-05-13T09:44:13Z</time>
      </trkpt>
      <trkpt lat="45.85139" lon="4.82235">
        <ele>361</ele>
        <time>2012-05-13T09:44:18Z</time>
      </trkpt>
      <trkpt lat="45.85137" lon="4.82242">
        <ele>360</ele>
        <time>2012-05-13T09:44:20Z</time>
      </trkpt>
      <trkpt lat="45.85131" lon="4.82255">
        <ele>348</ele>
        <time>2012-05-13T09:44:24Z</time>
      </trkpt>
      <trkpt lat="45.85126" lon="4.82264">
        <ele>348</ele>
        <time>2012-05-13T09:44:27Z</time>
      </trkpt>
      <trkpt lat="45.85124" lon="4.82269">
        <ele>348</ele>
        <time>2012-05-13T09:44:29Z</time>
      </trkpt>
      <trkpt lat="45.85122" lon="4.82272">
        <ele>348</ele>
        <time>2012-05-13T09:44:30Z</time>
      </trkpt>
      <trkpt lat="45.8512" lon="4.82283">
        <ele>347</ele>
        <time>2012-05-13T09:44:33Z</time>
      </trkpt>
      <trkpt lat="45.85119" lon="4.82289">
        <ele>346</ele>
        <time>2012-05-13T09:44:35Z</time>
      </trkpt>
      <trkpt lat="45.85118" lon="4.82291">
        <ele>346</ele>
        <time>2012-05-13T09:44:36Z</time>
      </trkpt>
      <trkpt lat="45.85116" lon="4.82295">
        <ele>346</ele>
        <time>2012-05-13T09:44:38Z</time>
      </trkpt>
      <trkpt lat="45.85114" lon="4.82307">
        <ele>345</ele>
        <time>2012-05-13T09:44:43Z</time>
      </trkpt>
      <trkpt lat="45.85112" lon="4.8231">
        <ele>344</ele>
        <time>2012-05-13T09:44:45Z</time>
      </trkpt>
      <trkpt lat="45.85112" lon="4.82313">
        <ele>344</ele>
        <time>2012-05-13T09:44:47Z</time>
      </trkpt>
      <trkpt lat="45.85113" lon="4.82315">
        <ele>344</ele>
        <time>2012-05-13T09:44:50Z</time>
      </trkpt>
      <trkpt lat="45.85115" lon="4.8232">
        <ele>343</ele>
        <time>2012-05-13T09:44:56Z</time>
      </trkpt>
      <trkpt lat="45.85114" lon="4.82325">
        <ele>343</ele>
        <time>2012-05-13T09:45:02Z</time>
      </trkpt>
      <trkpt lat="45.85113" lon="4.82332">
        <ele>343</ele>
        <time>2012-05-13T09:45:08Z</time>
      </trkpt>
      <trkpt lat="45.85112" lon="4.82338">
        <ele>328</ele>
        <time>2012-05-13T09:45:12Z</time>
      </trkpt>
      <trkpt lat="45.85111" lon="4.82341">
        <ele>328</ele>
        <time>2012-05-13T09:45:13Z</time>
      </trkpt>
      <trkpt lat="45.85105" lon="4.82353">
        <ele>327</ele>
        <time>2012-05-13T09:45:17Z</time>
      </trkpt>
      <trkpt lat="45.85104" lon="4.82355">
        <ele>327</ele>
        <time>2012-05-13T09:45:18Z</time>
      </trkpt>
      <trkpt lat="45.85101" lon="4.8236">
        <ele>326</ele>
        <time>2012-05-13T09:45:20Z</time>
      </trkpt>
      <trkpt lat="45.85096" lon="4.82368">
        <ele>325</ele>
        <time>2012-05-13T09:45:23Z</time>
      </trkpt>
      <trkpt lat="45.85089" lon="4.8238">
        <ele>323</ele>
        <time>2012-05-13T09:45:28Z</time>
      </trkpt>
      <trkpt lat="45.85081" lon="4.82391">
        <ele>327</ele>
        <time>2012-05-13T09:45:33Z</time>
      </trkpt>
      <trkpt lat="45.85075" lon="4.82397">
        <ele>325</ele>
        <time>2012-05-13T09:45:36Z</time>
      </trkpt>
      <trkpt lat="45.8507" lon="4.82402">
        <ele>325</ele>
        <time>2012-05-13T09:45:39Z</time>
      </trkpt>
      <trkpt lat="45.85057" lon="4.8241">
        <ele>325</ele>
        <time>2012-05-13T09:45:45Z</time>
      </trkpt>
      <trkpt lat="45.85047" lon="4.82418">
        <ele>310</ele>
        <time>2012-05-13T09:45:50Z</time>
      </trkpt>
      <trkpt lat="45.85047" lon="4.8242">
        <ele>309</ele>
        <time>2012-05-13T09:45:51Z</time>
      </trkpt>
      <trkpt lat="45.85043" lon="4.82422">
        <ele>309</ele>
        <time>2012-05-13T09:45:55Z</time>
      </trkpt>
      <trkpt lat="45.85039" lon="4.82423">
        <ele>309</ele>
        <time>2012-05-13T09:45:57Z</time>
      </trkpt>
      <trkpt lat="45.85036" lon="4.82423">
        <ele>309</ele>
        <time>2012-05-13T09:45:58Z</time>
      </trkpt>
      <trkpt lat="45.85028" lon="4.82425">
        <ele>309</ele>
        <time>2012-05-13T09:46:01Z</time>
      </trkpt>
      <trkpt lat="45.8502" lon="4.82429">
        <ele>310</ele>
        <time>2012-05-13T09:46:04Z</time>
      </trkpt>
      <trkpt lat="45.85009" lon="4.82433">
        <ele>310</ele>
        <time>2012-05-13T09:46:08Z</time>
      </trkpt>
      <trkpt lat="45.85001" lon="4.82433">
        <ele>310</ele>
        <time>2012-05-13T09:46:12Z</time>
      </trkpt>
      <trkpt lat="45.84998" lon="4.82433">
        <ele>309</ele>
        <time>2012-05-13T09:46:13Z</time>
      </trkpt>
      <trkpt lat="45.84981" lon="4.82438">
        <ele>306</ele>
        <time>2012-05-13T09:46:19Z</time>
      </trkpt>
      <trkpt lat="45.84978" lon="4.82439">
        <ele>306</ele>
        <time>2012-05-13T09:46:20Z</time>
      </trkpt>
      <trkpt lat="45.84969" lon="4.82443">
        <ele>304</ele>
        <time>2012-05-13T09:46:23Z</time>
      </trkpt>
      <trkpt lat="45.84961" lon="4.82448">
        <ele>303</ele>
        <time>2012-05-13T09:46:26Z</time>
      </trkpt>
      <trkpt lat="45.84958" lon="4.8245">
        <ele>303</ele>
        <time>2012-05-13T09:46:27Z</time>
      </trkpt>
      <trkpt lat="45.84946" lon="4.82459">
        <ele>301</ele>
        <time>2012-05-13T09:46:31Z</time>
      </trkpt>
      <trkpt lat="45.84943" lon="4.8246">
        <ele>301</ele>
        <time>2012-05-13T09:46:32Z</time>
      </trkpt>
      <trkpt lat="45.84934" lon="4.82466">
        <ele>300</ele>
        <time>2012-05-13T09:46:36Z</time>
      </trkpt>
      <trkpt lat="45.84926" lon="4.82471">
        <ele>298</ele>
        <time>2012-05-13T09:46:39Z</time>
      </trkpt>
      <trkpt lat="45.84922" lon="4.82474">
        <ele>298</ele>
        <time>2012-05-13T09:46:41Z</time>
      </trkpt>
      <trkpt lat="45.84907" lon="4.82479">
        <ele>292</ele>
        <time>2012-05-13T09:46:47Z</time>
      </trkpt>
      <trkpt lat="45.84899" lon="4.82481">
        <ele>292</ele>
        <time>2012-05-13T09:46:51Z</time>
      </trkpt>
      <trkpt lat="45.84888" lon="4.82484">
        <ele>292</ele>
        <time>2012-05-13T09:46:56Z</time>
      </trkpt>
      <trkpt lat="45.84886" lon="4.82485">
        <ele>292</ele>
        <time>2012-05-13T09:46:57Z</time>
      </trkpt>
      <trkpt lat="45.84881" lon="4.82487">
        <ele>291</ele>
        <time>2012-05-13T09:46:59Z</time>
      </trkpt>
      <trkpt lat="45.84876" lon="4.82486">
        <ele>291</ele>
        <time>2012-05-13T09:47:02Z</time>
      </trkpt>
      <trkpt lat="45.8487" lon="4.82488">
        <ele>291</ele>
        <time>2012-05-13T09:47:06Z</time>
      </trkpt>
      <trkpt lat="45.84868" lon="4.82488">
        <ele>291</ele>
        <time>2012-05-13T09:47:07Z</time>
      </trkpt>
      <trkpt lat="45.84863" lon="4.82486">
        <ele>290</ele>
        <time>2012-05-13T09:47:11Z</time>
      </trkpt>
      <trkpt lat="45.84854" lon="4.82488">
        <ele>289</ele>
        <time>2012-05-13T09:47:15Z</time>
      </trkpt>
      <trkpt lat="45.84849" lon="4.8249">
        <ele>288</ele>
        <time>2012-05-13T09:47:17Z</time>
      </trkpt>
      <trkpt lat="45.84844" lon="4.82491">
        <ele>286</ele>
        <time>2012-05-13T09:47:19Z</time>
      </trkpt>
      <trkpt lat="45.84841" lon="4.82491">
        <ele>286</ele>
        <time>2012-05-13T09:47:20Z</time>
      </trkpt>
      <trkpt lat="45.84839" lon="4.82491">
        <ele>285</ele>
        <time>2012-05-13T09:47:21Z</time>
      </trkpt>
      <trkpt lat="45.84832" lon="4.8249">
        <ele>280</ele>
        <time>2012-05-13T09:47:24Z</time>
      </trkpt>
      <trkpt lat="45.84831" lon="4.8249">
        <ele>280</ele>
        <time>2012-05-13T09:47:25Z</time>
      </trkpt>
      <trkpt lat="45.84821" lon="4.82488">
        <ele>280</ele>
        <time>2012-05-13T09:47:29Z</time>
      </trkpt>
      <trkpt lat="45.84811" lon="4.82491">
        <ele>279</ele>
        <time>2012-05-13T09:47:33Z</time>
      </trkpt>
      <trkpt lat="45.84807" lon="4.82493">
        <ele>278</ele>
        <time>2012-05-13T09:47:35Z</time>
      </trkpt>
      <trkpt lat="45.84804" lon="4.82493">
        <ele>278</ele>
        <time>2012-05-13T09:47:37Z</time>
      </trkpt>
      <trkpt lat="45.84792" lon="4.82496">
        <ele>276</ele>
        <time>2012-05-13T09:47:43Z</time>
      </trkpt>
      <trkpt lat="45.84785" lon="4.82496">
        <ele>275</ele>
        <time>2012-05-13T09:47:46Z</time>
      </trkpt>
      <trkpt lat="45.84783" lon="4.82497">
        <ele>274</ele>
        <time>2012-05-13T09:47:47Z</time>
      </trkpt>
      <trkpt lat="45.84774" lon="4.82497">
        <ele>272</ele>
        <time>2012-05-13T09:47:51Z</time>
      </trkpt>
      <trkpt lat="45.84773" lon="4.82498">
        <ele>272</ele>
        <time>2012-05-13T09:47:52Z</time>
      </trkpt>
      <trkpt lat="45.84764" lon="4.82498">
        <ele>269</ele>
        <time>2012-05-13T09:47:57Z</time>
      </trkpt>
      <trkpt lat="45.84759" lon="4.82498">
        <ele>267</ele>
        <time>2012-05-13T09:48:01Z</time>
      </trkpt>
      <trkpt lat="45.84757" lon="4.82497">
        <ele>266</ele>
        <time>2012-05-13T09:48:02Z</time>
      </trkpt>
      <trkpt lat="45.84755" lon="4.82497">
        <ele>265</ele>
        <time>2012-05-13T09:48:03Z</time>
      </trkpt>
      <trkpt lat="45.84748" lon="4.82498">
        <ele>261</ele>
        <time>2012-05-13T09:48:07Z</time>
      </trkpt>
      <trkpt lat="45.84737" lon="4.82505">
        <ele>255</ele>
        <time>2012-05-13T09:48:13Z</time>
      </trkpt>
      <trkpt lat="45.84729" lon="4.82507">
        <ele>253</ele>
        <time>2012-05-13T09:48:18Z</time>
      </trkpt>
      <trkpt lat="45.84724" lon="4.8251">
        <ele>251</ele>
        <time>2012-05-13T09:48:22Z</time>
      </trkpt>
      <trkpt lat="45.84722" lon="4.82513">
        <ele>250</ele>
        <time>2012-05-13T09:48:24Z</time>
      </trkpt>
      <trkpt lat="45.84721" lon="4.82515">
        <ele>250</ele>
        <time>2012-05-13T09:48:25Z</time>
      </trkpt>
      <trkpt lat="45.84716" lon="4.82518">
        <ele>249</ele>
        <time>2012-05-13T09:48:29Z</time>
      </trkpt>
      <trkpt lat="45.84715" lon="4.82519">
        <ele>249</ele>
        <time>2012-05-13T09:48:30Z</time>
      </trkpt>
      <trkpt lat="45.8471" lon="4.82526">
        <ele>248</ele>
        <time>2012-05-13T09:48:33Z</time>
      </trkpt>
      <trkpt lat="45.84709" lon="4.82527">
        <ele>247</ele>
        <time>2012-05-13T09:48:34Z</time>
      </trkpt>
      <trkpt lat="45.84707" lon="4.82533">
        <ele>247</ele>
        <time>2012-05-13T09:48:37Z</time>
      </trkpt>
      <trkpt lat="45.84705" lon="4.82538">
        <ele>246</ele>
        <time>2012-05-13T09:48:39Z</time>
      </trkpt>
      <trkpt lat="45.84703" lon="4.8254">
        <ele>246</ele>
        <time>2012-05-13T09:48:40Z</time>
      </trkpt>
      <trkpt lat="45.847" lon="4.82544">
        <ele>245</ele>
        <time>2012-05-13T09:48:42Z</time>
      </trkpt>
      <trkpt lat="45.84697" lon="4.82547">
        <ele>245</ele>
        <time>2012-05-13T09:48:44Z</time>
      </trkpt>
      <trkpt lat="45.84693" lon="4.82546">
        <ele>244</ele>
        <time>2012-05-13T09:48:47Z</time>
      </trkpt>
      <trkpt lat="45.8469" lon="4.82546">
        <ele>244</ele>
        <time>2012-05-13T09:48:49Z</time>
      </trkpt>
      <trkpt lat="45.84688" lon="4.82545">
        <ele>244</ele>
        <time>2012-05-13T09:48:51Z</time>
      </trkpt>
      <trkpt lat="45.84676" lon="4.82544">
        <ele>243</ele>
        <time>2012-05-13T09:48:58Z</time>
      </trkpt>
      <trkpt lat="45.84675" lon="4.82542">
        <ele>243</ele>
        <time>2012-05-13T09:48:59Z</time>
      </trkpt>
      <trkpt lat="45.84669" lon="4.82537">
        <ele>243</ele>
        <time>2012-05-13T09:49:03Z</time>
      </trkpt>
      <trkpt lat="45.84667" lon="4.82537">
        <ele>233</ele>
        <time>2012-05-13T09:49:04Z</time>
      </trkpt>
      <trkpt lat="45.84659" lon="4.82538">
        <ele>233</ele>
        <time>2012-05-13T09:49:07Z</time>
      </trkpt>
      <trkpt lat="45.84649" lon="4.82534">
        <ele>232</ele>
        <time>2012-05-13T09:49:11Z</time>
      </trkpt>
      <trkpt lat="45.84647" lon="4.82526">
        <ele>233</ele>
        <time>2012-05-13T09:49:16Z</time>
      </trkpt>
      <trkpt lat="45.84647" lon="4.82524">
        <ele>233</ele>
        <time>2012-05-13T09:49:18Z</time>
      </trkpt>
      <trkpt lat="45.84648" lon="4.82523">
        <ele>233</ele>
        <time>2012-05-13T09:49:20Z</time>
      </trkpt>
      <trkpt lat="45.84648" lon="4.82522">
        <ele>233</ele>
        <time>2012-05-13T09:49:21Z</time>
      </trkpt>
      <trkpt lat="45.84646" lon="4.82522">
        <ele>233</ele>
        <time>2012-05-13T09:49:38Z</time>
      </trkpt>
      <trkpt lat="45.84646" lon="4.82523">
        <ele>233</ele>
        <time>2012-05-13T09:49:47Z</time>
      </trkpt>
      <trkpt lat="45.84645" lon="4.8253">
        <ele>232</ele>
        <time>2012-05-13T09:49:56Z</time>
      </trkpt>
      <trkpt lat="45.84646" lon="4.82531">
        <ele>232</ele>
        <time>2012-05-13T09:50:03Z</time>
      </trkpt>
      <trkpt lat="45.84647" lon="4.8253">
        <ele>233</ele>
        <time>2012-05-13T09:50:14Z</time>
      </trkpt>
      <trkpt lat="45.84644" lon="4.82533">
        <ele>232</ele>
        <time>2012-05-13T09:50:31Z</time>
      </trkpt>
      <trkpt lat="45.84642" lon="4.8254">
        <ele>231</ele>
        <time>2012-05-13T09:50:36Z</time>
      </trkpt>
      <trkpt lat="45.8464" lon="4.82549">
        <ele>231</ele>
        <time>2012-05-13T09:50:40Z</time>
      </trkpt>
      <trkpt lat="45.84639" lon="4.82552">
        <ele>231</ele>
        <time>2012-05-13T09:50:41Z</time>
      </trkpt>
      <trkpt lat="45.84634" lon="4.82564">
        <ele>230</ele>
        <time>2012-05-13T09:50:46Z</time>
      </trkpt>
      <trkpt lat="45.84631" lon="4.82567">
        <ele>230</ele>
        <time>2012-05-13T09:50:48Z</time>
      </trkpt>
      <trkpt lat="45.8462" lon="4.82568">
        <ele>228</ele>
        <time>2012-05-13T09:50:53Z</time>
      </trkpt>
      <trkpt lat="45.84615" lon="4.82568">
        <ele>228</ele>
        <time>2012-05-13T09:50:55Z</time>
      </trkpt>
      <trkpt lat="45.84606" lon="4.82567">
        <ele>227</ele>
        <time>2012-05-13T09:50:59Z</time>
      </trkpt>
      <trkpt lat="45.84596" lon="4.82568">
        <ele>226</ele>
        <time>2012-05-13T09:51:03Z</time>
      </trkpt>
      <trkpt lat="45.84594" lon="4.82568">
        <ele>225</ele>
        <time>2012-05-13T09:51:04Z</time>
      </trkpt>
      <trkpt lat="45.84581" lon="4.82573">
        <ele>219</ele>
        <time>2012-05-13T09:51:09Z</time>
      </trkpt>
      <trkpt lat="45.84578" lon="4.82575">
        <ele>219</ele>
        <time>2012-05-13T09:51:10Z</time>
      </trkpt>
      <trkpt lat="45.84561" lon="4.82581">
        <ele>217</ele>
        <time>2012-05-13T09:51:16Z</time>
      </trkpt>
      <trkpt lat="45.84558" lon="4.8258">
        <ele>217</ele>
        <time>2012-05-13T09:51:18Z</time>
      </trkpt>
      <trkpt lat="45.84551" lon="4.82577">
        <ele>216</ele>
        <time>2012-05-13T09:51:22Z</time>
      </trkpt>
      <trkpt lat="45.84541" lon="4.82576">
        <ele>215</ele>
        <time>2012-05-13T09:51:27Z</time>
      </trkpt>
      <trkpt lat="45.84537" lon="4.82575">
        <ele>215</ele>
        <time>2012-05-13T09:51:29Z</time>
      </trkpt>
      <trkpt lat="45.84526" lon="4.82572">
        <ele>214</ele>
        <time>2012-05-13T09:51:34Z</time>
      </trkpt>
      <trkpt lat="45.84521" lon="4.8257">
        <ele>213</ele>
        <time>2012-05-13T09:51:36Z</time>
      </trkpt>
      <trkpt lat="45.84518" lon="4.8257">
        <ele>213</ele>
        <time>2012-05-13T09:51:39Z</time>
      </trkpt>
      <trkpt lat="45.84516" lon="4.8257">
        <ele>212</ele>
        <time>2012-05-13T09:51:41Z</time>
      </trkpt>
      <trkpt lat="45.845" lon="4.82575">
        <ele>208</ele>
        <time>2012-05-13T09:51:48Z</time>
      </trkpt>
      <trkpt lat="45.84499" lon="4.82574">
        <ele>208</ele>
        <time>2012-05-13T09:51:49Z</time>
      </trkpt>
      <trkpt lat="45.84487" lon="4.82575">
        <ele>208</ele>
        <time>2012-05-13T09:51:54Z</time>
      </trkpt>
      <trkpt lat="45.84484" lon="4.82577">
        <ele>209</ele>
        <time>2012-05-13T09:51:55Z</time>
      </trkpt>
      <trkpt lat="45.84482" lon="4.82578">
        <ele>209</ele>
        <time>2012-05-13T09:51:56Z</time>
      </trkpt>
      <trkpt lat="45.84478" lon="4.82578">
        <ele>209</ele>
        <time>2012-05-13T09:51:58Z</time>
      </trkpt>
      <trkpt lat="45.84472" lon="4.82578">
        <ele>209</ele>
        <time>2012-05-13T09:52:01Z</time>
      </trkpt>
      <trkpt lat="45.84468" lon="4.82589">
        <ele>204</ele>
        <time>2012-05-13T09:52:07Z</time>
      </trkpt>
      <trkpt lat="45.84465" lon="4.82595">
        <ele>204</ele>
        <time>2012-05-13T09:52:11Z</time>
      </trkpt>
      <trkpt lat="45.84462" lon="4.826">
        <ele>203</ele>
        <time>2012-05-13T09:52:14Z</time>
      </trkpt>
      <trkpt lat="45.84461" lon="4.82606">
        <ele>203</ele>
        <time>2012-05-13T09:52:18Z</time>
      </trkpt>
      <trkpt lat="45.84461" lon="4.82606">
        <ele>203</ele>
        <time>2012-05-13T09:52:20Z</time>
      </trkpt>
      <trkpt lat="45.84459" lon="4.82601">
        <ele>203</ele>
        <time>2012-05-13T09:53:15Z</time>
      </trkpt>
      <trkpt lat="45.84458" lon="4.82612">
        <ele>203</ele>
        <time>2012-05-13T09:53:41Z</time>
      </trkpt>
      <trkpt lat="45.84458" lon="4.82612">
        <ele>203</ele>
        <time>2012-05-13T09:53:49Z</time>
      </trkpt>
      <trkpt lat="45.84459" lon="4.82617">
        <ele>202</ele>
        <time>2012-05-13T09:53:54Z</time>
      </trkpt>
      <trkpt lat="45.84458" lon="4.82626">
        <ele>202</ele>
        <time>2012-05-13T09:53:57Z</time>
      </trkpt>
      <trkpt lat="45.84458" lon="4.82633">
        <ele>202</ele>
        <time>2012-05-13T09:53:59Z</time>
      </trkpt>
      <trkpt lat="45.84459" lon="4.82654">
        <ele>201</ele>
        <time>2012-05-13T09:54:05Z</time>
      </trkpt>
      <trkpt lat="45.84458" lon="4.8268">
        <ele>194</ele>
        <time>2012-05-13T09:54:11Z</time>
      </trkpt>
      <trkpt lat="45.84455" lon="4.82698">
        <ele>194</ele>
        <time>2012-05-13T09:54:16Z</time>
      </trkpt>
      <trkpt lat="45.84453" lon="4.82708">
        <ele>193</ele>
        <time>2012-05-13T09:54:19Z</time>
      </trkpt>
      <trkpt lat="45.84451" lon="4.82715">
        <ele>193</ele>
        <time>2012-05-13T09:54:21Z</time>
      </trkpt>
      <trkpt lat="45.84452" lon="4.82732">
        <ele>192</ele>
        <time>2012-05-13T09:54:26Z</time>
      </trkpt>
      <trkpt lat="45.84452" lon="4.82737">
        <ele>191</ele>
        <time>2012-05-13T09:54:27Z</time>
      </trkpt>
      <trkpt lat="45.84456" lon="4.82751">
        <ele>186</ele>
        <time>2012-05-13T09:54:31Z</time>
      </trkpt>
      <trkpt lat="45.8446" lon="4.82761">
        <ele>186</ele>
        <time>2012-05-13T09:54:34Z</time>
      </trkpt>
      <trkpt lat="45.84463" lon="4.82768">
        <ele>186</ele>
        <time>2012-05-13T09:54:36Z</time>
      </trkpt>
      <trkpt lat="45.84473" lon="4.82784">
        <ele>186</ele>
        <time>2012-05-13T09:54:42Z</time>
      </trkpt>
      <trkpt lat="45.84481" lon="4.82798">
        <ele>185</ele>
        <time>2012-05-13T09:54:47Z</time>
      </trkpt>
      <trkpt lat="45.84483" lon="4.82804">
        <ele>185</ele>
        <time>2012-05-13T09:54:49Z</time>
      </trkpt>
      <trkpt lat="45.84488" lon="4.82814">
        <ele>185</ele>
        <time>2012-05-13T09:54:52Z</time>
      </trkpt>
      <trkpt lat="45.84489" lon="4.82816">
        <ele>185</ele>
        <time>2012-05-13T09:54:53Z</time>
      </trkpt>
      <trkpt lat="45.8449" lon="4.8282">
        <ele>185</ele>
        <time>2012-05-13T09:54:54Z</time>
      </trkpt>
      <trkpt lat="45.84491" lon="4.82827">
        <ele>184</ele>
        <time>2012-05-13T09:54:56Z</time>
      </trkpt>
      <trkpt lat="45.84492" lon="4.82831">
        <ele>184</ele>
        <time>2012-05-13T09:54:57Z</time>
      </trkpt>
      <trkpt lat="45.84492" lon="4.82855">
        <ele>182</ele>
        <time>2012-05-13T09:55:03Z</time>
      </trkpt>
      <trkpt lat="45.84493" lon="4.82875">
        <ele>181</ele>
        <time>2012-05-13T09:55:08Z</time>
      </trkpt>
      <trkpt lat="45.84492" lon="4.82883">
        <ele>181</ele>
        <time>2012-05-13T09:55:10Z</time>
      </trkpt>
      <trkpt lat="45.84491" lon="4.82894">
        <ele>180</ele>
        <time>2012-05-13T09:55:13Z</time>
      </trkpt>
      <trkpt lat="45.8449" lon="4.829">
        <ele>180</ele>
        <time>2012-05-13T09:55:17Z</time>
      </trkpt>
      <trkpt lat="45.84491" lon="4.82906">
        <ele>180</ele>
        <time>2012-05-13T09:55:20Z</time>
      </trkpt>
      <trkpt lat="45.84493" lon="4.82924">
        <ele>179</ele>
        <time>2012-05-13T09:55:25Z</time>
      </trkpt>
      <trkpt lat="45.84493" lon="4.82932">
        <ele>178</ele>
        <time>2012-05-13T09:55:27Z</time>
      </trkpt>
      <trkpt lat="45.84495" lon="4.82944">
        <ele>178</ele>
        <time>2012-05-13T09:55:30Z</time>
      </trkpt>
      <trkpt lat="45.84498" lon="4.8295">
        <ele>177</ele>
        <time>2012-05-13T09:55:32Z</time>
      </trkpt>
      <trkpt lat="45.84501" lon="4.82959">
        <ele>177</ele>
        <time>2012-05-13T09:55:35Z</time>
      </trkpt>
      <trkpt lat="45.84509" lon="4.82973">
        <ele>176</ele>
        <time>2012-05-13T09:55:39Z</time>
      </trkpt>
      <trkpt lat="45.84509" lon="4.82976">
        <ele>176</ele>
        <time>2012-05-13T09:55:40Z</time>
      </trkpt>
      <trkpt lat="45.84511" lon="4.82986">
        <ele>176</ele>
        <time>2012-05-13T09:55:43Z</time>
      </trkpt>
      <trkpt lat="45.84512" lon="4.82989">
        <ele>176</ele>
        <time>2012-05-13T09:55:44Z</time>
      </trkpt>
      <trkpt lat="45.84517" lon="4.83007">
        <ele>173</ele>
        <time>2012-05-13T09:55:49Z</time>
      </trkpt>
      <trkpt lat="45.84518" lon="4.8301">
        <ele>173</ele>
        <time>2012-05-13T09:55:50Z</time>
      </trkpt>
      <trkpt lat="45.84522" lon="4.83026">
        <ele>173</ele>
        <time>2012-05-13T09:55:55Z</time>
      </trkpt>
    </trkseg>
  </trk>
</gpx>